[[{"header":{"parameterUnit":"m.s-1","parameterCategory":1,"la1":30.6,"la2":29.2853,"lo1":-89.7004,"lo2":-87.6739,"dy":0.0162,"dx":0.0183,"nx":112,"ny":82,"refTime":"2026-03-25T12:00:00:Z","depth":0,"parameterNumber":2,"parameterNumberName":"U-component_of_WINDS"},"data":[0.0,0.0,0.0,0.0,0.0,0.0,0.0,0.0,0.0,0.0,0.0,0.0,0.0,0.0,0.0,0.0,0.0,0.0,0.0,0.0,0.0,0.0,0.0,0.0,0.0,0.0,0.0,0.0,0.0,0.0,0.0,0.0,0.0,0.0,0.0,0.0,0.0,0.0,0.0,0.0,0.0,0.0,0.0,0.0,0.0,0.0,0.0,0.0,0.0,0.0,0.0,0.0,0.0,0.0,0.0,0.0,0.0,0.0,0.0,0.0,0.0,0.0,0.0,0.0,0.0,0.0,0.0,0.0,0.0,0.0,0.0,0.0,0.0,0.0,0.0,0.0,0.0,0.0,0.0,0.0,0.0,0.0,0.0,0.0,0.0,0.0,0.0,0.0,0.0,0.0,-4.2183,-4.3382,-4.496,-4.5995,-4.6247,-4.5371,-4.3691,-4.1074,0.0,0.0,0.0,0.0,0.0,0.0,0.0,0.0,0.0,0.0,0.0,0.0,0.0,0.0,0.0,0.0,0.0,0.0,0.0,0.0,0.0,0.0,0.0,0.0,0.0,0.0,0.0,0.0,0.0,0.0,0.0,0.0,0.0,0.0,0.0,0.0,0.0,0.0,0.0,0.0,0.0,0.0,0.0,0.0,0.0,0.0,0.0,0.0,0.0,0.0,0.0,0.0,0.0,0.0,0.0,0.0,0.0,0.0,0.0,0.0,0.0,0.0,0.0,0.0,0.0,0.0,0.0,0.0,0.0,0.0,0.0,0.0,0.0,0.0,0.0,0.0,0.0,0.0,0.0,0.0,0.0,0.0,0.0,0.0,0.0,0.0,0.0,0.0,0.0,0.0,0.0,0.0,0.0,0.0,0.0,0.0,0.0,0.0,0.0,0.0,0.0,0.0,0.0,0.0,-4.1434,-4.5017,-4.5695,-4.5951,-4.6117,-4.4761,-4.3065,-4.1112,0.0,0.0,0.0,0.0,0.0,0.0,0.0,0.0,0.0,0.0,0.0,0.0,0.0,0.0,0.0,0.0,0.0,0.0,0.0,0.0,0.0,0.0,0.0,0.0,0.0,0.0,0.0,0.0,0.0,0.0,0.0,0.0,0.0,0.0,0.0,0.0,0.0,0.0,0.0,0.0,0.0,0.0,0.0,0.0,0.0,0.0,0.0,0.0,0.0,0.0,0.0,0.0,0.0,0.0,0.0,0.0,0.0,0.0,0.0,0.0,0.0,0.0,0.0,0.0,0.0,0.0,0.0,0.0,0.0,0.0,0.0,0.0,0.0,0.0,0.0,0.0,0.0,0.0,0.0,0.0,0.0,0.0,0.0,0.0,0.0,0.0,0.0,0.0,0.0,0.0,0.0,0.0,0.0,0.0,0.0,0.0,0.0,0.0,0.0,0.0,0.0,0.0,0.0,-4.0578,-4.1887,-4.5182,-4.5719,-4.5891,-4.5981,-4.493,-4.3265,-4.0988,-3.8878,0.0,0.0,0.0,0.0,0.0,0.0,0.0,0.0,0.0,0.0,0.0,0.0,0.0,0.0,0.0,0.0,0.0,0.0,0.0,0.0,0.0,0.0,0.0,0.0,0.0,0.0,0.0,0.0,0.0,0.0,0.0,0.0,0.0,0.0,0.0,0.0,0.0,0.0,0.0,0.0,0.0,0.0,0.0,0.0,0.0,0.0,0.0,0.0,0.0,0.0,0.0,0.0,0.0,0.0,0.0,0.0,0.0,0.0,0.0,0.0,0.0,0.0,0.0,0.0,0.0,0.0,0.0,0.0,0.0,0.0,0.0,0.0,0.0,0.0,0.0,0.0,0.0,0.0,0.0,0.0,0.0,0.0,0.0,0.0,0.0,0.0,0.0,0.0,0.0,0.0,0.0,0.0,0.0,0.0,0.0,0.0,0.0,0.0,0.0,0.0,0.0,0.0,-4.2075,-4.2924,-4.4911,-4.5467,-4.5693,-4.5761,-4.4734,-4.3112,-4.084,-3.8324,0.0,0.0,0.0,0.0,0.0,0.0,0.0,0.0,0.0,0.0,0.0,0.0,0.0,0.0,0.0,0.0,0.0,0.0,0.0,0.0,0.0,0.0,0.0,0.0,0.0,0.0,0.0,0.0,0.0,0.0,0.0,0.0,0.0,0.0,0.0,0.0,0.0,0.0,0.0,0.0,0.0,0.0,0.0,0.0,0.0,0.0,0.0,0.0,0.0,0.0,0.0,0.0,0.0,0.0,0.0,0.0,0.0,0.0,0.0,0.0,0.0,0.0,0.0,0.0,0.0,0.0,0.0,0.0,0.0,0.0,0.0,0.0,0.0,0.0,0.0,0.0,0.0,0.0,0.0,0.0,0.0,0.0,0.0,0.0,0.0,0.0,0.0,0.0,0.0,0.0,0.0,0.0,0.0,0.0,0.0,0.0,0.0,0.0,0.0,0.0,0.0,0.0,-4.2327,-4.4455,-4.4619,-4.5051,-4.5342,-4.534,-4.346,-4.1838,-4.0762,-3.7453,0.0,0.0,0.0,0.0,0.0,0.0,0.0,0.0,0.0,0.0,0.0,0.0,0.0,0.0,0.0,0.0,0.0,0.0,0.0,0.0,0.0,0.0,0.0,0.0,0.0,0.0,0.0,0.0,0.0,0.0,0.0,0.0,0.0,0.0,0.0,0.0,0.0,0.0,0.0,0.0,0.0,0.0,0.0,0.0,0.0,0.0,0.0,0.0,0.0,0.0,0.0,0.0,0.0,0.0,0.0,0.0,0.0,0.0,0.0,0.0,0.0,0.0,0.0,0.0,0.0,0.0,0.0,0.0,0.0,0.0,0.0,0.0,0.0,0.0,0.0,0.0,0.0,0.0,0.0,0.0,0.0,0.0,0.0,0.0,0.0,0.0,0.0,0.0,0.0,0.0,0.0,0.0,0.0,0.0,0.0,0.0,0.0,0.0,0.0,0.0,0.0,0.0,-4.0972,-4.2739,-4.4078,-4.4607,-4.4635,-4.4113,-4.332,-4.1828,-3.9411,0.0,0.0,0.0,0.0,0.0,0.0,0.0,0.0,0.0,0.0,0.0,0.0,0.0,0.0,0.0,0.0,0.0,0.0,0.0,0.0,0.0,0.0,0.0,0.0,0.0,0.0,0.0,0.0,0.0,0.0,0.0,0.0,0.0,0.0,0.0,0.0,0.0,0.0,0.0,0.0,0.0,0.0,0.0,0.0,0.0,0.0,0.0,0.0,0.0,0.0,0.0,0.0,0.0,0.0,0.0,0.0,0.0,0.0,0.0,0.0,0.0,0.0,0.0,0.0,0.0,0.0,0.0,0.0,0.0,0.0,0.0,0.0,0.0,0.0,0.0,0.0,0.0,0.0,0.0,0.0,0.0,0.0,0.0,0.0,0.0,0.0,0.0,0.0,0.0,0.0,0.0,0.0,0.0,0.0,0.0,0.0,0.0,0.0,0.0,0.0,0.0,0.0,-3.8259,-4.0076,-4.1755,-4.3408,-4.3703,-4.3601,-4.3192,-4.2523,-4.0944,-3.818,0.0,0.0,0.0,0.0,0.0,0.0,0.0,0.0,0.0,0.0,0.0,0.0,0.0,0.0,0.0,0.0,0.0,0.0,0.0,0.0,0.0,0.0,0.0,0.0,0.0,0.0,0.0,0.0,0.0,0.0,0.0,0.0,0.0,0.0,0.0,0.0,0.0,0.0,0.0,0.0,0.0,0.0,0.0,0.0,0.0,0.0,0.0,0.0,0.0,0.0,0.0,0.0,0.0,0.0,0.0,0.0,0.0,0.0,0.0,0.0,0.0,0.0,0.0,0.0,0.0,0.0,0.0,0.0,0.0,0.0,0.0,0.0,0.0,0.0,0.0,0.0,0.0,0.0,0.0,0.0,0.0,0.0,0.0,0.0,0.0,0.0,0.0,0.0,0.0,0.0,0.0,0.0,0.0,0.0,0.0,0.0,0.0,0.0,0.0,0.0,0.0,0.0,-3.7116,-3.9881,-4.2021,-4.2616,-4.2267,-4.2193,-4.272,-4.0803,-3.8882,0.0,0.0,0.0,0.0,0.0,0.0,0.0,0.0,0.0,0.0,0.0,0.0,0.0,0.0,0.0,0.0,0.0,0.0,0.0,0.0,0.0,0.0,0.0,0.0,0.0,0.0,0.0,0.0,0.0,0.0,0.0,0.0,0.0,0.0,0.0,0.0,0.0,0.0,0.0,0.0,0.0,0.0,0.0,0.0,0.0,0.0,0.0,0.0,0.0,0.0,0.0,0.0,0.0,0.0,0.0,0.0,0.0,0.0,0.0,0.0,0.0,0.0,0.0,0.0,0.0,0.0,0.0,0.0,0.0,0.0,0.0,0.0,0.0,0.0,0.0,0.0,0.0,0.0,0.0,0.0,0.0,0.0,0.0,0.0,0.0,0.0,0.0,0.0,0.0,0.0,0.0,0.0,0.0,0.0,0.0,0.0,0.0,0.0,0.0,0.0,0.0,0.0,0.0,-3.6576,-3.8866,-4.0828,-4.1946,-4.1475,-4.0916,-4.0508,-3.9408,-3.7611,-3.4903,0.0,0.0,0.0,0.0,0.0,0.0,0.0,0.0,0.0,0.0,0.0,0.0,0.0,0.0,0.0,0.0,0.0,0.0,0.0,0.0,0.0,0.0,0.0,0.0,0.0,0.0,0.0,0.0,0.0,0.0,0.0,0.0,0.0,0.0,0.0,0.0,0.0,0.0,0.0,0.0,0.0,0.0,0.0,0.0,0.0,0.0,0.0,0.0,0.0,0.0,0.0,0.0,0.0,0.0,0.0,0.0,0.0,0.0,0.0,0.0,0.0,0.0,0.0,0.0,0.0,0.0,0.0,0.0,0.0,0.0,0.0,0.0,0.0,0.0,0.0,0.0,0.0,0.0,0.0,0.0,0.0,0.0,0.0,0.0,0.0,0.0,0.0,0.0,0.0,0.0,0.0,0.0,0.0,0.0,0.0,0.0,0.0,0.0,0.0,0.0,0.0,0.0,-3.5518,-3.7398,-3.9217,-4.0822,-4.0304,-3.9752,-3.9504,-3.8801,-3.7013,-3.3845,0.0,0.0,0.0,0.0,0.0,0.0,0.0,0.0,0.0,0.0,0.0,0.0,0.0,0.0,0.0,0.0,0.0,0.0,0.0,0.0,0.0,0.0,0.0,0.0,0.0,0.0,0.0,0.0,0.0,0.0,0.0,0.0,0.0,0.0,0.0,0.0,0.0,0.0,0.0,0.0,0.0,0.0,0.0,0.0,0.0,0.0,0.0,0.0,0.0,0.0,0.0,0.0,0.0,0.0,0.0,0.0,0.0,0.0,0.0,0.0,0.0,0.0,0.0,0.0,0.0,0.0,0.0,0.0,0.0,0.0,0.0,0.0,0.0,0.0,0.0,0.0,0.0,0.0,0.0,0.0,0.0,0.0,0.0,0.0,0.0,0.0,0.0,0.0,0.0,0.0,0.0,0.0,0.0,0.0,0.0,0.0,0.0,0.0,0.0,0.0,0.0,0.0,-3.4252,-3.5748,-3.746,-3.9403,-3.8891,-3.8646,-3.9186,-3.852,-3.6781,-3.3775,0.0,0.0,0.0,0.0,0.0,0.0,0.0,0.0,0.0,0.0,0.0,0.0,0.0,0.0,0.0,0.0,0.0,0.0,0.0,0.0,0.0,0.0,0.0,0.0,0.0,0.0,0.0,0.0,0.0,0.0,0.0,0.0,0.0,0.0,0.0,0.0,0.0,0.0,0.0,0.0,0.0,0.0,0.0,0.0,0.0,0.0,0.0,0.0,0.0,0.0,0.0,0.0,0.0,0.0,0.0,0.0,0.0,0.0,0.0,0.0,-3.7134,-3.7156,0.0,0.0,0.0,0.0,0.0,0.0,0.0,0.0,0.0,0.0,0.0,0.0,0.0,0.0,0.0,0.0,0.0,0.0,0.0,0.0,0.0,0.0,0.0,0.0,0.0,0.0,0.0,0.0,0.0,0.0,0.0,0.0,0.0,0.0,0.0,0.0,0.0,0.0,0.0,0.0,-3.36,-3.5064,-3.652,-3.8056,-3.7538,-3.7145,-3.7288,-3.6605,-3.5389,-3.3573,-3.23,0.0,0.0,0.0,0.0,0.0,0.0,0.0,0.0,0.0,0.0,0.0,0.0,0.0,0.0,0.0,0.0,0.0,0.0,0.0,0.0,0.0,0.0,0.0,0.0,0.0,0.0,0.0,0.0,0.0,0.0,0.0,0.0,0.0,0.0,0.0,0.0,0.0,0.0,0.0,0.0,0.0,0.0,0.0,0.0,0.0,0.0,0.0,0.0,0.0,0.0,0.0,0.0,0.0,0.0,0.0,0.0,0.0,0.0,0.0,-3.5926,-3.6762,0.0,0.0,0.0,0.0,0.0,0.0,0.0,0.0,0.0,0.0,0.0,0.0,0.0,0.0,0.0,0.0,0.0,0.0,0.0,0.0,0.0,0.0,0.0,0.0,0.0,0.0,0.0,0.0,0.0,0.0,0.0,0.0,0.0,0.0,0.0,0.0,0.0,0.0,0.0,0.0,-3.2756,-3.3602,-3.4828,-3.7002,-3.6888,-3.6643,-3.6697,-3.6045,-3.5001,-3.3525,-3.1782,0.0,0.0,0.0,0.0,0.0,0.0,0.0,0.0,0.0,0.0,0.0,0.0,0.0,0.0,0.0,0.0,0.0,0.0,0.0,0.0,0.0,0.0,0.0,0.0,0.0,0.0,0.0,0.0,0.0,0.0,0.0,0.0,0.0,0.0,0.0,0.0,0.0,0.0,0.0,0.0,0.0,0.0,0.0,0.0,0.0,0.0,0.0,0.0,0.0,0.0,0.0,0.0,0.0,-3.4421,-3.3472,-3.2582,-3.1459,-3.0975,-3.1184,-3.4584,-3.6042,-3.5982,-3.6191,0.0,0.0,0.0,0.0,0.0,0.0,0.0,0.0,0.0,0.0,0.0,0.0,0.0,0.0,0.0,0.0,0.0,0.0,0.0,0.0,0.0,0.0,-3.0483,-3.01,-3.0164,-2.9992,-2.8668,0.0,0.0,0.0,0.0,0.0,0.0,0.0,0.0,0.0,0.0,0.0,-3.1723,-3.1984,-3.2931,-3.5471,-3.584,-3.5984,-3.6207,-3.5733,-3.4928,-3.3731,-3.181,-3.0417,0.0,0.0,0.0,0.0,0.0,0.0,0.0,0.0,0.0,0.0,0.0,0.0,0.0,0.0,0.0,0.0,0.0,0.0,0.0,0.0,0.0,0.0,0.0,0.0,0.0,0.0,0.0,0.0,0.0,0.0,0.0,0.0,-3.6939,-3.6267,0.0,0.0,0.0,0.0,0.0,0.0,0.0,0.0,0.0,0.0,0.0,0.0,0.0,-3.1526,-3.1526,-3.208,-3.2285,-3.2125,-3.245,-3.2467,-3.234,-3.219,-3.209,-3.2129,-3.2685,0.0,-3.1609,-3.2575,0.0,0.0,0.0,0.0,0.0,0.0,0.0,0.0,0.0,0.0,0.0,0.0,0.0,0.0,0.0,0.0,0.0,0.0,0.0,0.0,0.0,0.0,-2.8767,-2.8202,-2.8123,-2.7949,-2.7264,-2.8381,-2.8956,-2.6998,-2.7207,-2.7762,0.0,0.0,0.0,0.0,0.0,0.0,-3.0468,-3.0828,-3.1364,-3.234,-3.2854,-3.3448,-3.4305,-3.4341,-3.4319,-3.4366,-3.2903,-3.1778,-3.1166,-2.8576,0.0,0.0,0.0,0.0,0.0,0.0,0.0,0.0,0.0,0.0,0.0,0.0,0.0,0.0,0.0,0.0,0.0,0.0,0.0,0.0,0.0,0.0,0.0,0.0,0.0,0.0,0.0,0.0,0.0,-3.6085,-3.6117,-3.4632,-3.5201,-3.5115,0.0,0.0,0.0,0.0,0.0,0.0,0.0,0.0,0.0,-3.1382,-3.1244,-3.1131,-3.1131,-3.1672,-3.1956,-3.1967,-3.1422,-3.1173,-3.1173,-3.0421,-3.0068,-3.0068,-3.0068,-2.9787,-2.9495,-3.1176,-3.1267,-3.048,0.0,0.0,0.0,0.0,-3.0699,-3.0269,-3.0549,-3.0823,-3.0787,-2.9632,0.0,0.0,0.0,0.0,0.0,0.0,0.0,-2.8487,-2.7611,-2.8,-2.8421,-2.7809,-2.8172,-2.8522,-2.7987,-2.8233,-2.8193,-2.6732,-2.7265,-2.7854,-2.7468,-2.7403,0.0,0.0,0.0,-2.8267,-2.942,-2.9599,-3.0065,-3.1231,-3.157,-3.1859,-3.2281,-3.2283,-3.231,-3.2419,-3.11,-3.042,-3.0646,-2.8517,-2.7255,0.0,0.0,0.0,0.0,0.0,0.0,0.0,0.0,0.0,0.0,0.0,0.0,0.0,0.0,0.0,0.0,0.0,0.0,0.0,0.0,0.0,0.0,0.0,0.0,0.0,0.0,0.0,0.0,-3.4999,-3.4806,-3.2835,-3.3363,-3.3097,0.0,0.0,0.0,0.0,0.0,0.0,-3.0351,-3.009,-2.9996,-3.0065,-3.046,-3.0694,-3.0694,-3.1102,-3.1276,-3.1276,-3.0266,-2.9817,-2.9755,-2.8751,-2.8291,-2.8291,-2.8291,-2.8291,-2.8422,-3.0042,-3.0374,-2.9942,-2.9942,-2.9867,-2.9759,-2.9759,-2.9494,-2.9235,-2.9591,-2.9667,-2.9467,-2.8549,-2.8054,-2.7635,-2.6365,0.0,0.0,0.0,0.0,-2.7289,-2.6615,-2.7146,-2.7739,-2.7232,-2.7814,-2.8351,-2.7947,-2.762,-2.721,-2.6426,-2.6924,-2.725,-2.6646,-2.6786,0.0,-2.7269,-2.7346,-2.7715,-2.8575,-2.8592,-2.8924,-2.9943,-3.0174,-3.0358,-3.0596,-3.0678,-3.074,-3.0812,-2.9981,-2.9725,-3.0202,-2.8605,-2.7667,-2.7647,0.0,0.0,0.0,0.0,0.0,0.0,0.0,0.0,0.0,0.0,0.0,0.0,0.0,0.0,0.0,0.0,0.0,0.0,0.0,0.0,0.0,0.0,0.0,0.0,0.0,0.0,0.0,0.0,0.0,-3.1446,-3.1538,0.0,0.0,0.0,0.0,-3.0652,-2.952,-2.905,-2.9522,-2.8469,-2.8013,-2.8416,-2.8455,-2.8465,-2.8465,-2.8485,-2.8495,-2.8495,-2.8451,-2.8398,-2.8398,-2.8344,-2.8291,-2.8291,-2.8291,-2.8291,-2.8291,-2.8422,-2.8219,-2.7826,-2.7826,-2.758,-2.7206,-2.7206,-2.7145,-2.7125,-2.7206,-2.7915,-2.8715,-2.8001,-2.7186,-2.6419,-2.5888,-2.5902,0.0,0.0,-2.5975,-2.6589,-2.5904,-2.579,-2.5849,-2.5781,-2.583,-2.5868,-2.5849,-2.6032,-2.6209,-2.6304,-2.6001,-2.5819,-2.6073,0.0,-2.7771,-2.8093,-2.8789,-2.8902,-2.7901,-2.7991,-2.7979,-2.7546,-2.7927,-2.8615,-2.9486,-3.0086,-3.0521,-3.0772,-3.1213,-3.1206,-3.0594,-2.9389,-2.8439,-2.7803,-2.5475,0.0,0.0,0.0,0.0,0.0,0.0,0.0,0.0,0.0,0.0,0.0,0.0,0.0,0.0,0.0,0.0,0.0,0.0,0.0,0.0,0.0,0.0,0.0,0.0,0.0,0.0,0.0,0.0,-3.1003,-3.1795,0.0,-2.9852,-2.939,-2.9127,-2.8767,-2.837,-2.8373,-2.9093,-2.8469,-2.8262,-2.8682,-2.8437,-2.8291,-2.8291,-2.8291,-2.8291,-2.8291,-2.8291,-2.8291,-2.8291,-2.8291,-2.8291,-2.8291,-2.8291,-2.8291,-2.8291,-2.8291,-2.8203,-2.8066,-2.8066,-2.7978,-2.7842,-2.7842,-2.7842,-2.7842,-2.7842,-2.8137,-2.8411,-2.7852,-2.7266,-2.6758,-2.6611,-2.6576,-2.6644,-2.6369,-2.6606,-2.6764,-2.628,-2.6162,-2.6084,-2.5752,-2.5693,-2.5693,-2.5693,-2.5587,-2.538,-2.5115,-2.5658,-2.6105,-2.5842,-2.6104,-2.6267,-2.6056,-2.6881,-2.7373,-2.6991,-2.7615,-2.8034,-2.7833,-2.7996,-2.7975,-2.7594,-2.8076,-2.8288,-2.8058,-2.8209,-2.86,-2.9226,-2.8518,-2.8047,-2.7937,-2.6317,-2.477,0.0,0.0,0.0,0.0,0.0,0.0,0.0,0.0,0.0,0.0,0.0,0.0,0.0,0.0,0.0,0.0,0.0,0.0,0.0,0.0,0.0,0.0,0.0,0.0,0.0,-3.0855,-3.1411,-3.04,-3.1208,-3.1201,-2.9464,-2.9013,-2.8681,-2.8378,-2.8364,-2.8555,-2.9111,-2.8877,-2.8857,-2.9131,-2.873,-2.8506,-2.8506,-2.8359,-2.8291,-2.8291,-2.8291,-2.8291,-2.8291,-2.8291,-2.8291,-2.8291,-2.8291,-2.8291,-2.8291,-2.8291,-2.8291,-2.8291,-2.8291,-2.8291,-2.8291,-2.8291,-2.8291,-2.8291,-2.8291,-2.8291,-2.8252,-2.7969,-2.7588,-2.7236,-2.7236,-2.7139,-2.7012,-2.7012,-2.6914,-2.6738,-2.6465,-2.6279,-2.6103,-2.5762,-2.5693,-2.5693,-2.5693,-2.5381,-2.4941,-2.4502,-2.5046,-2.5401,-2.4867,-2.507,-2.5153,-2.4603,-2.5633,-2.6376,-2.5989,-2.7057,-2.7755,-2.7594,-2.757,-2.7261,-2.6574,-2.6845,-2.6892,-2.6522,-2.6524,-2.709,-2.8295,-2.7196,-2.6769,-2.7249,-2.5569,-2.3853,-2.2167,0.0,0.0,0.0,0.0,0.0,0.0,0.0,0.0,0.0,0.0,0.0,0.0,0.0,0.0,0.0,0.0,0.0,0.0,0.0,0.0,0.0,0.0,0.0,-2.9744,-3.0405,-3.0422,-2.9599,-2.9547,-2.9424,-2.9004,-2.8945,-2.9111,-2.9597,-2.9626,-2.9626,-2.9626,-2.9616,-2.956,-2.9626,-2.9141,-2.8916,-2.8916,-2.8516,-2.8301,-2.8291,-2.8291,-2.8291,-2.8291,-2.8291,-2.8291,-2.8291,-2.8291,-2.8291,-2.8291,-2.8291,-2.8291,-2.8291,-2.8291,-2.8291,-2.8291,-2.8291,-2.8291,-2.8291,-2.8291,-2.8291,-2.8291,-2.8291,-2.8018,-2.7738,-2.7738,-2.7393,-2.7051,-2.7051,-2.6758,-2.6426,-2.6406,-2.6084,-2.5703,-2.5693,-2.5693,-2.5693,-2.5693,-2.54,-2.4998,-2.4502,-2.4092,-2.3662,-2.3169,-2.4006,-2.4566,-2.4065,-2.54,0.0,-2.4954,-2.6228,-2.7079,-2.6567,-2.652,-2.6482,-2.6432,-2.642,-2.6408,-2.6385,-2.6451,-2.6927,-2.7937,-2.5595,-2.4746,-2.5718,-2.328,-2.1219,-1.9676,0.0,0.0,0.0,0.0,0.0,0.0,0.0,0.0,0.0,0.0,0.0,0.0,0.0,0.0,0.0,0.0,0.0,0.0,0.0,0.0,0.0,-2.7883,-2.8303,-2.833,-2.8946,-2.947,-2.955,-2.9843,-2.998,-2.9853,-2.957,-2.9443,-2.9616,-2.9626,-2.9626,-2.9626,-2.9268,-2.9248,-2.9616,-2.9141,-2.8916,-2.8916,-2.8809,-2.8594,-2.8291,-2.8291,-2.8291,-2.8291,-2.8291,-2.8291,-2.8291,-2.8291,-2.8291,-2.8291,-2.8291,-2.8291,-2.8291,-2.8291,-2.8291,-2.8291,-2.8291,-2.8291,-2.8291,-2.8291,-2.8291,-2.8291,-2.8291,-2.8213,-2.8125,-2.8125,-2.8037,-2.7939,-2.7939,-2.7637,-2.7236,-2.6924,-2.6523,-2.6133,-2.5762,-2.5693,-2.5693,-2.5693,-2.5596,-2.5332,-2.457,-2.4326,-2.4004,-2.3218,-2.3343,-2.3511,-2.3358,-2.4427,-2.5156,-2.4858,-2.5924,-2.6661,-2.6507,-2.6484,-2.615,-2.5363,-2.5006,-2.4658,-2.4219,-2.3911,-2.406,-2.4754,-2.409,-2.3864,-2.4121,-2.2689,-2.0953,0.0,0.0,0.0,0.0,0.0,0.0,0.0,0.0,0.0,0.0,0.0,0.0,0.0,0.0,0.0,0.0,0.0,0.0,0.0,0.0,0.0,0.0,-2.6343,-2.7113,-2.7236,-2.8379,-2.9287,-2.9597,-2.9785,-3.0,-3.0176,-2.9971,-2.9912,-3.0107,-2.9941,-2.9834,-2.9834,-2.9424,-2.9394,-2.9824,-2.9414,-2.9189,-2.9189,-2.9014,-2.8711,-2.8291,-2.8291,-2.8291,-2.8291,-2.8291,-2.8291,-2.8291,-2.8291,-2.8291,-2.8291,-2.8291,-2.8291,-2.8291,0.0,0.0,0.0,0.0,-2.8291,-2.8237,-2.7609,-2.7394,-2.7276,-2.6608,-2.6391,-2.6391,-2.6391,-2.6391,-2.6391,-2.6391,-2.6108,-2.5706,-2.5304,-2.4902,-2.4661,-2.482,-2.4452,-2.4196,-2.4766,-2.4402,-2.3908,-2.3627,-2.356,0.0,-2.3149,-2.3091,-2.3091,-2.3091,-2.3671,-2.4082,-2.4082,-2.5083,-2.5797,-2.5797,-2.5797,-2.5504,-2.4872,-2.4189,0.0,0.0,0.0,-2.2157,-2.1638,-2.1985,0.0,0.0,0.0,0.0,0.0,-1.6909,0.0,0.0,-1.6726,-1.6258,0.0,0.0,0.0,0.0,0.0,0.0,0.0,0.0,0.0,0.0,0.0,0.0,0.0,0.0,0.0,0.0,-2.4106,-2.5576,-2.639,-2.8005,-2.9215,-2.957,-2.9626,-2.9717,-3.0088,-3.0166,-3.0371,-3.0781,-3.043,-3.0176,-3.0127,-2.9775,0.0,0.0,0.0,-2.9675,-2.9626,-2.9189,-2.876,-2.8291,-2.8291,-2.8291,-2.8291,-2.8291,-2.8291,-2.8291,-2.8291,-2.8237,-2.8067,-2.8067,-2.795,-2.7789,-2.796,-2.8067,-2.8067,-2.8067,-2.8067,-2.7843,-2.6545,0.0,0.0,-2.4322,-2.3822,-2.3822,-2.3822,-2.3822,-2.3822,-2.3822,-2.3511,-2.3102,-2.2786,-2.2379,-2.2328,-2.3273,-2.2567,-2.2055,-2.3226,-2.2567,-2.1787,-2.2131,-2.2218,-2.2304,-2.2644,-2.2818,-2.2906,-2.2906,-2.2906,-2.2906,-2.2906,-2.391,-2.4628,-2.4628,-2.4628,0.0,-2.4436,-2.3567,-2.296,-2.2919,-2.2144,-2.0797,-1.8877,-1.9603,-1.9017,-1.6799,-1.676,-1.6501,-1.5904,-1.5904,-1.5865,-1.5696,-1.4768,-1.4684,0.0,0.0,0.0,0.0,0.0,0.0,0.0,0.0,0.0,0.0,0.0,0.0,0.0,0.0,0.0,-2.2958,-2.3961,-2.4819,-2.52,-2.5558,-2.6761,-2.9281,-2.9626,-2.96,-2.9687,-3.0,-3.0234,-3.0322,-3.0244,-3.0049,-2.9707,-2.9619,-2.9665,-2.9687,-2.9941,-2.9912,-2.957,-2.9482,-2.9053,-2.8291,-2.8291,0.0,-2.8291,-2.8291,-2.8291,-2.8291,-2.8291,-2.7618,-2.6545,-2.6545,-2.5772,-2.4765,-2.6045,-2.6545,-2.6545,-2.6545,-2.6545,-2.649,-2.6209,-2.61,-2.5873,-2.4322,-2.3822,-2.3822,-2.3822,-2.3822,0.0,-2.3822,-2.3511,-2.3102,-2.2786,-2.2379,-2.2121,-2.2097,-2.1904,-2.1752,-2.2055,-2.1904,-2.1537,-2.1048,-2.0962,-2.0774,-2.0261,-2.0989,-2.1667,-2.1667,-2.1667,-2.1667,-2.1667,-2.2702,-2.343,-2.343,-2.343,-2.3052,-2.2038,-2.1503,-2.1042,-2.0666,-1.9978,-1.8979,-1.7658,-1.7811,-1.7688,-1.7186,-1.7186,-1.6605,-1.5431,-1.5431,-1.4961,-1.4053,-1.4386,-1.4622,0.0,0.0,0.0,0.0,0.0,0.0,0.0,0.0,0.0,0.0,0.0,-2.0341,-2.0224,0.0,-2.0866,-2.1412,-2.2494,-2.3339,-2.3642,-2.4327,-2.5792,-2.8395,-2.8296,-2.8472,-2.9485,-2.9756,-2.9883,-2.9883,-2.9883,-2.9697,-2.9268,-2.9248,-2.9346,-2.956,-2.998,-3.0098,-2.9883,-2.9883,-2.9453,-2.8603,-2.8603,-2.8496,-2.8291,-2.7565,-2.7222,-2.7168,-2.6381,-2.5608,-2.4931,-2.4931,-2.4488,-2.3822,-2.3813,-2.4322,-2.4931,-2.4931,-2.4931,-2.482,-2.4092,-2.3869,-2.359,-2.2096,-2.1601,-2.1601,-2.1601,-2.1601,-2.1601,-2.1601,-2.1432,-2.1193,-2.0694,-2.0455,-2.0362,-2.0612,-2.0128,-1.9826,-2.0487,-2.0128,-1.9675,-1.9774,-1.9779,-1.9796,-1.9698,-1.9714,-1.9879,-2.0331,-2.0395,-2.0395,-2.0395,-2.0944,-2.1311,-2.1311,-2.1311,-2.1033,-2.044,-1.9997,-1.9539,-1.9119,-1.8793,-1.8046,-1.6737,-1.6687,-1.6368,-1.5718,-1.5718,-1.5355,-1.4709,-1.4709,-1.4427,-1.3861,-1.4185,-1.4353,0.0,0.0,0.0,0.0,0.0,0.0,0.0,-2.0271,-2.037,-1.9397,-1.9461,-1.9526,-1.9,-1.8971,-1.9185,-1.9713,-2.0822,-2.1701,-2.2102,-2.3146,-2.4679,-2.6719,-2.65,-2.695,-2.8896,-2.8879,-2.8898,-2.9113,-2.8869,-2.8539,-2.8142,-2.8123,-2.8322,-2.8738,-2.9451,-2.968,-2.924,-2.9546,-2.9343,-2.8528,-2.8157,-2.805,-2.8029,-2.64,-2.5698,-2.565,-2.4078,-2.3375,-2.3375,-2.3047,-2.2934,-2.2822,-2.1643,-2.1926,-2.2991,-2.3263,-2.3375,-2.3207,-2.2032,-2.1586,-2.1365,-1.9866,-1.9424,-1.9424,-1.9424,-1.9424,-1.9424,-1.9424,-1.9424,-1.9232,-1.8644,-1.849,-1.8605,-1.912,-1.8401,-1.7891,-1.8968,-1.8349,-1.7803,-1.8513,-1.8651,-1.879,-1.9161,-1.8394,-1.8058,-1.9004,-1.9131,-1.9131,-1.9131,-1.936,-1.9497,-1.9497,-1.9497,-1.9405,-1.9177,-1.8709,-1.8209,-1.7675,-1.7806,-1.7294,-1.5957,-1.59,-1.534,-1.4218,-1.4168,-1.4142,-1.4088,-1.4088,-1.4088,-1.4088,-1.4088,-1.4088,-2.0565,-1.9562,-1.8459,-1.7385,-1.8132,-1.9,0.0,-1.9163,-1.9749,-1.881,-1.884,-1.9007,-1.8911,-1.9138,-1.9426,-1.9746,-1.9912,-2.0226,-2.0849,-2.1047,-2.1883,-2.384,-2.4587,-2.5558,-2.7236,-2.6423,-2.6249,-2.75,-2.6244,-2.5409,-2.5367,-2.5359,-2.5469,-2.5772,-2.7597,-2.7692,-2.5847,-2.7346,-2.7788,-2.7287,-2.5608,-2.5665,-2.7148,-2.5026,-2.4228,-2.4406,-2.2609,-2.1862,-2.1756,-2.0422,-1.9873,-1.9873,-1.9707,-1.9758,-2.004,-2.1365,-2.1862,-2.1805,-2.1635,-2.1586,-2.1365,-1.9866,-1.9424,-1.9424,-1.9424,-1.9424,-1.9424,-1.9424,-1.9424,-1.9232,-1.8644,-1.849,-1.8392,-1.7934,-1.7687,-1.7635,-1.7786,-1.7687,-1.7548,-1.7407,-1.7398,-1.7259,-1.68,-1.6607,-1.6835,-1.7783,-1.7917,-1.7917,-1.7917,-1.8818,-1.9497,-1.9497,-1.9497,-1.9093,-1.8002,-1.7454,-1.6799,-1.5796,-1.6365,-1.6279,-1.5178,-1.5133,-1.4902,-1.4476,-1.4476,-1.4342,-1.4088,-1.4088,-1.4088,-1.4088,-1.4088,-1.4088,-1.7825,-1.697,-1.6221,-1.5088,-1.6037,-1.7137,-1.6954,-1.8176,-1.9181,-1.8823,-1.8978,-1.9459,-2.0338,-2.0608,-2.0808,-2.1315,-2.1341,-2.1261,-2.0967,-2.0782,-2.1025,-2.1817,-2.3036,-2.4396,-2.5922,-2.6479,-2.6477,-2.5866,-2.5386,-2.5,-2.4795,-2.4984,-2.5156,-2.5312,-2.6396,-2.6575,-2.5693,-2.6414,-2.6533,-2.604,-2.5236,-2.5194,-2.5649,-2.3623,-2.2299,-2.1407,-2.0651,-2.0314,-2.0256,-1.9642,-1.9424,-1.9424,-1.9424,-1.9424,-1.9482,-2.009,-2.0314,-2.0314,-2.0314,-2.0314,-2.0199,-1.9591,-1.9424,-1.9424,-1.9424,-1.9424,-1.9424,-1.9424,-1.9424,-1.9272,-1.8851,-1.8617,-1.8384,-1.7956,-1.7716,-1.7582,-1.7582,-1.7582,-1.7549,-1.7474,-1.7454,-1.732,-1.6904,-1.664,-1.6616,-1.6841,-1.6741,-1.6574,-1.6574,-1.703,-1.7343,-1.7343,-1.7343,-1.7163,-1.6615,-1.6402,-1.6099,-1.5645,-1.5936,-1.5876,-1.5269,-1.5217,-1.5077,-1.4783,-1.4609,-1.4456,-1.4342,-1.4168,-1.4088,-1.4088,-1.4088,-1.4088,-1.5065,-1.4592,-1.4325,-1.3541,-1.442,-1.5562,-1.6088,-1.7319,-1.8511,-1.8931,-1.9219,-1.9866,-2.1309,-2.1586,-2.1917,-2.2999,-2.3173,-2.2992,-2.2546,-2.2189,-2.1989,-2.1989,-2.3286,-2.4336,-2.4596,-2.5837,-2.5991,-2.4378,-2.411,-2.3902,-2.3601,-2.3878,-2.4049,-2.4143,-2.4942,-2.5138,-2.464,-2.513,-2.5185,-2.4807,-2.4298,-2.4173,-2.4313,-2.24,-2.0737,-1.9424,-1.9424,-1.9424,-1.9424,-1.9424,-1.9424,-1.9424,-1.9424,-1.9424,-1.9424,-1.9424,-1.9424,-1.9424,-1.9424,-1.9424,-1.9424,-1.9424,-1.9424,-1.9424,-1.9424,-1.9424,-1.9424,-1.9424,-1.9424,-1.9299,-1.8998,-1.8704,-1.8417,-1.8062,-1.7809,-1.7582,-1.7582,-1.7582,-1.7582,-1.7582,-1.7582,-1.7488,-1.7253,-1.7025,-1.6727,-1.6433,-1.6139,-1.5919,-1.5791,-1.5784,-1.5784,-1.5784,-1.5784,-1.5784,-1.5784,-1.5784,-1.5784,-1.5784,-1.5784,-1.5684,-1.5524,-1.5518,-1.5378,-1.5135,-1.487,-1.4723,-1.4643,-1.4436,-1.4329,-1.4329,-1.4329,-1.4329,-1.3142,-1.3036,-1.3313,-1.3058,-1.3648,-1.464,-1.6161,-1.6768,-1.7489,-1.9049,-1.9417,-1.9866,-2.1309,-2.1586,-2.2303,-2.4497,-2.4845,-2.5092,-2.5756,-2.5422,-2.5133,-2.5133,-2.6246,-2.5944,-2.3225,-2.3426,-2.354,-2.3202,-2.1689,-2.0854,-2.0847,-2.0854,-2.0989,-2.1209,-2.2827,-2.2897,-2.1229,-2.2834,-2.369,-2.3613,-2.172,-2.1789,-2.3583,-2.1263,-1.9966,-1.9424,-1.9424,-1.9424,-1.9424,-1.9424,-1.9424,-1.9424,-1.9424,-1.9424,-1.9424,-1.9424,-1.9424,-1.9424,-1.9424,-1.9424,-1.9424,-1.9424,-1.9424,-1.9424,-1.9424,-1.9424,-1.9424,-1.9424,-1.9424,-1.9299,-1.8998,-1.8704,-1.8417,-1.8062,-1.7809,-1.7582,-1.7582,-1.7582,-1.7582,-1.7582,-1.7582,-1.7488,-1.7253,-1.7192,-1.7085,-1.6734,-1.6446,-1.6152,-1.5818,-1.5784,-1.5784,-1.5784,-1.5784,-1.5784,-1.5784,-1.5784,-1.5784,-1.5784,-1.5784,-1.5778,-1.5764,-1.5764,-1.5678,-1.5391,-1.5378,-1.5231,-1.4995,-1.4988,-1.4981,-1.4981,-1.4981,-1.4981,-1.1926,-1.1648,-1.157,-1.089,-1.174,-1.3187,-1.4864,-1.6135,-1.7394,-1.8761,-1.9072,-1.9453,-2.0759,-2.1993,-2.2815,-2.2987,-2.3991,-2.4273,-2.2912,-2.2483,-2.2148,-2.1932,-2.3426,-2.3577,-2.1341,-2.4296,-2.5085,-2.1991,-2.231,-2.213,-2.1025,-2.0962,-2.1009,-2.1109,-2.1664,-2.1664,-2.1109,-2.1664,-2.1908,-2.1908,-2.1254,-2.1222,-2.1665,-2.0652,-2.002,-1.9646,-1.9511,-1.9424,-1.9424,-1.9424,-1.9424,-1.9424,-1.9424,-1.9424,-1.9424,-1.9424,-1.9424,-1.9424,-1.9424,-1.9424,-1.9424,-1.9424,-1.9424,-1.9424,-1.9424,-1.9424,-1.9424,-1.9424,-1.9424,-1.9345,-1.9245,-1.8998,-1.8704,-1.841,-1.811,-1.7836,-1.7622,-1.7582,-1.7582,-1.7582,-1.7582,-1.7549,-1.7507,-1.7326,-1.7099,-1.6747,-1.646,-1.6166,-1.5818,-1.5784,-1.5784,-1.5784,-1.5784,-1.5784,-1.5784,-1.5784,-1.5784,-1.5784,-1.5784,-1.5784,-1.5784,-1.5784,-1.5785,-1.5685,-1.5491,-1.5351,-1.5251,-1.5102,-1.5008,-1.5008,-1.5008,-1.5008,-0.9777,-0.9449,-0.9458,-0.9494,-1.0362,-1.1653,-1.3379,-1.4888,-1.6367,-1.7786,-1.8429,-1.9145,-2.0488,-2.1643,-2.2545,-2.2858,-2.3865,-2.4188,-2.3014,-2.2545,-2.227,-2.206,-2.3014,-2.3037,-2.1348,-2.455,-2.5166,-2.1384,-2.2097,-2.2223,-2.1172,-2.1109,-2.1109,-2.1109,-2.1109,-2.1056,-2.0955,-2.0955,-2.0902,-2.0795,-2.0795,-2.0641,-2.0354,-2.0167,-1.992,-1.9633,-1.9446,-1.9424,-1.9424,-1.9424,-1.9424,-1.9424,-1.9424,-1.9424,-1.9424,-1.9424,-1.9424,-1.9424,-1.9424,-1.9424,-1.9424,-1.9424,-1.9424,-1.9424,-1.9424,-1.9424,-1.9424,-1.9424,-1.9424,-1.9424,-1.9424,-1.9145,-1.8878,-1.8691,-1.8337,-1.7935,-1.7796,-1.7662,-1.7582,-1.7582,-1.7582,-1.7582,-1.7582,-1.7481,-1.7259,-1.6907,-1.6707,-1.648,-1.6179,-1.6146,-1.6146,-1.6146,-1.6146,-1.6099,-1.5999,-1.5985,-1.5945,-1.5791,-1.5784,-1.5784,-1.5784,-1.5784,-1.5784,-1.5784,-1.5645,-1.5551,-1.5551,-1.5364,-1.5277,-1.5277,-1.5277,-1.5277,-0.6824,-0.6697,-0.729,-0.899,-0.9591,-1.0219,-1.1827,-1.3217,-1.4635,-1.6132,-1.756,-1.8885,-2.0298,-2.0638,-2.1462,-2.3829,-2.4318,-2.4713,-2.5646,-2.5378,-2.5098,-2.5082,-2.4738,-2.4032,-2.2929,-2.396,-2.3681,-2.1288,-2.1145,-2.1139,-2.1069,-2.1082,-2.1082,-2.1062,-2.1062,-2.0929,-2.0661,-2.0655,-2.0514,-2.0173,-2.0173,-2.0087,-1.982,-1.9806,-1.9646,-1.945,-1.943,-1.9424,-1.9424,-1.9424,-1.9424,-1.9424,-1.9424,-1.9424,-1.9424,-1.9424,-1.9424,-1.9424,-1.9424,-1.9424,-1.9424,-1.9424,-1.9424,-1.9424,-1.9424,-1.9424,-1.9424,-1.9424,-1.9424,-1.9424,-1.9424,-1.9158,-1.8945,-1.8925,-1.8442,-1.8029,-1.8002,-1.7816,-1.7602,-1.7589,-1.7582,-1.7582,-1.7582,-1.7582,-1.7488,-1.7266,-1.7226,-1.7112,-1.6747,-1.6707,-1.6707,-1.6707,-1.6707,-1.6593,-1.6319,-1.6328,-1.6152,-1.5872,-1.5791,-1.5784,-1.5784,-1.5784,-1.5784,-1.5784,-1.5784,-1.5784,-1.5784,-1.5784,-1.5784,-1.5784,-1.5784,-1.5784,-0.6404,-0.6756,-0.729,-0.899,-0.9439,-0.9897,-1.152,-1.2968,-1.4365,-1.5762,-1.7138,-1.8191,-1.8369,-1.9642,-2.0688,-2.0716,-2.1971,-2.2841,-2.2415,-2.2263,-2.2128,-2.1895,-2.1939,-2.1796,-2.1293,-2.1565,-2.1525,-2.0837,-2.1932,-2.1949,-2.0529,-2.0668,-2.0688,-2.0461,-2.0454,-2.0421,-2.0347,-2.0347,-2.0307,-2.0173,-2.0173,-2.0133,-2.0114,-1.99,-1.976,-1.9679,-1.9459,-1.9424,-1.9424,-1.9424,-1.9424,-1.9424,-1.9424,-1.9424,-1.9424,-1.9424,-1.9424,-1.9424,-1.9424,-1.9424,-1.9424,-1.9424,-1.9424,-1.9424,-1.9424,-1.9424,-1.9424,-1.9424,-1.9424,-1.9424,-1.9424,-1.9312,-1.9199,-1.8978,-1.8755,-1.8522,-1.8089,-1.7935,-1.7862,-1.7629,-1.7582,-1.7582,-1.7582,-1.7582,-1.7555,-1.7534,-1.7521,-1.7288,-1.6774,-1.6707,-1.6707,-1.6707,-1.6707,-1.6673,-1.66,-1.6393,-1.6239,-1.6166,-1.5952,-1.5784,-1.5784,-1.5784,-1.5784,-1.5784,-1.5784,-1.5784,-1.5784,-1.5784,-1.5784,-1.5784,-1.5784,-1.5784,-0.5281,-0.5821,-0.6474,-0.8737,-0.9334,-0.961,-1.0524,-1.1767,-1.3184,-1.4564,-1.594,-1.7021,-1.7503,-1.864,-1.9484,-1.9418,-2.05,-2.1243,-2.1128,-2.1109,-2.1049,-2.0882,-2.1009,-2.0995,-2.0708,-2.0561,-2.0428,-2.0301,-2.1241,-2.1355,-2.0241,-2.0394,-2.0408,-2.0234,-2.0173,-2.0113,-2.0047,-1.9913,-1.9853,-1.9853,-1.9853,-1.9853,-1.9846,-1.9686,-1.9606,-1.9599,-1.9497,-1.9424,-1.9424,-1.9424,-1.9424,-1.9424,-1.9424,-1.9424,-1.9424,-1.9424,-1.9424,-1.9424,-1.9424,-1.9424,-1.9424,-1.9424,-1.9424,-1.9424,-1.9424,-1.9424,-1.9424,-1.9424,-1.9424,-1.9424,-1.9424,-1.9424,-1.9325,-1.9158,-1.9018,-1.8831,-1.8448,-1.8275,-1.815,-1.7842,-1.7789,-1.7742,-1.7609,-1.7582,-1.7582,-1.7582,-1.7582,-1.7462,-1.7134,-1.7088,-1.7088,-1.7088,-1.7088,-1.7041,-1.6914,-1.6797,-1.665,-1.6473,-1.6186,-1.6025,-1.6025,-1.5899,-1.5784,-1.5784,-1.5784,-1.5784,-1.5784,-1.5784,-1.5784,-1.5784,-1.5784,-1.5784,-0.4342,-0.4854,-0.5644,-0.8436,-0.9393,-0.9601,-0.958,-1.0694,-1.2123,-1.3182,-1.4602,-1.5966,-1.7087,-1.7675,-1.8268,-1.9172,-1.9553,-2.0047,-2.0929,-2.1049,-2.1069,-2.1109,-2.1076,-2.0955,-2.0702,-2.0374,-2.0067,-1.982,-2.0,-2.0114,-2.0114,-2.0154,-2.0154,-2.0114,-2.0114,-2.0,-1.9746,-1.9492,-1.9424,-1.9424,-1.9424,-1.9424,-1.9424,-1.9424,-1.9424,-1.9424,-1.9424,-1.9424,-1.9424,-1.9424,-1.9424,-1.9424,-1.9424,-1.9424,-1.9424,-1.9424,-1.9424,-1.9424,-1.9424,-1.9424,-1.9424,-1.9424,-1.9424,-1.9424,-1.9424,-1.9424,-1.9424,-1.9424,-1.9424,-1.9424,-1.9424,-1.9424,-1.9424,-1.9424,-1.9172,-1.8971,-1.8931,-1.8698,-1.841,-1.8102,-1.8015,-1.7909,-1.7689,-1.7609,-1.7582,-1.7582,-1.7582,-1.7582,-1.7582,-1.7582,-1.7582,-1.7582,-1.7582,-1.7534,-1.728,-1.7226,-1.7092,-1.678,-1.6493,-1.6333,-1.6333,-1.6046,-1.5885,-1.5885,-1.5798,-1.5784,-1.5784,-1.5784,-1.5784,-1.5784,-1.5784,-1.5784,-0.5915,-0.6323,-0.6786,-0.8526,-0.9868,-1.0729,-1.0528,-1.2491,0.0,-1.31,-1.503,-1.6658,-1.5913,-1.7012,-1.8202,-1.8898,-1.9245,-1.9746,-2.0628,-2.0755,-2.0842,-2.1082,-2.0895,-2.0728,-2.0681,-2.0194,-1.9853,-1.9806,-1.9626,-1.9519,-1.9519,-1.9746,-1.9766,-1.9526,-1.9519,-1.9492,-1.9446,-1.9392,-1.9424,-1.9424,-1.9424,-1.9424,-1.9424,-1.9424,-1.9424,-1.9424,-1.9424,-1.9424,-1.9424,-1.9424,-1.9424,-1.9424,-1.9424,-1.9424,-1.9424,-1.9424,-1.9424,-1.9424,-1.9424,-1.9424,-1.9424,-1.9424,-1.9424,-1.9424,-1.9424,-1.9424,-1.9424,-1.9424,-1.9424,-1.9424,-1.9424,-1.9424,-1.9424,-1.9424,-1.9383,-1.9225,-1.8978,-1.8698,-1.8477,-1.8424,-1.8217,-1.7975,-1.7922,-1.7756,-1.7582,-1.7582,-1.7582,-1.7582,-1.7582,-1.7582,-1.7582,-1.7582,-1.7582,-1.7562,-1.7508,-1.734,-1.7179,-1.7125,-1.6794,-1.6627,-1.6627,-1.6353,-1.6192,-1.6192,-1.5952,-1.5784,-1.5784,-1.5784,-1.5784,-1.5784,-1.5784,-1.5784,-0.6311,-0.6702,-0.7254,-0.9467,-1.0443,-1.1048,-1.1642,0.0,0.0,-1.2748,-1.398,-1.5106,-1.537,-1.6845,-1.8135,-1.8624,-1.8945,-1.9392,-2.012,-2.0347,-2.0494,-2.0641,-2.0668,-2.0555,-2.0247,-1.9967,-1.974,-1.9586,-1.9446,-1.9424,-1.9424,-1.9499,-1.9512,-1.943,-1.9424,-1.9424,-1.9424,-1.9424,-1.9424,-1.9424,-1.9424,-1.9424,-1.9424,-1.9424,-1.9424,-1.9424,-1.9424,-1.9424,-1.9424,-1.9424,-1.9424,-1.9424,-1.9424,-1.9424,-1.9424,-1.9424,-1.9424,-1.9424,-1.9424,-1.9424,-1.9424,-1.9424,-1.9424,-1.9424,-1.9424,-1.9424,-1.9424,-1.9424,-1.9424,-1.9424,-1.9424,-1.9424,-1.9424,-1.9424,-1.9424,-1.9383,-1.9185,-1.9045,-1.8905,-1.8744,-1.8597,-1.8348,-1.8042,-1.7869,-1.7769,-1.7609,-1.7582,-1.7582,-1.7582,-1.7582,-1.7582,-1.7582,-1.7582,-1.7582,-1.7582,-1.7455,-1.7427,-1.7427,-1.7152,-1.6934,-1.6934,-1.6653,-1.65,-1.65,-1.6359,-1.6213,-1.6059,-1.6059,-1.5979,-1.5784,-1.5784,-1.5784,-0.7249,-0.7639,-0.83,-1.0933,-1.1608,-1.1817,-1.256,-1.1964,-1.1447,-1.2078,-1.2576,-1.3179,-1.4258,-1.6059,-1.7531,-1.7877,-1.8354,-1.8965,-1.9613,-1.9907,-2.0094,-2.0221,-2.0388,-2.0307,-1.9846,-1.974,-1.9613,-1.9444,-1.9424,-1.9424,-1.9424,-1.9424,-1.9424,-1.9424,-1.9424,-1.9424,-1.9424,-1.9424,-1.9424,-1.9424,-1.9424,-1.9424,-1.9424,-1.9424,-1.9424,-1.9424,-1.9424,-1.9424,-1.9424,-1.9424,-1.9424,-1.9424,-1.9424,-1.9424,-1.9424,-1.9424,-1.9424,-1.9424,-1.9424,-1.9424,-1.9424,-1.9424,-1.9424,-1.9424,-1.9424,-1.9424,-1.9424,-1.9424,-1.9424,-1.9424,-1.9424,-1.9424,-1.9424,-1.9424,-1.9424,-1.9424,-1.9424,-1.9424,-1.9299,-1.9065,-1.8965,-1.8778,-1.8255,-1.8075,-1.7909,-1.7716,-1.7622,-1.7582,-1.7582,-1.7582,-1.7582,-1.7582,-1.7582,-1.7582,-1.7582,-1.7582,-1.7582,-1.7582,-1.742,-1.7293,-1.7293,-1.6954,-1.68,-1.68,-1.674,-1.6593,-1.6366,-1.6348,-1.6152,-1.5925,-1.5811,-1.5784,-1.0288,-1.0718,-1.1101,-1.2724,-1.3843,-1.4244,-1.2931,0.0,-1.3297,-1.0914,-1.1529,-1.2212,-1.1464,-1.3567,-1.5605,-1.6036,0.0,-1.8375,-1.9285,-1.9491,-1.9639,-2.0113,-2.0027,-1.986,-1.9806,-1.9559,-1.9457,-1.943,-1.9424,-1.9424,-1.9424,-1.9424,-1.9424,-1.9424,-1.9424,-1.9424,-1.9424,-1.9424,-1.9424,-1.9424,-1.9424,-1.9424,-1.9424,-1.9424,-1.9424,-1.9424,-1.9424,-1.9424,-1.9424,-1.9424,-1.9424,-1.9424,-1.9424,-1.9424,-1.9424,-1.9424,-1.9424,-1.9424,-1.9424,-1.9424,-1.9424,-1.9424,-1.9424,-1.9424,-1.9424,-1.9424,-1.9424,-1.9424,-1.9424,-1.9424,-1.9424,-1.9424,-1.9424,-1.9424,-1.9424,-1.9424,-1.9424,-1.9424,-1.9417,-1.939,-1.9112,-1.8905,-1.8851,-1.8348,-1.7982,-1.7955,-1.7762,-1.7582,-1.7582,-1.7582,-1.7582,-1.7582,-1.7582,-1.7582,-1.7582,-1.7582,-1.7582,-1.7582,-1.7555,-1.7542,-1.7542,-1.7313,-1.7159,-1.7159,-1.684,-1.6693,-1.6667,-1.64,-1.6259,-1.6274,-1.5952,-1.5784,-1.0912,-1.1755,-1.2778,-1.4234,-1.4635,-1.4566,-1.405,-1.3374,-1.2353,-1.0591,-1.0718,-1.1106,-1.0811,-1.2422,-1.4147,0.0,0.0,0.0,-1.836,-1.8724,-1.8991,-1.9399,-1.9499,-1.9539,-1.9539,-1.9432,-1.9424,-1.9424,-1.9424,-1.9424,-1.9424,-1.9424,-1.9424,-1.9424,-1.9424,-1.9424,-1.9424,-1.9424,-1.9424,-1.9424,-1.9424,-1.9424,-1.9424,-1.9424,-1.9424,-1.9424,-1.9424,-1.9424,-1.9424,-1.9424,-1.9424,-1.9424,-1.9424,-1.9424,-1.9424,-1.9424,-1.9424,-1.9424,-1.9424,-1.9424,-1.9424,-1.9424,-1.9424,-1.9424,-1.9424,-1.9424,-1.9424,-1.9424,-1.9424,-1.9424,-1.9424,-1.9424,-1.9424,-1.9424,-1.9424,-1.9424,-1.9424,-1.9424,-1.9424,-1.9424,-1.9272,-1.9132,-1.8951,-1.8675,-1.8402,-1.8049,-1.7889,-1.7796,-1.7609,-1.7582,-1.7582,-1.7582,-1.7582,-1.7582,-1.7582,-1.677,-1.628,-1.628,-1.5476,-1.5364,-1.6227,-1.6175,-1.6552,-1.7408,-1.7295,-1.7148,-1.7025,-1.6904,-1.6293,-1.5201,-1.498,-1.449,-1.1397,-1.2459,-1.375,-1.5577,-1.5606,-1.5109,-1.485,-1.3309,-1.1551,-1.0354,-0.9887,-0.9746,-0.9971,-1.1176,-1.2678,0.0,0.0,-1.5747,-1.7194,-1.7943,-1.8298,-1.8175,-1.8744,-1.9138,-1.9225,-1.9239,-1.9199,-1.9118,-1.9105,-1.9145,-1.9232,-1.9239,-1.9279,-1.9424,-1.9424,-1.9424,-1.9424,-1.9424,-1.9424,-1.9424,-1.9424,-1.9424,-1.9424,-1.9424,-1.9424,-1.9424,-1.9424,-1.9424,-1.9424,-1.9424,-1.9424,-1.9424,-1.9424,-1.9424,-1.9424,-1.9424,-1.9424,-1.9424,-1.9424,-1.9424,-1.9424,-1.9424,-1.9424,-1.9424,-1.9424,-1.9424,-1.9424,-1.9424,-1.9424,-1.9424,-1.9424,-1.9424,-1.9424,-1.9424,-1.9424,-1.9424,-1.9424,-1.9424,-1.9424,-1.9424,-1.9424,-1.9299,-1.9092,-1.8985,-1.8609,-1.7682,-1.7823,-1.7747,-1.7143,-1.7364,-1.7417,-1.6982,-1.6935,-1.7147,-1.7582,-1.6227,-1.5417,-1.5417,-1.4073,-1.375,-1.4716,-1.5198,-1.5902,-1.6929,-1.7364,-1.7534,-1.7326,-1.682,-1.5888,-1.4651,-1.4037,-1.326,-1.2183,-1.3146,-1.3965,-1.6876,-1.7141,-1.6343,-1.5103,-1.3309,-1.156,-1.0243,-0.8924,-0.8089,-0.8296,-0.9662,-1.1223,0.0,0.0,0.0,-1.5878,-1.7095,-1.7592,-1.6442,-1.7631,-1.8611,-1.8905,-1.8925,-1.8811,-1.8517,-1.8497,-1.8624,-1.8911,-1.8925,-1.9065,-1.9417,-1.9424,-1.9424,-1.9424,-1.9424,-1.9424,-1.9424,-1.9424,-1.9424,-1.9424,-1.9424,-1.9424,-1.9424,-1.9424,-1.9424,-1.9424,-1.9424,-1.9424,-1.9424,-1.9424,-1.9424,-1.9424,-1.9424,-1.9424,-1.9424,-1.9424,-1.9424,-1.9424,-1.9424,-1.9424,-1.9424,-1.9424,-1.9424,-1.9424,-1.9424,-1.9424,-1.9424,-1.9424,-1.9424,-1.9424,-1.9424,-1.9424,-1.9424,-1.9424,-1.9424,-1.9424,-1.9424,-1.9424,-1.9424,-1.9424,-1.9118,-1.8337,-1.6746,-1.7333,-1.7434,-1.5926,-1.6835,-1.7041,-1.5577,-1.5417,-1.6009,-1.747,-1.6227,-1.5417,-1.5417,-1.4073,-1.3318,-1.3318,-1.4663,-1.5417,-1.5417,-1.6876,-1.7582,-1.7575,-1.5851,-1.5035,-1.4972,-1.322,-1.2397,-1.372,-1.483,-1.5831,-1.677,-1.6693,-1.6104,-1.4781,-1.3826,-1.2909,-1.1556,-1.0288,-0.9381,-0.9436,-0.9141,-0.9415,-1.1144,0.0,0.0,-1.3964,-1.4516,-1.4712,-1.4557,-1.5969,-1.7503,-1.8778,-1.8744,-1.8591,-1.8497,-1.849,-1.8531,-1.8624,-1.8631,-1.8851,-1.9352,-1.9424,-1.9424,-1.9424,-1.9424,-1.9424,-1.9424,-1.9424,-1.9424,-1.9424,-1.9424,-1.9424,-1.9424,-1.9424,-1.9424,-1.9424,-1.9424,-1.9424,-1.9424,-1.9424,-1.9424,-1.9424,-1.9424,-1.9424,-1.9424,-1.9424,-1.9424,-1.9424,-1.9424,-1.9424,-1.9424,-1.9424,-1.9424,-1.9424,-1.9424,-1.9424,-1.9424,-1.9424,-1.9424,-1.9424,-1.9424,-1.9424,-1.9424,-1.9424,-1.9424,-1.9424,-1.9424,-1.9424,-1.9424,-1.9424,-1.839,-1.7731,-1.8071,-1.7484,-1.673,-1.6043,-1.6342,-1.5942,-1.4281,-1.41,-1.4255,-1.4626,-1.3318,-1.2453,-1.2453,-1.1105,-1.0726,-1.1755,-1.224,-1.294,-1.3965,-1.44,-1.4669,-1.4669,-1.4104,-1.3295,-1.2144,-1.0683,-0.9899,-1.448,-1.5137,-1.6041,-1.655,-1.6486,-1.6071,-1.5262,-1.4455,-1.368,-1.2813,-1.1263,-0.9998,-0.9998,-0.8973,-0.8636,-1.0301,-1.0711,-1.1146,-1.2247,-1.2945,-1.3369,-1.3506,-1.4607,-1.5735,-1.6709,-1.7227,-1.7482,-1.7319,-1.7864,-1.8196,-1.8317,-1.8323,-1.8544,-1.9018,-1.9038,-1.9038,-1.9038,-1.9145,-1.9145,-1.9038,-1.9259,-1.9305,-1.9205,-1.9319,-1.9424,-1.9424,-1.9424,-1.9424,0.0,-1.9424,-1.9424,-1.9424,-1.9424,-1.9424,-1.9424,-1.9424,-1.9424,-1.9424,-1.9424,-1.9424,-1.9424,-1.9424,-1.9424,-1.9424,-1.9424,-1.9424,-1.9424,-1.9424,-1.9424,-1.9424,-1.9424,-1.9424,-1.9424,-1.9424,-1.9424,-1.9424,-1.9424,-1.9424,-1.9424,-1.9424,-1.9424,-1.9424,-1.9424,-1.8046,-1.7265,-1.8052,-1.7225,-1.6229,-1.55,-1.5801,-1.5233,-1.3011,-1.2772,-1.2497,-1.1877,-1.1406,-1.1105,-1.1105,-0.9699,-0.932,-1.0241,-1.0781,-1.1538,-1.2457,-1.2999,-1.3318,-1.3318,-1.2724,-1.1688,-1.0135,-0.927,-0.8835,0.0,-1.4562,-1.501,-1.6284,-1.644,-1.6239,-1.6239,-1.5084,0.0,-1.4022,-1.194,-1.0149,-1.0162,-0.911,-0.8711,-1.0036,-1.0529,-1.0756,-1.0715,-1.2056,-1.3058,-1.3176,-1.3347,-1.3497,-1.3364,-1.4772,-1.5567,-1.5274,-1.6499,-1.7437,-1.778,-1.7793,-1.8028,-1.8417,-1.8424,-1.845,-1.849,-1.8758,-1.8758,-1.8497,-1.9065,-1.9192,-1.8931,-1.9232,-1.9424,-1.9424,-1.9424,-1.9424,-1.9424,-1.9424,-1.9424,-1.9424,-1.9424,-1.9424,-1.9424,-1.9424,-1.9424,-1.9424,-1.9424,-1.9424,-1.9424,-1.9424,-1.9424,-1.9424,-1.9424,-1.9424,-1.9424,-1.9424,-1.9424,-1.9424,-1.9424,-1.9424,-1.9424,-1.9424,-1.9424,-1.9424,-1.9424,-1.9307,-1.9243,-1.9243,-1.9243,-1.9185,-1.9068,-1.7806,-1.685,-1.685,-1.6582,-1.5792,-1.4275,-1.5191,-1.4823,-1.1676,-1.1331,-1.0817,-0.9497,-1.0335,-1.0962,-1.0962,-0.9651,-0.8885,-0.8885,-1.0241,-1.0945,-1.0945,-1.2295,-1.2999,-1.2999,-1.1592,-1.0241,-0.8885,-0.8885,-0.8885,-1.5517,0.0,-1.5592,-1.5936,-1.5985,-1.5932,0.0,-1.5634,-1.5343,-1.5343,0.0,-1.1511,-1.1667,-0.968,-0.8268,-0.8854,-0.9007,-0.91,-0.9223,-0.965,-1.0453,-1.174,-1.1775,-1.2192,-1.3507,-1.3793,-1.3862,-1.3809,-1.4126,-1.4798,-1.5946,-1.5999,-1.6577,-1.7789,-1.7796,-1.8016,-1.849,-1.8557,-1.8557,-1.8497,-1.8858,-1.8991,-1.8931,-1.9232,-1.9424,-1.9424,-1.9424,-1.9424,-1.9424,-1.9424,-1.9424,-1.9424,-1.9424,-1.9424,-1.9424,-1.9424,-1.9424,-1.9424,-1.9424,-1.9424,-1.9424,-1.9424,-1.9424,-1.9424,-1.9424,-1.9424,-1.9424,-1.9424,-1.9424,-1.9424,-1.9424,-1.9424,-1.9424,-1.9424,-1.9424,-1.9424,-1.9424,-1.8402,-1.7566,-1.7566,-1.7566,-1.7149,-1.5967,-1.5429,-1.5133,-1.5133,-1.5086,-1.4459,-1.2857,-1.4001,-1.3673,-1.038,-1.0078,-0.9856,-0.9449,-0.9546,-0.9658,-0.9658,-0.9165,-0.8885,-0.8885,-0.921,-0.9427,-0.9427,-0.9754,-0.9915,-0.9915,-0.9588,-0.9265,-0.8885,-0.8885,-0.8885,-1.5784,-1.5925,-1.6032,-1.6032,-1.6032,-1.5881,-1.5236,0.0,0.0,0.0,0.0,0.0,-1.1163,-0.9542,-0.8197,-0.836,-0.8499,-0.8638,-0.8794,-0.8831,-0.9241,-1.0203,-1.0189,-1.0437,-1.1411,-1.1978,-1.2295,-1.2295,-1.294,-1.3642,-1.4395,-1.4449,-1.4776,-1.5583,-1.5636,-1.6429,-1.807,-1.8217,-1.8217,-1.8083,-1.8651,-1.8858,-1.8738,-1.9172,-1.9424,-1.9424,-1.9424,-1.9424,-1.9424,-1.9424,-1.9424,-1.9424,-1.9424,-1.9424,-1.9424,-1.9424,-1.9424,-1.9424,-1.9424,-1.9424,-1.9424,-1.9424,-1.9424,-1.9424,-1.9424,-1.9424,-1.9424,-1.9424,-1.9424,-1.9424,-1.9424,-1.9424,-1.9424,-1.9424,-1.9424,-1.9185,-1.8467,-1.7624,-1.6786,-1.602,-1.5902,-1.5607,-1.4723,-1.4004,-1.3765,-1.4485,-1.3949,-1.3168,-1.2333,-1.2933,-1.2538,-0.995,-0.9707,-0.9673,-0.9591,-0.9449,-0.9334,-0.932,-0.9184,-0.911,-0.9042,-0.9035,-0.9008,-0.8885,-0.8885,-0.8885,-0.8885,-0.8885,-0.8885,-0.8885,-0.8885,-0.8885,-1.5718,-1.5895,-1.6068,-1.6177,-1.6206,-1.5901,-1.4545,0.0,0.0,0.0,0.0,0.0,-1.0036,-0.9078,-0.833,-0.835,-0.8533,-0.8764,-0.8861,-0.8885,-0.8885,-0.8885,-0.8885,-0.8885,-0.8885,-1.0025,-1.0781,-1.0781,-1.1919,-1.2729,-1.294,-1.294,-1.3048,-1.3264,-1.3318,-1.4449,-1.6929,-1.7401,-1.7622,-1.7595,-1.845,-1.8731,-1.851,-1.9098,-1.9424,-1.9424,-1.9424,-1.9424,-1.9424,-1.9424,-1.9424,-1.9424,-1.9424,-1.9424,-1.9424,-1.9424,-1.9424,-1.9424,-1.9424,-1.9424,-1.9424,-1.9424,-1.9424,-1.9424,-1.9424,-1.9424,-1.9424,-1.9424,-1.9424,-1.9424,-1.9424,-1.9424,-1.9424,-1.9424,-1.9424,-1.8946,-1.7325,-1.6791,-1.6138,-1.454,-1.4242,-1.4183,-1.3885,-1.2928,-1.2573,-1.371,-1.2933,-1.2093,-1.1856,-1.2037,-1.1555,-1.0001,-0.9822,-0.9822,-0.9822,-0.971,-0.9588,-0.9456,-0.9405,-0.9323,-0.9251,-0.9245,-0.912,-0.8974,-0.8971,-0.8905,-0.8885,-0.8885,-0.8885,-0.8885,-0.8885,-0.8885,-1.5464,-1.5152,-1.4996,-1.5724,-1.5899,-1.5551,-1.4226,0.0,0.0,0.0,0.0,0.0,-1.0142,-0.9154,-0.8361,-0.8431,-0.8598,-0.8764,-0.8861,-0.8885,-0.8885,-0.8885,-0.8885,-0.8885,-0.8885,-0.9099,-0.9265,-0.9265,-0.9427,-1.0131,-1.1378,-1.1433,-1.2023,-1.3264,-1.3318,-1.3534,-1.3965,-1.519,-1.6436,-1.7589,-1.8243,-1.8537,-1.851,-1.9098,-1.9424,-1.9424,-1.9424,-1.9424,-1.9424,-1.9424,-1.9424,-1.9424,-1.9424,-1.9424,-1.9424,-1.9424,-1.9424,-1.9424,-1.9424,-1.9424,-1.9424,-1.9424,-1.9424,-1.9424,-1.9424,-1.9424,-1.9424,-1.9424,-1.9424,-1.9424,-1.9424,-1.9424,-1.9424,-1.9424,-1.9424,-1.8946,-1.7325,-1.5902,-1.448,-1.2873,-1.2573,-1.2157,-1.0781,-1.1438,-1.1796,-1.0717,-1.1499,-1.1736,-1.0361,-1.1378,-1.1555,-1.0001,-0.9822,-0.9822,-0.9822,-0.9802,-0.9778,-0.9754,-0.9517,-0.9371,-0.9347,-0.9347,-0.9276,-0.918,-0.9176,-0.9059,-0.8885,-0.8885,-0.8885,-0.8885,-0.8885,-0.8885,-1.3285,-1.3176,-1.3143,-1.3494,-1.3895,-1.3824,-1.2316,-1.1964,0.0,0.0,0.0,0.0,-0.9139,-0.8734,-0.8462,-0.8693,-0.8788,-0.8804,-0.8871,-0.8885,-0.8885,-0.8885,-0.8885,-0.8885,-0.8885,-0.8885,-0.8885,-0.8885,-0.8885,-0.921,-0.986,-0.9915,-1.0241,-1.0891,-1.0945,-1.1324,-1.2077,-1.2724,-1.3804,-1.5263,-1.6532,-1.7189,-1.7346,-1.8577,-1.9219,-1.9424,-1.9424,-1.9424,-1.9424,-1.9424,-1.9424,-1.9424,-1.9424,-1.9424,-1.9424,-1.9424,-1.9424,-1.9424,-1.9424,-1.9424,-1.9424,-1.9424,-1.9424,-1.9424,-1.9424,-1.9424,-1.9424,-1.9424,-1.9424,-1.9424,-1.9424,-1.9424,-1.9424,-1.9424,-1.8765,-1.7683,-1.602,-1.4421,-1.2813,-1.1201,-1.0899,-1.066,-0.994,-1.0422,-1.066,-0.994,-1.0418,-1.066,-0.9879,-1.0422,-1.06,-0.9879,-0.9822,-0.9822,-0.9822,-0.9822,-0.9822,-0.9822,-0.9622,-0.9503,-0.9503,-0.9425,-0.9347,-0.9333,-0.9333,-0.9242,-0.9178,-0.9096,-0.9055,-0.9052,-0.8974,-0.8885,-1.1425,-1.1348,-1.1218,-1.1211,0.0,-1.2152,-1.0665,-1.023,0.0,0.0,0.0,-0.813,-0.8248,-0.8121,-0.8086,-0.8343,-0.8413,-0.8491,-0.8826,-0.8885,-0.8885,-0.8885,-0.8885,-0.8885,-0.8885,-0.8885,-0.8885,-0.8885,-0.8885,-0.8885,-0.8885,-0.8885,-0.8885,-0.8885,-0.8885,-0.9427,-1.0566,-1.0566,-1.1483,-1.3324,-1.4696,-1.5713,-1.6366,-1.7736,-1.8786,-1.9424,-1.9424,-1.9424,-1.9424,-1.9424,-1.9424,-1.9424,-1.9424,-1.9424,-1.9424,-1.9424,-1.9424,-1.9424,-1.9424,-1.9424,-1.9366,-1.8946,-1.9068,-1.9249,-1.8525,-1.8829,-1.9307,-1.8946,-1.8823,-1.8946,-1.9307,-1.9424,-1.9307,-1.8946,-1.7923,-1.6433,-1.448,-1.3048,-1.1736,-1.0119,-0.9822,-0.9822,-0.9822,-0.9822,-0.9822,-0.9822,-0.9822,-0.9822,-0.9822,-0.9822,-0.9822,-0.9822,-0.9822,-0.9822,-0.9822,-0.9822,-0.9822,-0.9822,-0.972,-0.9659,-0.9659,-0.9547,-0.9469,-0.9435,-0.9435,-0.9415,-0.9381,-0.932,-0.9262,-0.9258,-0.9055,-0.8988,-1.1148,-1.0546,-0.991,-0.9724,-1.0749,-1.151,-1.0438,-1.0133,0.0,-0.8702,-0.8347,-0.8258,-0.832,-0.7284,-0.6558,-0.6797,-0.6853,-0.7315,-0.8716,-0.8885,-0.8885,-0.8885,-0.8885,-0.8885,-0.8885,-0.8885,-0.8885,-0.8885,-0.8885,-0.8885,-0.8885,-0.8885,-0.8885,-0.8885,-0.8885,-0.8937,-0.9047,-0.9047,-1.0511,-1.3324,-1.3652,-1.4711,-1.631,-1.6684,-1.7771,-1.9424,-1.9424,-1.9424,-1.9424,-1.9424,-1.9424,-1.9424,-1.9424,-1.9424,-1.9424,-1.9424,-1.9424,-1.9424,-1.9424,-1.9424,-1.9127,-1.7683,-1.8163,-1.8829,-1.5849,-1.7038,-1.9068,-1.7566,-1.7144,-1.7507,-1.9004,-1.9424,-1.9004,-1.7507,-1.7085,-1.6133,-1.3048,-1.2273,-1.1736,-1.0119,-0.9822,-0.9822,-0.9822,-0.9822,-0.9822,-0.9822,-0.9822,-0.9822,-0.9822,-0.9822,-0.9822,-0.9822,-0.9822,-0.9822,-0.9822,-0.9822,-0.9822,-0.9822,-0.9812,-0.9805,-0.9805,-0.9795,-0.9727,-0.9595,-0.9595,-0.9523,-0.9381,-0.9371,-0.9364,-0.9361,-0.9265,-0.9193,-0.8629,-0.8535,-0.8389,-0.8217,-0.875,0.0,0.0,-0.8975,-0.8958,-0.8563,-0.7749,-0.7032,-0.7032,-0.6702,-0.677,-0.7762,-0.7225,-0.7226,-0.8702,-0.8801,-0.8832,-0.8871,-0.8801,-0.8832,-0.8875,-0.8885,-0.8885,-0.8885,-0.8885,-0.8885,-0.8885,-0.8885,-0.8885,-0.8885,-0.8885,-0.8885,-0.8885,-0.8885,-0.9482,-1.0566,-1.1612,-1.3012,-1.4672,-1.4853,-1.5903,-1.7617,-1.779,-1.7923,-1.7981,-1.9004,-1.9424,-1.9424,-1.9424,-1.9424,-1.9424,-1.9424,-1.9424,-1.9249,-1.8227,-1.7923,-1.763,-1.602,-1.5908,-1.6208,-1.496,-1.5435,-1.6267,-1.5666,-1.5488,-1.5902,-1.7507,-1.7155,-1.6267,-1.5666,-1.4713,-1.3701,-1.2453,-1.1438,-1.0539,-0.994,-0.9822,-0.9822,-0.9822,-0.9822,-0.9822,-0.9822,-0.9822,-0.9822,-0.9822,-0.9822,-0.9822,-0.9822,-0.9822,-0.9822,-0.9822,-0.9822,-0.9822,-0.9822,-0.9822,-0.9822,-0.9822,-0.9822,-0.9795,-0.9741,-0.9741,-0.971,-0.9652,-0.9564,-0.9523,-0.952,-0.9364,-0.9303,-0.7041,-0.7216,-0.7441,-0.7387,0.0,0.0,-0.7344,-0.7926,-0.8334,-0.7946,-0.6703,-0.5661,-0.5627,-0.5309,-0.5542,-0.7051,-0.6506,-0.656,-0.8506,-0.8706,-0.8676,-0.8781,-0.8703,-0.8679,-0.8784,-0.8794,-0.8794,-0.8794,-0.8838,-0.8811,-0.8811,-0.8858,-0.8885,-0.8885,-0.8885,-0.8885,-0.8885,-0.8885,-0.8885,-0.894,-0.9915,-1.1313,-1.2993,-1.3154,-1.4167,-1.5838,-1.6149,-1.6256,-1.638,-1.7987,-1.8946,-1.9424,-1.9424,-1.9424,-1.9366,-1.8823,-1.8642,-1.8402,-1.6791,-1.6256,-1.5961,-1.4361,-1.4183,-1.4426,-1.3407,-1.3765,-1.4485,-1.4004,-1.3825,-1.4123,-1.5187,-1.5009,-1.4485,-1.3944,-1.2993,-1.2032,-1.1555,-1.06,-0.9822,-0.9822,-0.9822,-0.9822,-0.9822,-0.9822,-0.9822,-0.9822,-0.9822,-0.9822,-0.9822,-0.9822,-0.9822,-0.9822,-0.9822,-0.9822,-0.9822,-0.9822,-0.9822,-0.9822,-0.9822,-0.9822,-0.9822,-0.9822,-0.9822,-0.9822,-0.9822,-0.9822,-0.9822,-0.9724,-0.9676,-0.9673,-0.9523,-0.9398,-0.6923,-0.6987,-0.7132,-0.7329,0.0,0.0,-0.5926,-0.7187,-0.7933,-0.6698,-0.5258,-0.4218,-0.4195,-0.2997,-0.2482,-0.3975,-0.4193,-0.5193,-0.8056,-0.8479,-0.8479,-0.8482,-0.8479,-0.8479,-0.8482,-0.8482,-0.8482,-0.8482,-0.8621,-0.871,-0.871,-0.8801,-0.8881,-0.8885,-0.8885,-0.8885,-0.8885,-0.8885,-0.8885,-0.8885,-0.8885,-0.9839,-1.1496,-1.1688,-1.2737,-1.4392,-1.4503,-1.4604,-1.4723,-1.6315,-1.7929,-1.9366,-1.9366,-1.9366,-1.9185,-1.7566,-1.6968,-1.6727,-1.5133,-1.4604,-1.4302,-1.2693,-1.3232,-1.3944,-1.0781,-1.2037,-1.4242,-1.2633,-1.2157,-1.2157,-1.2157,-1.3347,-1.4123,-1.2573,-1.2157,-1.1736,-1.0119,-0.9822,-0.9822,-0.9822,-0.9822,-0.9822,-0.9822,-0.9822,-0.9822,-0.9822,-0.9822,-0.9822,-0.9822,-0.9822,-0.9822,-0.9822,-0.9822,-0.9822,-0.9822,-0.9822,-0.9822,-0.9822,-0.9822,-0.9822,-0.9822,-0.9822,-0.9822,-0.9822,-0.9822,-0.9822,-0.9822,-0.9822,-0.9822,-0.9819,-0.9676,-0.9612,-0.681,-0.6906,-0.6881,-0.5983,-0.5748,-0.5533,0.0,-0.4947,0.0,-0.3726,-0.3848,-0.3898,-0.2846,-0.2303,-0.2495,-0.3967,-0.42,-0.486,-0.6824,-0.7816,-0.837,-0.8469,-0.8394,-0.8374,-0.8472,-0.8482,-0.8482,-0.8482,-0.8523,-0.8598,-0.8706,-0.8754,-0.8828,-0.8878,-0.8885,-0.8885,-0.8885,-0.8885,-0.8885,-0.8885,-0.8885,-0.9724,-1.1194,-1.0325,-1.0829,-1.2378,-1.2633,-1.2803,-1.3108,-1.5897,-1.7267,-1.7806,-1.8946,-1.8706,-1.7624,-1.7208,-1.6256,-1.5074,-1.3467,-1.2933,-1.2633,-1.102,-1.0838,-1.108,-1.0061,-1.0479,-1.114,-1.066,-1.0539,-1.0539,-1.0539,-1.0899,-1.1076,-1.066,-1.0539,-1.0358,-0.9879,-0.9822,-0.9822,-0.9822,-0.9822,-0.9822,-0.9822,-0.9822,-0.9822,-0.9822,-0.9822,-0.9822,-0.9822,-0.9822,-0.9822,-0.9822,-0.9822,-0.9822,-0.9822,-0.9822,-0.9822,-0.9822,-0.9822,-0.9822,-0.9822,-0.9822,-0.9822,-0.9822,-0.9822,-0.9822,-0.9822,-0.9822,-0.9822,-0.9819,-0.9778,-0.9703,-0.6213,-0.622,-0.6139,-0.4874,-0.4375,-0.3879,-0.2563,-0.2834,-0.3271,-0.3122,-0.2827,-0.2431,-0.2121,-0.1581,-0.1668,-0.3112,-0.378,-0.4612,-0.6115,-0.7406,-0.8211,-0.8296,-0.8231,-0.8211,-0.8299,-0.8306,-0.8306,-0.8306,-0.8364,-0.8462,-0.8611,-0.8676,-0.8781,-0.8878,-0.8885,-0.8885,-0.8885,-0.8885,-0.8885,-0.8885,-0.8885,-0.9372,-1.019,-0.9528,-0.9706,-1.06,-1.0899,-1.1473,-1.2286,-1.4257,-1.5483,-1.6138,-1.7097,-1.6915,-1.5961,-1.5306,-1.4475,-1.3412,-1.1796,-1.1257,-1.108,-1.0119,-0.9822,-0.9822,-0.9822,-0.9822,-0.9822,-0.9822,-0.9822,-0.9822,-0.9822,-0.9822,-0.9822,-0.9822,-0.9822,-0.9822,-0.9822,-0.9822,-0.9822,-0.9822,-0.9822,-0.9822,-0.9822,-0.9822,-0.9822,-0.9822,-0.9822,-0.9822,-0.9822,-0.9822,-0.9822,-0.9822,-0.9822,-0.9822,-0.9822,-0.9822,-0.9822,-0.9822,-0.9822,-0.9822,-0.9822,-0.9822,-0.9822,-0.9822,-0.9822,-0.9822,-0.9822,-0.9822,-0.9822,-0.9822,-0.9822,-0.9774,-0.5376,-0.516,-0.4947,-0.3881,-0.2607,-0.1346,-0.0249,-0.0965,-0.2271,-0.3788,-0.1932,-0.0414,-0.1755,-0.0918,-0.0404,-0.1611,-0.2966,-0.4268,-0.5627,-0.6983,-0.7889,-0.7988,-0.7988,-0.7988,-0.7988,-0.7988,-0.7988,-0.7988,-0.817,-0.8313,-0.8455,-0.8608,-0.876,-0.8858,-0.8875,-0.8885,-0.8885,-0.8885,-0.8885,-0.8885,-0.8885,-0.8885,-0.8888,-0.9076,-0.9197,-0.9228,-0.9476,-1.0425,-1.1774,-1.2077,-1.3048,-1.4426,-1.454,-1.4485,-1.4187,-1.2753,-1.2093,-1.1796,-1.0301,-0.9822,-0.9822,-0.9822,-0.9822,-0.9822,-0.9822,-0.9822,-0.9822,-0.9822,-0.9822,-0.9822,-0.9822,-0.9822,-0.9822,-0.9822,-0.9822,-0.9822,-0.9822,-0.9822,-0.9822,-0.9822,-0.9822,-0.9822,-0.9822,-0.9822,-0.9822,-0.9822,-0.9822,-0.9822,-0.9822,-0.9822,-0.9822,-0.9822,-0.9822,-0.9822,-0.9822,-0.9822,-0.9822,-0.9822,-0.9822,-0.9822,-0.9822,-0.9822,-0.9822,-0.9822,-0.9822,-0.9822,-0.9822,-0.9822,-0.9822,-0.9822,-0.9822,-0.9822,-0.4869,-0.4313,-0.3554,-0.2386,-0.1209,-0.0334,-0.0048,-0.0242,-0.0539,-0.0912,-0.0458,-0.0102,-0.0406,-0.0202,-0.0101,-0.0404,-0.1561,-0.2916,-0.4218,-0.5575,-0.6833,-0.7889,-0.7988,-0.7988,-0.7988,-0.7988,-0.7988,-0.7988,-0.8019,-0.8153,-0.8306,-0.8452,-0.8601,-0.8754,-0.8821,-0.8885,-0.8885,-0.8885,-0.8885,-0.8885,-0.8885,-0.8885,-0.8885,-0.8971,-0.9045,-0.9228,-0.9476,-0.9783,-1.0206,-1.1607,-1.2393,-1.2813,-1.4123,-1.3825,-1.2693,-1.2333,-1.1378,-1.0301,-0.994,-0.9822,-0.9822,-0.9822,-0.9822,-0.9822,-0.9822,-0.9822,-0.9822,-0.9822,-0.9822,-0.9822,-0.9822,-0.9822,-0.9822,-0.9822,-0.9822,-0.9822,-0.9822,-0.9822,-0.9822,-0.9822,-0.9822,-0.9822,-0.9822,-0.9822,-0.9822,-0.9822,-0.9822,-0.9822,-0.9822,-0.9822,-0.9822,-0.9822,-0.9822,-0.9822,-0.9822,-0.9822,-0.9822,-0.9822,-0.9822,-0.9822,-0.9822,-0.9822,-0.9822,-0.9822,-0.9822,-0.9822,-0.9822,-0.9822,-0.9822,-0.9822,-0.9822,-0.9822,-0.3461,-0.2978,-0.2357,-0.1127,-0.0419,0.0,0.0,0.0,0.0,0.0,0.0,0.0,0.0,0.0,0.0,0.0,-0.1109,-0.2264,-0.2966,-0.4772,-0.6279,-0.6983,-0.7587,-0.7988,-0.7988,-0.7988,-0.7988,-0.7988,-0.7988,-0.8106,-0.8313,-0.8404,-0.8554,-0.8706,-0.8804,-0.8885,-0.8885,-0.8885,-0.8885,-0.8885,-0.8885,-0.8885,-0.8885,-0.8885,-0.8981,-0.9066,-0.9367,-0.95,-0.9576,-1.0625,-1.108,-1.114,-1.1976,-1.1796,-1.108,-1.108,-1.0539,-0.9822,-0.9822,-0.9822,-0.9822,-0.9822,-0.9822,-0.9822,-0.9822,-0.9822,-0.9822,-0.9822,-0.9822,-0.9822,-0.9822,-0.9822,-0.9822,-0.9822,-0.9822,-0.9822,-0.9822,-0.9822,-0.9822,-0.9822,-0.9822,-0.9822,-0.9822,-0.9822,-0.9822,-0.9822,-0.9822,-0.9822,-0.9822,-0.9822,-0.9822,-0.9822,-0.9822,-0.9822,-0.9822,-0.9822,-0.9822,-0.9822,-0.9822,-0.9822,-0.9822,-0.9822,-0.9822,-0.9822,-0.9822,-0.9822,-0.9822,-0.9822,-0.9822,-0.9822,-0.9822,-0.9822,-0.1983,-0.1633,-0.127,-0.0228,0.0,0.0,0.0,0.0,0.0,0.0,0.0,0.0,0.0,0.0,0.0,0.0,-0.0956,-0.1712,-0.1962,-0.392,-0.5477,-0.5929,-0.6983,-0.7739,-0.7988,-0.7988,-0.7988,-0.7988,-0.7988,-0.8096,-0.8225,-0.8367,-0.8516,-0.8665,-0.8818,-0.8858,-0.8885,-0.8885,-0.8885,-0.8885,-0.8885,-0.8885,-0.8885,-0.8885,-0.8885,-0.8898,-0.9252,-0.9381,-0.9405,-0.97,-0.9822,-0.9822,-0.9822,-0.9822,-0.9822,-0.9822,-0.9822,-0.9822,-0.9822,-0.9822,-0.9822,-0.9822,-0.9822,-0.9822,-0.9822,-0.9822,-0.9822,-0.9822,-0.9822,-0.9822,-0.9822,-0.9822,-0.9822,-0.9822,-0.9822,-0.9822,-0.9822,-0.9822,-0.9822,-0.9822,-0.9822,-0.9822,-0.9822,-0.9822,-0.9822,-0.9822,-0.9822,-0.9822,-0.9822,-0.9822,-0.9822,-0.9822,-0.9822,-0.9822,-0.9822,-0.9822,-0.9822,-0.9822,-0.9822,-0.9822,-0.9822,-0.9822,-0.9822,-0.9822,-0.9822,-0.9822,-0.9822,-0.9822,-0.9822,-0.9822,-0.9822,-0.9822,-0.1666,-0.0956,-0.0219,-0.0045,0.0,0.0,0.0,0.0,0.0,0.0,0.0,0.0,0.0,0.0,0.0,0.0,-0.015,-0.0656,-0.1812,-0.2314,-0.3419,-0.5727,-0.6179,-0.6734,-0.7889,-0.7988,-0.7988,-0.7988,-0.7988,-0.7998,-0.8019,-0.8214,-0.8364,-0.8509,-0.8662,-0.8804,-0.8881,-0.8885,-0.8885,-0.8885,-0.8885,-0.8885,-0.8885,-0.8885,-0.8885,-0.8898,-0.9252,-0.9381,-0.9405,-0.97,-0.9822,-0.9822,-0.9822,-0.9822,-0.9822,-0.9822,-0.9822,-0.9822,-0.9822,-0.9822,-0.9822,-0.9822,-0.9822,-0.9822,-0.9822,-0.9822,-0.9822,-0.9822,-0.9822,-0.9822,-0.9822,-0.9822,-0.9822,-0.9822,-0.9822,-0.9822,-0.9822,-0.9822,-0.9822,-0.9822,-0.9822,-0.9822,-0.9822,-0.9822,-0.9822,-0.9822,-0.9822,-0.9822,-0.9822,-0.9822,-0.9822,-0.9822,-0.9822,-0.9822,-0.9822,-0.9822,-0.9822,-0.9822,-0.9822,-0.9822,-0.9822,-0.9822,-0.9822,-0.9822,-0.9822,-0.9822,-0.9822,-0.9822,-0.9822,-0.9822,-0.9822,-0.9822,-0.0701,-0.0372,0.0,0.0,0.0,0.0,0.0,0.0,0.0,0.0,0.0,0.0,0.0,0.0,0.0,0.0,0.0,-0.0199,-0.0794,-0.155,-0.2414,-0.3618,-0.5074,-0.6232,-0.6833,-0.7537,-0.7988,-0.7988,-0.7988,-0.7988,-0.7988,-0.8187,-0.835,-0.8364,-0.8587,-0.8743,-0.8811,-0.8841,-0.8885,-0.8885,-0.8885,-0.8885,-0.8885,-0.8885,-0.8885,-0.8895,-0.9164,-0.9361,-0.9398,-0.9612,-0.9747,-0.9822,-0.9822,-0.9822,-0.9822,-0.9822,-0.9822,-0.9822,-0.9822,-0.9822,-0.9822,-0.9822,-0.9822,-0.9822,-0.9822,-0.9822,-0.9822,-0.9822,-0.9822,-0.9822,-0.9822,-0.9822,-0.9822,-0.9822,-0.9822,-0.9822,-0.9822,-0.9822,-0.9822,-0.9822,-0.9822,-0.9822,-0.9822,-0.9822,-0.9822,-0.9822,-0.9822,-0.9822,-0.9822,-0.9822,-0.9822,-0.9822,-0.9822,-0.9822,-0.9822,-0.9822,-0.9822,-0.9822,-0.9822,-0.9822,-0.9822,-0.9822,-0.9822,-0.9822,-0.9822,-0.9822,-0.9822,-0.9822,-0.9822,-0.9822,-0.9822,-0.9822,0.0,0.0203,0.0425,0.043,0.0657,0.0802,0.0538,0.0449,0.0359,0.0045,0.0,0.0,0.0,0.0,0.0,0.0,0.0,0.0,0.0,-0.0843,-0.1603,-0.1961,-0.377,-0.5125,-0.5475,-0.6681,-0.7487,-0.7487,-0.7789,-0.7988,-0.7988,-0.815,-0.8231,-0.832,-0.8482,-0.8635,-0.871,-0.8807,-0.8885,-0.8885,-0.8885,-0.8885,-0.8885,-0.8885,-0.8885,-0.8892,-0.9089,-0.9296,-0.9395,-0.9547,-0.9693,-0.9822,-0.9822,-0.9822,-0.9822,-0.9822,-0.9822,-0.9822,-0.9822,-0.9822,-0.9822,-0.9822,-0.9822,-0.9822,-0.9822,-0.9822,-0.9822,-0.9822,-0.9822,-0.9822,-0.9822,-0.9822,-0.9822,-0.9822,-0.9822,-0.9822,-0.9822,-0.9822,-0.9822,-0.9822,-0.9822,-0.9822,-0.9822,-0.9822,-0.9822,-0.9822,-0.9822,-0.9822,-0.9822,-0.9822,-0.9822,-0.9822,-0.9822,-0.9822,-0.9822,-0.9822,-0.9822,-0.9822,-0.9822,-0.9822,-0.9822,-0.9822,-0.9822,-0.9822,-0.9822,-0.9822,-0.9822,-0.9822,-0.9822,-0.9822,-0.9822,-0.9822,0.0,0.0734,0.1553,0.1663,0.2476,0.2967,0.196,0.1701,0.1389,0.0225,0.0,0.0,0.0,0.0,0.0,0.0,0.0,0.0,0.0,-0.0049,-0.0593,-0.1858,-0.2113,-0.2715,-0.3966,-0.5322,-0.6079,-0.6079,-0.7285,-0.7988,-0.7988,-0.7995,-0.8119,-0.8316,-0.8337,-0.8428,-0.8706,-0.8807,-0.8885,-0.8885,-0.8885,-0.8885,-0.8885,-0.8885,-0.8885,-0.8892,-0.9089,-0.9296,-0.9395,-0.9547,-0.9693,-0.9822,-0.9822,-0.9822,-0.9822,-0.9822,-0.9822,-0.9822,-0.9822,-0.9822,-0.9822,-0.9822,-0.9822,-0.9822,-0.9822,-0.9822,-0.9822,-0.9822,-0.9822,-0.9822,-0.9822,-0.9822,-0.9822,-0.9822,-0.9822,-0.9822,-0.9822,-0.9822,-0.9822,-0.9822,-0.9822,-0.9822,-0.9822,-0.9822,-0.9822,-0.9822,-0.9822,-0.9822,-0.9822,-0.9822,-0.9822,-0.9822,-0.9822,-0.9822,-0.9822,-0.9822,-0.9822,-0.9822,-0.9822,-0.9822,-0.9822,-0.9822,-0.9822,-0.9822,-0.9822,-0.9822,-0.9822,-0.9822,-0.9822,-0.9822,-0.9822,-0.9822,0.1716,0.2001,0.2351,0.2468,0.2848,0.3154,0.2877,0.2304,0.1656,0.1254,0.0539,0.0,0.0,0.0,0.0,0.0,0.0,0.0,0.0,0.0,-0.0197,-0.0643,-0.15,-0.2213,-0.2665,-0.4722,-0.5627,-0.477,-0.6778,-0.7637,-0.6781,-0.7537,-0.8015,-0.8123,-0.8218,-0.8411,-0.8706,-0.8764,-0.8842,-0.8885,-0.8885,-0.8885,-0.8885,-0.8885,-0.8885,-0.8888,-0.8991,-0.91,-0.9303,-0.9401,-0.9551,-0.9693,-0.9785,-0.9822,-0.9822,-0.9822,-0.9822,-0.9822,-0.9822,-0.9822,-0.9822,-0.9822,-0.9822,-0.9822,-0.9822,-0.9822,-0.9822,-0.9822,-0.9822,-0.9822,-0.9822,-0.9822,-0.9822,-0.9822,-0.9822,-0.9822,-0.9822,-0.9822,-0.9822,-0.9822,-0.9822,-0.9822,-0.9822,-0.9822,-0.9822,-0.9822,-0.9822,-0.9822,-0.9822,-0.9822,-0.9822,-0.9822,-0.9822,-0.9822,-0.9822,-0.9822,-0.9822,-0.9822,-0.9822,-0.9822,-0.9822,-0.9822,-0.9822,-0.9822,-0.9822,-0.9822,-0.9822,-0.9822,-0.9822,-0.9822,-0.9822,-0.9822,0.2684,0.2951,0.3268,0.3523,0.3882,0.4142,0.4072,0.3475,0.2791,0.2455,0.1745,0.1076,0.0673,0.0583,0.0494,0.0045,0.0,0.0,0.0,0.0,0.0,0.0,-0.0798,-0.131,-0.131,-0.3369,-0.447,-0.4016,-0.6074,-0.7135,-0.6681,-0.7537,-0.7988,-0.7988,-0.8191,-0.8387,-0.8632,-0.8682,-0.8788,-0.8885,-0.8885,-0.8885,-0.8885,-0.8885,-0.8885,-0.8885,-0.8885,-0.9022,-0.9221,-0.9317,-0.9469,-0.9625,-0.9768,-0.9822,-0.9822,-0.9822,-0.9822,-0.9822,-0.9822,-0.9822,-0.9822,-0.9822,-0.9822,-0.9822,-0.9822,-0.9822,-0.9822,-0.9822,-0.9822,-0.9822,-0.9822,-0.9822,-0.9822,-0.9822,-0.9822,-0.9822,-0.9822,-0.9822,-0.9822,-0.9822,-0.9822,-0.9822,-0.9822,-0.9822,-0.9822,-0.9822,-0.9822,-0.9822,-0.9822,-0.9822,-0.9822,-0.9822,-0.9822,-0.9822,-0.9822,-0.9822,-0.9822,-0.9822,-0.9822,-0.9822,-0.9822,-0.9822,-0.9822,-0.9822,-0.9822,-0.9822,-0.9822,-0.9822,-0.9822,-0.9822,-0.9822,-0.9795,0.0,0.0,0.0,0.4822,0.5616,0.6119,0.5545,0.5254,0.4817,0.3861,0.3611,0.3256,0.2057,0.1836,0.1435,0.0225,0.0045,0.0,0.0,0.0,0.0,0.0,0.0,0.0,0.0,-0.1209,-0.2564,-0.3865,-0.5222,-0.6581,-0.7889,-0.7988,-0.7988,-0.7988,-0.8184,-0.8333,-0.8479,-0.8628,-0.8781,-0.8885,-0.8885,-0.8885,-0.8885,-0.8885,-0.8885,-0.8885,-0.8885,-0.9018,-0.9214,-0.931,-0.9466,-0.9615,-0.9758,-0.9819,-0.9822,-0.9822,-0.9822,-0.9822,-0.9822,-0.9822,-0.9822,-0.9822,-0.9822,-0.9822,-0.9822,-0.9822,-0.9822,-0.9822,-0.9822,-0.9822,-0.9822,-0.9822,-0.9822,-0.9822,-0.9822,-0.9822,-0.9822,-0.9822,-0.9822,-0.9822,-0.9822,-0.9822,-0.9822,-0.9822,-0.9822,-0.9822,-0.9822,-0.9822,-0.9822,-0.9822,-0.9822,-0.9822,-0.9822,-0.9822,-0.9822,-0.9822,-0.9822,-0.9822,-0.9822,-0.9822,-0.9822,-0.9822,-0.9822,-0.9822,-0.9822,-0.9822,-0.9822,-0.9822,-0.9822,-0.9822,-0.9819,-0.9737,0.4486,0.0,0.0,0.0,0.0,0.0,0.6016,0.5406,0.4792,0.4717,0.4013,0.3377,0.3161,0.2399,0.1694,0.1375,0.055,0.0,0.0,0.0,0.0,0.0,0.0,0.0,0.0,-0.1209,-0.2163,-0.2514,-0.4672,-0.6179,-0.6531,-0.7484,-0.7988,-0.7988,-0.8029,-0.8225,-0.8479,-0.8523,-0.8676,-0.8885,-0.8885,-0.8885,-0.8885,-0.8885,-0.8885,-0.8885,-0.8885,-0.8905,-0.9011,-0.9157,-0.9306,-0.9459,-0.9608,-0.973,-0.9822,-0.9822,-0.9822,-0.9822,-0.9822,-0.9822,-0.9822,-0.9822,-0.9822,-0.9822,-0.9822,-0.9822,-0.9822,-0.9822,-0.9822,-0.9822,-0.9822,-0.9822,-0.9822,-0.9822,-0.9822,-0.9822,-0.9822,-0.9822,-0.9822,-0.9822,-0.9822,-0.9822,-0.9822,-0.9822,-0.9822,-0.9822,-0.9822,-0.9822,-0.9822,-0.9822,-0.9822,-0.9822,-0.9822,-0.9822,-0.9822,-0.9822,-0.9822,-0.9822,-0.9822,-0.9822,-0.9822,-0.9822,-0.9822,-0.9822,-0.9822,-0.9822,-0.9822,-0.9822,-0.9822,-0.9819,-0.9717,-0.953,0.4652,0.0,0.0,0.5627,0.0,0.0,0.6289,0.585,0.5457,0.5706,0.5288,0.4733,0.4305,0.3721,0.3158,0.2702,0.2055,0.1221,0.0143,0.0,0.0,0.0,0.0,0.0,0.0,-0.0706,-0.1611,-0.2764,-0.427,-0.5675,-0.6781,-0.7587,-0.7988,-0.7988,-0.7988,-0.8153,-0.8391,-0.8452,-0.8604,-0.8845,-0.8854,-0.8885,-0.8885,-0.8885,-0.8885,-0.8885,-0.8885,-0.8885,-0.8892,-0.9028,-0.915,-0.9306,-0.9523,-0.9659,-0.9741,-0.9798,-0.9822,-0.9822,-0.9822,-0.9822,-0.9822,-0.9822,-0.9822,-0.9822,-0.9822,-0.9822,-0.9822,-0.9822,-0.9822,-0.9822,-0.9822,-0.9822,-0.9822,-0.9822,-0.9822,-0.9822,-0.9822,-0.9822,-0.9822,-0.9822,-0.9822,-0.9822,-0.9822,-0.9822,-0.9822,-0.9822,-0.9822,-0.9822,-0.9822,-0.9822,-0.9822,-0.9822,-0.9822,-0.9822,-0.9822,-0.9822,-0.9822,-0.9822,-0.9822,-0.9822,-0.9822,-0.9822,-0.9822,-0.9822,-0.9822,-0.9822,-0.9822,-0.9822,-0.9791,-0.9727,-0.9517,-0.9323,0.3982,0.4686,0.0,0.5688,0.5727,0.0,0.6402,0.6468,0.6461,0.6725,0.6774,0.6496,0.5445,0.5298,0.5044,0.4064,0.3835,0.2957,0.0575,0.0243,0.0148,0.0,0.0,0.0,0.0,0.0,-0.1058,-0.3565,-0.4066,-0.532,-0.7889,-0.7988,-0.7988,-0.7988,-0.7988,-0.8113,-0.832,-0.8411,-0.856,-0.8713,-0.8811,-0.8885,-0.8885,-0.8885,-0.8885,-0.8885,-0.8885,-0.8885,-0.8885,-0.8885,-0.9022,-0.9234,-0.9452,-0.9581,-0.9625,-0.9751,-0.9805,-0.9822,-0.9822,-0.9822,-0.9822,-0.9822,-0.9822,-0.9822,-0.9822,-0.9822,-0.9822,-0.9822,-0.9822,-0.9822,-0.9822,-0.9822,-0.9822,-0.9822,-0.9822,-0.9822,-0.9822,-0.9822,-0.9822,-0.9822,-0.9822,-0.9822,-0.9822,-0.9822,-0.9822,-0.9822,-0.9822,-0.9822,-0.9822,-0.9822,-0.9822,-0.9822,-0.9822,-0.9822,-0.9822,-0.9822,-0.9822,-0.9822,-0.9822,-0.9822,-0.9822,-0.9822,-0.9822,-0.9822,-0.9822,-0.9815,-0.9798,-0.9798,-0.9724,-0.9578,-0.9347,-0.92,0.3813,0.4686,0.5409,0.5467,0.5985,0.0,0.6775,0.6815,0.6857,0.7127,0.663,0.62,0.623,0.5549,0.4928,0.4704,0.4194,0.3275,0.1838,0.1598,0.1203,0.0151,0.0,0.0,0.0,0.0,-0.0656,-0.2264,-0.437,-0.6329,-0.7889,-0.7988,-0.7988,-0.7988,-0.7988,-0.8113,-0.832,-0.8411,-0.856,-0.8713,-0.8811,-0.8885,-0.8885,-0.8885,-0.8885,-0.8885,-0.8885,-0.8885,-0.8885,-0.8885,-0.9022,-0.9214,-0.9275,-0.9391,-0.9612,-0.9642,-0.9724,-0.9822,-0.9822,-0.9822,-0.9822,-0.9822,-0.9822,-0.9822,-0.9822,-0.9822,-0.9822,-0.9822,-0.9822,-0.9822,-0.9822,-0.9822,-0.9822,-0.9822,-0.9822,-0.9822,-0.9822,-0.9822,-0.9822,-0.9822,-0.9822,-0.9822,-0.9822,-0.9822,-0.9822,-0.9822,-0.9822,-0.9822,-0.9822,-0.9822,-0.9822,-0.9822,-0.9822,-0.9822,-0.9822,-0.9822,-0.9822,-0.9822,-0.9822,-0.9822,-0.9822,-0.9822,-0.9822,-0.9822,-0.9822,-0.9764,-0.9649,-0.9649,-0.9574,-0.9422,-0.9296,-0.9089,0.3245,0.435,0.5491,0.5943,0.6363,0.0,0.0,0.755,0.75,0.726,0.6919,0.6551,0.6297,0.5966,0.573,0.586,0.565,0.5052,0.3938,0.2782,0.1511,0.0151,0.0,0.0,0.0,0.0,-0.0857,-0.2865,-0.4872,-0.6581,-0.7939,-0.7988,-0.7988,-0.7988,-0.7988,-0.8025,-0.8153,-0.8374,-0.852,-0.8601,-0.8828,-0.8885,-0.8885,-0.8885,-0.8885,-0.8885,-0.8885,-0.8885,-0.8885,-0.8885,-0.8981,-0.9052,-0.918,-0.935,-0.9503,-0.9581,-0.97,-0.9822,-0.9822,-0.9822,-0.9822,-0.9822,-0.9822,-0.9822,-0.9822,-0.9822,-0.9822,-0.9822,-0.9822,-0.9822,-0.9822,-0.9822,-0.9822,-0.9822,-0.9822,-0.9822,-0.9822,-0.9822,-0.9822,-0.9822,-0.9822,-0.9822,-0.9822,-0.9822,-0.9822,-0.9822,-0.9822,-0.9822,-0.9822,-0.9822,-0.9822,-0.9822,-0.9822,-0.9822,-0.9822,-0.9822,-0.9822,-0.9822,-0.9822,-0.9822,-0.9822,-0.9822,-0.9788,-0.9717,-0.9717,-0.9642,-0.9496,-0.9418,-0.9344,-0.932,-0.9113,-0.9008,0.2711,0.4015,0.5557,0.6268,0.6687,0.7152,0.0,0.0,0.0,0.7637,0.7331,0.7013,0.6514,0.654,0.6709,0.6954,0.7133,0.683,0.5652,0.3797,0.2025,0.0549,0.0352,0.0302,0.0,0.0,-0.1004,-0.3414,-0.4856,-0.6205,-0.7534,-0.7839,-0.7988,-0.7988,-0.7988,-0.7988,-0.7988,-0.8333,-0.8482,-0.8486,-0.8794,-0.8885,-0.8885,-0.8885,-0.8885,-0.8885,-0.8885,-0.8885,-0.8885,-0.8885,-0.8885,-0.8895,-0.9066,-0.9222,-0.9398,-0.952,-0.9676,-0.9822,-0.9822,-0.9822,-0.9822,-0.9822,-0.9822,-0.9822,-0.9822,-0.9822,-0.9822,-0.9822,-0.9822,-0.9822,-0.9822,-0.9822,-0.9822,-0.9822,-0.9822,-0.9822,-0.9822,-0.9822,-0.9822,-0.9822,-0.9822,-0.9822,-0.9822,-0.9822,-0.9822,-0.9822,-0.9822,-0.9822,-0.9822,-0.9822,-0.9822,-0.9822,-0.9822,-0.9822,-0.9822,-0.9822,-0.9822,-0.9822,-0.9822,-0.9822,-0.9822,-0.9795,-0.9727,-0.9612,-0.9581,-0.949,-0.9337,-0.9268,-0.921,-0.9207,-0.9005,-0.8885,0.2711,0.4015,0.5428,0.5524,0.6695,0.7869,0.7992,0.0,0.9159,0.9058,0.0,0.6998,0.7792,0.0,0.0,0.7248,0.7613,0.7199,0.5264,0.4861,0.3948,0.186,0.1678,0.1301,0.0099,0.0,-0.0594,-0.211,-0.3466,-0.479,-0.6174,-0.7335,-0.7988,-0.7988,-0.7988,-0.7988,-0.7988,-0.8333,-0.8482,-0.8486,-0.8794,-0.8885,-0.8885,-0.8885,-0.8885,-0.8885,-0.8885,-0.8885,-0.8885,-0.8885,-0.8885,-0.8885,-0.8902,-0.9133,-0.9384,-0.9401,-0.9585,-0.9822,-0.9822,-0.9822,-0.9822,-0.9822,-0.9822,-0.9822,-0.9822,-0.9822,-0.9822,-0.9822,-0.9822,-0.9822,-0.9822,-0.9822,-0.9822,-0.9822,-0.9822,-0.9822,-0.9822,-0.9822,-0.9822,-0.9822,-0.9822,-0.9822,-0.9822,-0.9822,-0.9822,-0.9822,-0.9822,-0.9822,-0.9822,-0.9822,-0.9822,-0.9822,-0.9822,-0.9822,-0.9822,-0.9822,-0.9822,-0.9822,-0.9822,-0.9822,-0.9822,-0.97,-0.9625,-0.9608,-0.9476,-0.9334,-0.9234,-0.9217,-0.921,-0.9207,-0.9005,-0.8885,0.2544,0.3613,0.4851,0.5906,0.6691,0.7502,0.8517,0.9043,0.9306,0.9306,0.0,0.0,0.0,0.0,0.0,0.0,0.7544,0.7344,0.6119,0.6055,0.5324,0.3116,0.2814,0.231,0.1175,0.0393,-0.0544,-0.1909,-0.2521,-0.3449,-0.4766,-0.6126,-0.6833,-0.6833,-0.7587,-0.8032,-0.8174,-0.8381,-0.8526,-0.8618,-0.8835,-0.8885,-0.8885,-0.8885,-0.8885,-0.8885,-0.8885,-0.8885,-0.8885,-0.8885,-0.8885,-0.8885,-0.8885,-0.912,-0.9381,-0.9381,-0.9568,-0.9822,-0.9822,-0.9822,-0.9822,-0.9822,-0.9822,-0.9822,-0.9822,-0.9822,-0.9822,-0.9822,-0.9822,-0.9822,-0.9822,-0.9822,-0.9822,-0.9822,-0.9822,-0.9822,-0.9822,-0.9822,-0.9822,-0.9822,-0.9822,-0.9822,-0.9822,-0.9822,-0.9822,-0.9822,-0.9822,-0.9822,-0.9822,-0.9822,-0.9822,-0.9822,-0.9822,-0.9822,-0.9822,-0.9822,-0.9822,-0.9822,-0.9744,-0.9696,-0.9696,-0.9554,-0.9435,-0.9347,-0.934,-0.9178,-0.9028,-0.9028,-0.9028,-0.9028,-0.8912,-0.8885,0.2075,0.3145,0.4312,0.5632,0.6322,0.7079,0.8613,0.9139,0.937,0.9594,0.952,0.0,0.0,0.0,0.8166,0.7792,0.0,0.7327,0.6716,0.6702,0.6043,0.4227,0.3339,0.2592,0.1856,0.0732,-0.0393,-0.1357,-0.1772,-0.2403,-0.3412,-0.472,-0.5627,-0.5979,-0.6933,-0.7708,-0.8269,-0.8411,-0.856,-0.8713,-0.8811,-0.8885,-0.8885,-0.8885,-0.8885,-0.8885,-0.8885,-0.8885,-0.8885,-0.8885,-0.8885,-0.8885,-0.8885,-0.912,-0.9381,-0.9381,-0.9568,-0.9822,-0.9822,-0.9822,-0.9822,-0.9822,-0.9822,-0.9822,-0.9822,-0.9822,-0.9822,-0.9822,-0.9822,-0.9822,-0.9822,-0.9822,-0.9822,-0.9822,-0.9822,-0.9822,-0.9822,-0.9822,-0.9822,-0.9822,-0.9822,-0.9822,-0.9822,-0.9822,-0.9822,-0.9822,-0.9822,-0.9822,-0.9822,-0.9822,-0.9822,-0.9822,-0.9822,-0.9822,-0.9822,-0.9822,-0.9822,-0.9822,-0.9724,-0.9666,-0.9666,-0.9483,-0.9327,-0.9275,-0.9193,-0.9042,-0.8885,-0.8885,-0.8885,-0.8885,-0.8885,-0.8885,0.1105,0.2644,0.4015,0.4082,0.5401,0.6948,0.7832,0.8683,0.953,1.0364,1.0094,0.9937,1.0745,0.9633,0.8619,0.0,0.7924,0.0,0.0,0.6405,0.5999,0.5162,0.3161,0.1821,0.1809,0.0723,0.0,-0.005,-0.1266,-0.2034,-0.2059,-0.3316,-0.467,-0.5979,-0.6029,-0.6793,-0.8269,-0.8411,-0.856,-0.8713,-0.8811,-0.8885,-0.8885,-0.8885,-0.8885,-0.8885,-0.8885,-0.8885,-0.8885,-0.8885,-0.8885,-0.8885,-0.8885,-0.912,-0.9381,-0.9381,-0.9568,-0.9822,-0.9822,-0.9822,-0.9822,-0.9822,-0.9822,-0.9822,-0.9822,-0.9822,-0.9822,-0.9822,-0.9822,-0.9822,-0.9822,-0.9822,-0.9822,-0.9822,-0.9822,-0.9822,-0.9822,-0.9822,-0.9822,-0.9822,-0.9822,-0.9822,-0.9822,-0.9822,-0.9822,-0.9822,-0.9822,-0.9822,-0.9822,-0.9822,-0.9822,-0.9822,-0.9822,-0.9822,-0.9822,-0.9822,-0.9822,-0.9822,-0.9819,-0.9815,-0.9815,-0.9537,-0.9381,-0.9374,-0.9093,-0.8888,-0.8885,-0.8885,-0.8885,-0.8885,-0.8885,-0.8885,0.0933,0.1742,0.2376,0.2978,0.4043,0.5137,0.6019,0.6907,0.7994,0.9428,0.9106,0.8881,0.9841,0.9102,0.0,0.0,0.0,0.5844,0.0,0.49,0.5266,0.5008,0.3674,0.2847,0.2961,0.1199,0.0,0.0,-0.044,-0.0688,-0.0655,-0.1963,-0.3316,-0.4618,-0.5525,-0.678,-0.8408,-0.8459,-0.8611,-0.8807,-0.8858,-0.8885,-0.8885,-0.8885,-0.8885,-0.8885,-0.8885,-0.8885,-0.8885,-0.8885,-0.8885,-0.8892,-0.9045,-0.9205,-0.9381,-0.9381,-0.9568,-0.9822,-0.9822,-0.9822,-0.9822,-0.9822,-0.9822,-0.9822,-0.9822,-0.9822,-0.9822,-0.9822,-0.9822,-0.9822,-0.9822,-0.9822,-0.9822,-0.9822,-0.9822,-0.9822,-0.9822,-0.9822,-0.9822,-0.9822,-0.9822,-0.9822,-0.9822,-0.9822,-0.9822,-0.9822,-0.9822,-0.9822,-0.9822,-0.9822,-0.9822,-0.9822,-0.9822,-0.9822,-0.9822,-0.9822,-0.9822,-0.9822,-0.9734,-0.9683,-0.9683,-0.949,-0.9334,-0.9289,-0.913,-0.9032,-0.8885,-0.8885,-0.8885,-0.8885,-0.8885,-0.8885,0.0395,0.1065,0.1441,0.2043,0.2878,0.3844,0.5028,0.5756,0.6711,0.8479,0.8451,0.8245,0.858,0.7653,0.6416,0.0,0.0,0.0,0.0,0.3544,0.4294,0.4338,0.3745,0.3254,0.2977,0.118,0.0,0.0,0.0,0.0,0.0,-0.126,-0.2614,-0.3966,-0.5322,-0.6799,-0.8479,-0.8482,-0.8635,-0.8885,-0.8885,-0.8885,-0.8885,-0.8885,-0.8885,-0.8885,-0.8885,-0.8885,-0.8885,-0.8885,-0.8885,-0.8898,-0.9096,-0.9303,-0.9388,-0.9442,-0.9615,-0.9822,-0.9822,-0.9822,-0.9822,-0.9822,-0.9822,-0.9822,-0.9822,-0.9822,-0.9822,-0.9822,-0.9822,-0.9822,-0.9822,-0.9822,-0.9822,-0.9822,-0.9822,-0.9822,-0.9822,-0.9822,-0.9822,-0.9822,-0.9822,-0.9822,-0.9822,-0.9822,-0.9822,-0.9822,-0.9822,-0.9822,-0.9822,-0.9822,-0.9822,-0.9822,-0.9822,-0.9822,-0.9822,-0.9822,-0.9822,-0.9822,-0.9734,-0.9686,-0.9686,-0.954,-0.9415,-0.9317,-0.9265,-0.9163,-0.9015,-0.8908,-0.8885,-0.8885,-0.8885,-0.8885]},{"header":{"parameterUnit":"m.s-1","parameterCategory":1,"la1":30.6,"la2":29.2853,"lo1":-89.7004,"lo2":-87.6739,"dy":0.0162,"dx":0.0183,"nx":112,"ny":82,"refTime":"2026-03-25T12:00:00:Z","depth":0,"parameterNumber":3,"parameterNumberName":"V-component_of_WINDS"},"data":[0.0,0.0,0.0,0.0,0.0,0.0,0.0,0.0,0.0,0.0,0.0,0.0,0.0,0.0,0.0,0.0,0.0,0.0,0.0,0.0,0.0,0.0,0.0,0.0,0.0,0.0,0.0,0.0,0.0,0.0,0.0,0.0,0.0,0.0,0.0,0.0,0.0,0.0,0.0,0.0,0.0,0.0,0.0,0.0,0.0,0.0,0.0,0.0,0.0,0.0,0.0,0.0,0.0,0.0,0.0,0.0,0.0,0.0,0.0,0.0,0.0,0.0,0.0,0.0,0.0,0.0,0.0,0.0,0.0,0.0,0.0,0.0,0.0,0.0,0.0,0.0,0.0,0.0,0.0,0.0,0.0,0.0,0.0,0.0,0.0,0.0,0.0,0.0,0.0,0.0,1.003,0.7601,0.5321,0.3015,0.0504,0.0099,0.0048,0.0224,0.0,0.0,0.0,0.0,0.0,0.0,0.0,0.0,0.0,0.0,0.0,0.0,0.0,0.0,0.0,0.0,0.0,0.0,0.0,0.0,0.0,0.0,0.0,0.0,0.0,0.0,0.0,0.0,0.0,0.0,0.0,0.0,0.0,0.0,0.0,0.0,0.0,0.0,0.0,0.0,0.0,0.0,0.0,0.0,0.0,0.0,0.0,0.0,0.0,0.0,0.0,0.0,0.0,0.0,0.0,0.0,0.0,0.0,0.0,0.0,0.0,0.0,0.0,0.0,0.0,0.0,0.0,0.0,0.0,0.0,0.0,0.0,0.0,0.0,0.0,0.0,0.0,0.0,0.0,0.0,0.0,0.0,0.0,0.0,0.0,0.0,0.0,0.0,0.0,0.0,0.0,0.0,0.0,0.0,0.0,0.0,0.0,0.0,0.0,0.0,0.0,0.0,0.0,0.0,0.9281,0.6527,0.4904,0.3364,0.1812,0.0635,0.0376,0.1301,0.0,0.0,0.0,0.0,0.0,0.0,0.0,0.0,0.0,0.0,0.0,0.0,0.0,0.0,0.0,0.0,0.0,0.0,0.0,0.0,0.0,0.0,0.0,0.0,0.0,0.0,0.0,0.0,0.0,0.0,0.0,0.0,0.0,0.0,0.0,0.0,0.0,0.0,0.0,0.0,0.0,0.0,0.0,0.0,0.0,0.0,0.0,0.0,0.0,0.0,0.0,0.0,0.0,0.0,0.0,0.0,0.0,0.0,0.0,0.0,0.0,0.0,0.0,0.0,0.0,0.0,0.0,0.0,0.0,0.0,0.0,0.0,0.0,0.0,0.0,0.0,0.0,0.0,0.0,0.0,0.0,0.0,0.0,0.0,0.0,0.0,0.0,0.0,0.0,0.0,0.0,0.0,0.0,0.0,0.0,0.0,0.0,0.0,0.0,0.0,0.0,0.0,0.0,1.0731,0.8856,0.7257,0.5867,0.452,0.3215,0.2502,0.2551,0.3451,0.4688,0.0,0.0,0.0,0.0,0.0,0.0,0.0,0.0,0.0,0.0,0.0,0.0,0.0,0.0,0.0,0.0,0.0,0.0,0.0,0.0,0.0,0.0,0.0,0.0,0.0,0.0,0.0,0.0,0.0,0.0,0.0,0.0,0.0,0.0,0.0,0.0,0.0,0.0,0.0,0.0,0.0,0.0,0.0,0.0,0.0,0.0,0.0,0.0,0.0,0.0,0.0,0.0,0.0,0.0,0.0,0.0,0.0,0.0,0.0,0.0,0.0,0.0,0.0,0.0,0.0,0.0,0.0,0.0,0.0,0.0,0.0,0.0,0.0,0.0,0.0,0.0,0.0,0.0,0.0,0.0,0.0,0.0,0.0,0.0,0.0,0.0,0.0,0.0,0.0,0.0,0.0,0.0,0.0,0.0,0.0,0.0,0.0,0.0,0.0,0.0,0.0,0.0,1.1028,0.9418,0.8984,0.7456,0.6066,0.5012,0.4307,0.4246,0.506,0.693,0.0,0.0,0.0,0.0,0.0,0.0,0.0,0.0,0.0,0.0,0.0,0.0,0.0,0.0,0.0,0.0,0.0,0.0,0.0,0.0,0.0,0.0,0.0,0.0,0.0,0.0,0.0,0.0,0.0,0.0,0.0,0.0,0.0,0.0,0.0,0.0,0.0,0.0,0.0,0.0,0.0,0.0,0.0,0.0,0.0,0.0,0.0,0.0,0.0,0.0,0.0,0.0,0.0,0.0,0.0,0.0,0.0,0.0,0.0,0.0,0.0,0.0,0.0,0.0,0.0,0.0,0.0,0.0,0.0,0.0,0.0,0.0,0.0,0.0,0.0,0.0,0.0,0.0,0.0,0.0,0.0,0.0,0.0,0.0,0.0,0.0,0.0,0.0,0.0,0.0,0.0,0.0,0.0,0.0,0.0,0.0,0.0,0.0,0.0,0.0,0.0,0.0,1.1888,1.1652,1.1643,0.9371,0.7842,0.774,0.5192,0.4029,0.505,0.7535,0.0,0.0,0.0,0.0,0.0,0.0,0.0,0.0,0.0,0.0,0.0,0.0,0.0,0.0,0.0,0.0,0.0,0.0,0.0,0.0,0.0,0.0,0.0,0.0,0.0,0.0,0.0,0.0,0.0,0.0,0.0,0.0,0.0,0.0,0.0,0.0,0.0,0.0,0.0,0.0,0.0,0.0,0.0,0.0,0.0,0.0,0.0,0.0,0.0,0.0,0.0,0.0,0.0,0.0,0.0,0.0,0.0,0.0,0.0,0.0,0.0,0.0,0.0,0.0,0.0,0.0,0.0,0.0,0.0,0.0,0.0,0.0,0.0,0.0,0.0,0.0,0.0,0.0,0.0,0.0,0.0,0.0,0.0,0.0,0.0,0.0,0.0,0.0,0.0,0.0,0.0,0.0,0.0,0.0,0.0,0.0,0.0,0.0,0.0,0.0,0.0,0.0,1.4008,1.3578,1.3213,1.1536,1.0356,1.0184,0.9159,0.8463,0.8287,0.0,0.0,0.0,0.0,0.0,0.0,0.0,0.0,0.0,0.0,0.0,0.0,0.0,0.0,0.0,0.0,0.0,0.0,0.0,0.0,0.0,0.0,0.0,0.0,0.0,0.0,0.0,0.0,0.0,0.0,0.0,0.0,0.0,0.0,0.0,0.0,0.0,0.0,0.0,0.0,0.0,0.0,0.0,0.0,0.0,0.0,0.0,0.0,0.0,0.0,0.0,0.0,0.0,0.0,0.0,0.0,0.0,0.0,0.0,0.0,0.0,0.0,0.0,0.0,0.0,0.0,0.0,0.0,0.0,0.0,0.0,0.0,0.0,0.0,0.0,0.0,0.0,0.0,0.0,0.0,0.0,0.0,0.0,0.0,0.0,0.0,0.0,0.0,0.0,0.0,0.0,0.0,0.0,0.0,0.0,0.0,0.0,0.0,0.0,0.0,0.0,0.0,1.6487,1.6294,1.5976,1.5212,1.3832,1.276,1.2131,1.1543,1.0875,1.0096,0.0,0.0,0.0,0.0,0.0,0.0,0.0,0.0,0.0,0.0,0.0,0.0,0.0,0.0,0.0,0.0,0.0,0.0,0.0,0.0,0.0,0.0,0.0,0.0,0.0,0.0,0.0,0.0,0.0,0.0,0.0,0.0,0.0,0.0,0.0,0.0,0.0,0.0,0.0,0.0,0.0,0.0,0.0,0.0,0.0,0.0,0.0,0.0,0.0,0.0,0.0,0.0,0.0,0.0,0.0,0.0,0.0,0.0,0.0,0.0,0.0,0.0,0.0,0.0,0.0,0.0,0.0,0.0,0.0,0.0,0.0,0.0,0.0,0.0,0.0,0.0,0.0,0.0,0.0,0.0,0.0,0.0,0.0,0.0,0.0,0.0,0.0,0.0,0.0,0.0,0.0,0.0,0.0,0.0,0.0,0.0,0.0,0.0,0.0,0.0,0.0,0.0,1.7455,1.8597,1.9039,1.787,1.6278,1.4838,1.3572,1.1748,1.0418,0.0,0.0,0.0,0.0,0.0,0.0,0.0,0.0,0.0,0.0,0.0,0.0,0.0,0.0,0.0,0.0,0.0,0.0,0.0,0.0,0.0,0.0,0.0,0.0,0.0,0.0,0.0,0.0,0.0,0.0,0.0,0.0,0.0,0.0,0.0,0.0,0.0,0.0,0.0,0.0,0.0,0.0,0.0,0.0,0.0,0.0,0.0,0.0,0.0,0.0,0.0,0.0,0.0,0.0,0.0,0.0,0.0,0.0,0.0,0.0,0.0,0.0,0.0,0.0,0.0,0.0,0.0,0.0,0.0,0.0,0.0,0.0,0.0,0.0,0.0,0.0,0.0,0.0,0.0,0.0,0.0,0.0,0.0,0.0,0.0,0.0,0.0,0.0,0.0,0.0,0.0,0.0,0.0,0.0,0.0,0.0,0.0,0.0,0.0,0.0,0.0,0.0,0.0,1.8386,1.9484,1.9968,1.9061,1.8249,1.7526,1.6987,1.6173,1.5148,1.3925,0.0,0.0,0.0,0.0,0.0,0.0,0.0,0.0,0.0,0.0,0.0,0.0,0.0,0.0,0.0,0.0,0.0,0.0,0.0,0.0,0.0,0.0,0.0,0.0,0.0,0.0,0.0,0.0,0.0,0.0,0.0,0.0,0.0,0.0,0.0,0.0,0.0,0.0,0.0,0.0,0.0,0.0,0.0,0.0,0.0,0.0,0.0,0.0,0.0,0.0,0.0,0.0,0.0,0.0,0.0,0.0,0.0,0.0,0.0,0.0,0.0,0.0,0.0,0.0,0.0,0.0,0.0,0.0,0.0,0.0,0.0,0.0,0.0,0.0,0.0,0.0,0.0,0.0,0.0,0.0,0.0,0.0,0.0,0.0,0.0,0.0,0.0,0.0,0.0,0.0,0.0,0.0,0.0,0.0,0.0,0.0,0.0,0.0,0.0,0.0,0.0,0.0,2.0198,2.1592,2.2188,2.1025,2.0536,1.9765,1.8526,1.8093,1.726,1.5782,0.0,0.0,0.0,0.0,0.0,0.0,0.0,0.0,0.0,0.0,0.0,0.0,0.0,0.0,0.0,0.0,0.0,0.0,0.0,0.0,0.0,0.0,0.0,0.0,0.0,0.0,0.0,0.0,0.0,0.0,0.0,0.0,0.0,0.0,0.0,0.0,0.0,0.0,0.0,0.0,0.0,0.0,0.0,0.0,0.0,0.0,0.0,0.0,0.0,0.0,0.0,0.0,0.0,0.0,0.0,0.0,0.0,0.0,0.0,0.0,0.0,0.0,0.0,0.0,0.0,0.0,0.0,0.0,0.0,0.0,0.0,0.0,0.0,0.0,0.0,0.0,0.0,0.0,0.0,0.0,0.0,0.0,0.0,0.0,0.0,0.0,0.0,0.0,0.0,0.0,0.0,0.0,0.0,0.0,0.0,0.0,0.0,0.0,0.0,0.0,0.0,0.0,2.235,2.4226,2.4971,2.3501,2.3023,2.1809,1.9324,1.8684,1.784,1.6428,0.0,0.0,0.0,0.0,0.0,0.0,0.0,0.0,0.0,0.0,0.0,0.0,0.0,0.0,0.0,0.0,0.0,0.0,0.0,0.0,0.0,0.0,0.0,0.0,0.0,0.0,0.0,0.0,0.0,0.0,0.0,0.0,0.0,0.0,0.0,0.0,0.0,0.0,0.0,0.0,0.0,0.0,0.0,0.0,0.0,0.0,0.0,0.0,0.0,0.0,0.0,0.0,0.0,0.0,0.0,0.0,0.0,0.0,0.0,0.0,3.1856,3.0493,0.0,0.0,0.0,0.0,0.0,0.0,0.0,0.0,0.0,0.0,0.0,0.0,0.0,0.0,0.0,0.0,0.0,0.0,0.0,0.0,0.0,0.0,0.0,0.0,0.0,0.0,0.0,0.0,0.0,0.0,0.0,0.0,0.0,0.0,0.0,0.0,0.0,0.0,0.0,0.0,2.3146,2.4325,2.5276,2.5729,2.5379,2.4878,2.4273,2.2763,2.1422,2.0423,1.8742,0.0,0.0,0.0,0.0,0.0,0.0,0.0,0.0,0.0,0.0,0.0,0.0,0.0,0.0,0.0,0.0,0.0,0.0,0.0,0.0,0.0,0.0,0.0,0.0,0.0,0.0,0.0,0.0,0.0,0.0,0.0,0.0,0.0,0.0,0.0,0.0,0.0,0.0,0.0,0.0,0.0,0.0,0.0,0.0,0.0,0.0,0.0,0.0,0.0,0.0,0.0,0.0,0.0,0.0,0.0,0.0,0.0,0.0,0.0,3.6083,3.4206,0.0,0.0,0.0,0.0,0.0,0.0,0.0,0.0,0.0,0.0,0.0,0.0,0.0,0.0,0.0,0.0,0.0,0.0,0.0,0.0,0.0,0.0,0.0,0.0,0.0,0.0,0.0,0.0,0.0,0.0,0.0,0.0,0.0,0.0,0.0,0.0,0.0,0.0,0.0,0.0,2.4293,2.5959,2.715,2.7256,2.7048,2.6622,2.5875,2.4657,2.3553,2.2666,2.0738,0.0,0.0,0.0,0.0,0.0,0.0,0.0,0.0,0.0,0.0,0.0,0.0,0.0,0.0,0.0,0.0,0.0,0.0,0.0,0.0,0.0,0.0,0.0,0.0,0.0,0.0,0.0,0.0,0.0,0.0,0.0,0.0,0.0,0.0,0.0,0.0,0.0,0.0,0.0,0.0,0.0,0.0,0.0,0.0,0.0,0.0,0.0,0.0,0.0,0.0,0.0,0.0,0.0,4.1663,4.2554,4.3434,4.4206,4.4547,4.4329,4.0583,3.8735,3.8418,3.8221,0.0,0.0,0.0,0.0,0.0,0.0,0.0,0.0,0.0,0.0,0.0,0.0,0.0,0.0,0.0,0.0,0.0,0.0,0.0,0.0,0.0,0.0,3.5378,3.5243,3.5317,3.42,3.0012,0.0,0.0,0.0,0.0,0.0,0.0,0.0,0.0,0.0,0.0,0.0,2.5689,2.7987,2.9392,2.8788,2.8829,2.8304,2.6853,2.6081,2.5261,2.4283,2.2638,2.1496,0.0,0.0,0.0,0.0,0.0,0.0,0.0,0.0,0.0,0.0,0.0,0.0,0.0,0.0,0.0,0.0,0.0,0.0,0.0,0.0,0.0,0.0,0.0,0.0,0.0,0.0,0.0,0.0,0.0,0.0,0.0,0.0,3.6698,3.6267,0.0,0.0,0.0,0.0,0.0,0.0,0.0,0.0,0.0,0.0,0.0,0.0,0.0,4.3292,4.3292,4.3952,4.4334,4.4522,4.5179,4.5623,4.5761,4.5866,4.5936,4.5885,4.5298,0.0,4.3208,4.2262,0.0,0.0,0.0,0.0,0.0,0.0,0.0,0.0,0.0,0.0,0.0,0.0,0.0,0.0,0.0,0.0,0.0,0.0,0.0,0.0,0.0,0.0,3.996,3.9356,3.9245,3.8913,3.7698,3.3526,2.9789,2.9143,2.8545,2.7702,0.0,0.0,0.0,0.0,0.0,0.0,2.7313,2.9255,3.0754,3.1094,3.1658,3.1602,3.0551,2.9201,2.7791,2.631,2.4126,2.2615,2.2026,2.1339,0.0,0.0,0.0,0.0,0.0,0.0,0.0,0.0,0.0,0.0,0.0,0.0,0.0,0.0,0.0,0.0,0.0,0.0,0.0,0.0,0.0,0.0,0.0,0.0,0.0,0.0,0.0,0.0,0.0,3.8025,3.8478,3.8043,3.8924,3.9343,0.0,0.0,0.0,0.0,0.0,0.0,0.0,0.0,0.0,4.3493,4.4311,4.4771,4.4771,4.5442,4.5744,4.576,4.6585,4.6986,4.6986,4.7523,4.777,4.777,4.777,4.7439,4.6746,4.4836,4.3936,4.3631,0.0,0.0,0.0,0.0,4.1111,4.0628,4.1004,4.0627,3.9941,3.9592,0.0,0.0,0.0,0.0,0.0,0.0,0.0,3.8763,3.9987,4.0645,4.116,4.1717,4.1473,4.0924,4.0249,3.7809,3.5049,3.2864,3.1783,3.0531,2.832,2.7947,0.0,0.0,0.0,2.8329,2.841,2.9924,3.0998,3.1027,3.1296,3.1308,3.0902,3.0303,2.9671,2.8999,2.7395,2.6154,2.5432,2.4141,2.2971,0.0,0.0,0.0,0.0,0.0,0.0,0.0,0.0,0.0,0.0,0.0,0.0,0.0,0.0,0.0,0.0,0.0,0.0,0.0,0.0,0.0,0.0,0.0,0.0,0.0,0.0,0.0,0.0,3.9733,4.0573,3.9832,4.1292,4.2078,0.0,0.0,0.0,0.0,0.0,0.0,4.4786,4.5032,4.5212,4.5424,4.5912,4.6155,4.6155,4.6658,4.6918,4.6918,4.7622,4.795,4.7966,4.8688,4.9001,4.9001,4.9001,4.9001,4.8858,4.693,4.5782,4.5131,4.5131,4.5017,4.4854,4.4854,4.4561,4.417,4.4707,4.4399,4.3686,4.3031,4.2586,4.195,4.0214,0.0,0.0,0.0,0.0,4.0937,4.2489,4.2407,4.2209,4.337,4.3139,4.253,4.2024,4.1045,3.9315,3.6206,3.4929,3.3576,3.113,3.0543,0.0,2.8485,2.9326,2.9916,2.9397,3.0728,3.1565,3.1143,3.1246,3.1231,3.0999,3.1219,3.1213,3.0812,3.0178,2.9467,2.8723,2.7086,2.5631,2.446,0.0,0.0,0.0,0.0,0.0,0.0,0.0,0.0,0.0,0.0,0.0,0.0,0.0,0.0,0.0,0.0,0.0,0.0,0.0,0.0,0.0,0.0,0.0,0.0,0.0,0.0,0.0,0.0,0.0,4.0888,4.321,0.0,0.0,0.0,0.0,4.4082,4.4918,4.571,4.6452,4.7264,4.8034,4.8726,4.8793,4.881,4.881,4.8844,4.8861,4.8861,4.8909,4.894,4.894,4.897,4.9001,4.9001,4.9001,4.9001,4.9001,4.8858,4.8388,4.7713,4.7713,4.7292,4.665,4.665,4.6663,4.6629,4.665,4.6115,4.5621,4.7066,4.6617,4.5301,4.4502,4.279,0.0,0.0,4.27,4.2551,4.4086,4.4446,4.4435,4.4542,4.4514,4.4468,4.4435,4.2689,4.0455,3.8184,3.7134,3.6114,3.4522,0.0,3.266,3.1132,3.1555,3.1611,3.0382,3.2058,3.3124,3.2467,3.2989,3.2991,3.2108,3.2618,3.2373,3.0906,3.1349,3.1411,3.0862,2.9582,2.8626,2.8047,2.6903,0.0,0.0,0.0,0.0,0.0,0.0,0.0,0.0,0.0,0.0,0.0,0.0,0.0,0.0,0.0,0.0,0.0,0.0,0.0,0.0,0.0,0.0,0.0,0.0,0.0,0.0,0.0,0.0,4.3164,4.5093,0.0,4.5424,4.4933,4.5174,4.6487,4.6867,4.7572,4.878,4.8695,4.8951,4.9678,4.9255,4.9001,4.9001,4.9001,4.9001,4.9001,4.9001,4.9001,4.9001,4.9001,4.9001,4.9001,4.9001,4.9001,4.9001,4.9001,4.8849,4.8612,4.8612,4.846,4.8223,4.8223,4.8223,4.8223,4.8223,4.8006,4.7754,4.7879,4.7225,4.6346,4.6092,4.5457,4.4896,4.5443,4.5395,4.5211,4.5291,4.5314,4.5179,4.4716,4.4615,4.4615,4.4615,4.3547,4.2239,4.0983,3.8949,3.7109,3.6146,3.5764,3.5256,3.4265,3.3946,3.3652,3.3182,3.3352,3.341,3.317,3.3365,3.3561,3.3774,3.4364,3.4316,3.3364,3.3543,3.2901,3.1204,3.0316,2.9362,2.8244,2.7854,2.6973,0.0,0.0,0.0,0.0,0.0,0.0,0.0,0.0,0.0,0.0,0.0,0.0,0.0,0.0,0.0,0.0,0.0,0.0,0.0,0.0,0.0,0.0,0.0,0.0,0.0,4.5105,4.6568,4.5177,4.715,4.8391,4.7847,4.7345,4.7615,4.8906,4.9004,4.9458,5.0422,5.0016,4.9982,5.0456,4.9763,4.9373,4.9373,4.912,4.9001,4.9001,4.9001,4.9001,4.9001,4.9001,4.9001,4.9001,4.9001,4.9001,4.9001,4.9001,4.9001,4.9001,4.9001,4.9001,4.9001,4.9001,4.9001,4.9001,4.9001,4.9001,4.8934,4.8443,4.7784,4.7175,4.7175,4.7005,4.6786,4.6786,4.6616,4.6312,4.5838,4.5517,4.5213,4.4733,4.4615,4.4615,4.4615,4.3961,4.32,4.2439,4.0475,3.8743,3.8019,3.7698,3.729,3.6648,3.6103,3.5564,3.5122,3.4554,3.4122,3.3925,3.3894,3.4118,3.4632,3.5064,3.5126,3.4721,3.4645,3.383,3.2052,3.1842,3.1204,2.9999,2.9609,2.8427,2.6477,0.0,0.0,0.0,0.0,0.0,0.0,0.0,0.0,0.0,0.0,0.0,0.0,0.0,0.0,0.0,0.0,0.0,0.0,0.0,0.0,0.0,0.0,0.0,4.3379,4.6486,4.8332,4.6911,4.9419,5.0963,5.0236,5.0135,5.0422,5.1134,5.1185,5.1185,5.1185,5.1168,5.12,5.1185,5.0473,5.0084,5.0084,4.939,4.9018,4.9001,4.9001,4.9001,4.9001,4.9001,4.9001,4.9001,4.9001,4.9001,4.9001,4.9001,4.9001,4.9001,4.9001,4.9001,4.9001,4.9001,4.9001,4.9001,4.9001,4.9001,4.9001,4.9001,4.8528,4.7922,4.7922,4.7445,4.6853,4.6853,4.6346,4.5771,4.5737,4.5179,4.4632,4.4615,4.4615,4.4615,4.4615,4.3995,4.3189,4.2439,4.1728,4.0984,4.0231,3.9463,3.8747,3.814,3.7924,0.0,3.6054,3.577,3.545,3.4858,3.4796,3.4825,3.4838,3.4823,3.4807,3.4776,3.4627,3.4234,3.3516,3.4197,3.4216,3.3516,3.219,3.0516,2.8496,0.0,0.0,0.0,0.0,0.0,0.0,0.0,0.0,0.0,0.0,0.0,0.0,0.0,0.0,0.0,0.0,0.0,0.0,0.0,0.0,0.0,4.5838,4.7455,4.6686,4.8413,4.9782,4.9917,5.1172,5.1928,5.1708,5.1217,5.0997,5.1168,5.1185,5.1185,5.1185,5.0693,5.0659,5.1168,5.0473,5.0084,5.0084,4.9898,4.9526,4.9001,4.9001,4.9001,4.9001,4.9001,4.9001,4.9001,4.9001,4.9001,4.9001,4.9001,4.9001,4.9001,4.9001,4.9001,4.9001,4.9001,4.9001,4.9001,4.9001,4.9001,4.9001,4.9001,4.8866,4.8714,4.8714,4.8562,4.8392,4.8392,4.7868,4.7175,4.6633,4.594,4.5263,4.4733,4.4615,4.4615,4.4615,4.4445,4.3876,4.2557,4.2134,4.1576,4.0316,3.9927,3.9715,3.9556,3.8997,3.8461,3.8095,3.7544,3.712,3.6991,3.6959,3.7173,3.7691,3.7248,3.6729,3.6247,3.5701,3.4844,3.3606,3.3773,3.3766,3.3583,3.2253,3.1359,0.0,0.0,0.0,0.0,0.0,0.0,0.0,0.0,0.0,0.0,0.0,0.0,0.0,0.0,0.0,0.0,0.0,0.0,0.0,0.0,0.0,0.0,4.7523,4.9039,4.9261,5.0031,5.0727,5.1134,5.1589,5.1961,5.2266,5.1911,5.1809,5.2147,5.186,5.1674,5.1674,5.0963,5.0913,5.1657,5.0947,5.0557,5.0557,5.0253,4.9729,4.9001,4.9001,4.9001,4.9001,4.9001,4.9001,4.9001,4.9001,4.9001,4.9001,4.9001,4.9001,4.9001,0.0,0.0,0.0,0.0,4.9001,4.9032,4.9299,4.9419,4.9462,4.978,4.9896,4.9896,4.9896,4.9896,4.9896,4.9896,4.9361,4.8601,4.7841,4.7082,4.6259,4.524,4.5152,4.5267,4.5025,4.5178,4.4846,4.3066,4.2723,0.0,4.04,4.0096,4.0096,4.0096,3.9688,3.9394,3.9394,3.8718,3.8246,3.8246,3.8246,3.8442,3.8854,3.7969,0.0,0.0,0.0,3.5117,3.4797,3.451,0.0,0.0,0.0,0.0,0.0,3.2396,0.0,0.0,3.0967,3.1149,0.0,0.0,0.0,0.0,0.0,0.0,0.0,0.0,0.0,0.0,0.0,0.0,0.0,0.0,0.0,0.0,4.9153,4.9792,5.124,5.1445,5.1376,5.1217,5.1185,5.1471,5.2114,5.2249,5.2604,5.3315,5.2706,5.2266,5.2181,5.1572,0.0,0.0,0.0,5.1269,5.1185,5.0557,4.9813,4.9001,4.9001,4.9001,4.9001,4.9001,4.9001,4.9001,4.9001,4.9032,4.9107,4.9107,4.9152,4.9243,4.9168,4.9107,4.9107,4.9107,4.9107,4.9212,4.9792,0.0,0.0,5.085,5.1086,5.1086,5.1086,5.1086,5.1086,5.1086,5.0563,4.9827,4.9004,4.8267,4.7342,4.5924,4.6014,4.624,4.5707,4.6014,4.5805,4.3788,4.3371,4.2732,4.0641,4.0229,4.0179,4.0179,4.0179,4.0179,4.0179,3.9499,3.9032,3.9032,3.9032,0.0,3.9106,3.7899,3.7103,3.7037,3.561,3.5307,3.6457,3.5917,3.5766,3.6129,3.6147,3.5794,3.51,3.51,3.5118,3.5151,3.2977,3.2693,0.0,0.0,0.0,0.0,0.0,0.0,0.0,0.0,0.0,0.0,0.0,0.0,0.0,0.0,0.0,4.9657,5.0805,5.1889,5.2833,5.2986,5.2521,5.1361,5.1185,5.1268,5.142,5.1961,5.2367,5.252,5.2384,5.2046,5.1454,5.1302,5.1252,5.142,5.186,5.1809,5.1217,5.1065,5.0321,4.9001,4.9001,0.0,4.9001,4.9001,4.9001,4.9001,4.9001,4.9316,4.9792,4.9792,5.0174,5.0635,5.0033,4.9792,4.9792,4.9792,4.9792,4.9821,4.9947,5.0004,5.01,5.085,5.1086,5.1086,5.1086,5.1086,0.0,5.1086,5.0563,4.9827,4.9004,4.8267,4.7439,4.6458,4.6312,4.6383,4.624,4.6312,4.5923,4.4253,4.3948,4.3432,4.1771,4.1082,4.075,4.075,4.075,4.075,4.075,4.0228,3.9876,3.9876,3.9876,4.0028,4.0484,3.9707,3.8958,3.8362,3.6891,3.6361,3.702,3.6925,3.6876,3.6961,3.6961,3.6755,3.6353,3.6353,3.657,3.697,3.5496,3.4977,0.0,0.0,0.0,0.0,0.0,0.0,0.0,0.0,0.0,0.0,0.0,4.7487,4.8977,0.0,5.0846,5.2015,5.2514,5.3041,5.389,5.3691,5.3176,5.2434,5.171,5.1233,5.1199,5.1539,5.1758,5.1758,5.1758,5.1437,5.0693,5.0659,5.0828,5.12,5.1928,5.2131,5.1758,5.1758,5.1014,4.9543,4.9543,4.9357,4.9001,4.9346,4.9492,4.9521,4.9879,5.0258,5.0554,5.0554,5.077,5.1086,5.1068,5.085,5.0554,5.0554,5.0554,5.0608,5.0938,5.1042,5.1172,5.1898,5.2149,5.2149,5.2149,5.2149,5.2149,5.2149,5.1901,5.1324,5.0114,4.9536,4.8856,4.7263,4.7132,4.7281,4.6977,4.7132,4.692,4.5477,4.5219,4.4593,4.2729,4.2398,4.2149,4.1455,4.1358,4.1358,4.1358,4.1105,4.0938,4.0938,4.0938,4.1059,4.1335,4.0661,3.995,3.9199,3.8424,3.8047,3.815,3.8151,3.8097,3.7948,3.7948,3.7885,3.7701,3.7701,3.7831,3.8083,3.7442,3.7148,0.0,0.0,0.0,0.0,0.0,0.0,0.0,4.5664,4.6431,4.7859,4.8781,4.9889,5.1676,5.2123,5.2711,5.4161,5.3891,5.388,5.4876,5.4529,5.4153,5.418,5.2718,5.1632,5.1466,5.17,5.1734,5.1456,5.1549,5.1353,5.0769,5.0735,5.1093,5.1845,5.2454,5.2728,5.275,5.2624,5.1864,5.0552,5.0537,5.0216,4.9668,5.0046,5.03,5.0478,5.1052,5.1292,5.1292,5.1462,5.1512,5.1562,5.2089,5.197,5.1487,5.1343,5.1292,5.1368,5.1904,5.2112,5.2224,5.2959,5.3185,5.3185,5.3185,5.3185,5.3185,5.3185,5.3185,5.2839,5.1224,5.0802,5.0261,4.8076,4.7937,4.8172,4.7695,4.7957,4.7934,4.6699,4.6454,4.5786,4.3677,4.373,4.3595,4.2187,4.1979,4.1979,4.1979,4.1874,4.181,4.181,4.181,4.1853,4.1958,4.1291,4.0659,4.017,3.9877,3.9655,3.9496,3.9477,3.932,3.893,3.8927,3.8854,3.8707,3.8707,3.8707,3.8707,3.8707,3.8707,4.4609,4.4589,4.512,4.5586,4.5883,4.6587,0.0,4.8647,4.8728,5.0143,5.1069,5.1694,5.1958,5.2582,5.3371,5.4252,5.4338,5.4825,5.6324,5.6479,5.6454,5.6505,5.4581,5.2986,5.232,5.3433,5.3671,5.2269,5.2781,5.3122,5.3034,5.3017,5.3397,5.4183,5.4308,5.4348,5.4342,5.3669,5.2957,5.2139,5.2071,5.2043,5.2013,5.1312,5.137,5.2042,5.1996,5.1976,5.2042,5.2684,5.2977,5.2977,5.306,5.302,5.2893,5.2224,5.1976,5.2,5.2071,5.2112,5.2224,5.2959,5.3185,5.3185,5.3185,5.3185,5.3185,5.3185,5.3185,5.2839,5.1224,5.0802,5.036,4.8614,4.8267,4.8287,4.821,4.8267,4.8048,4.7184,4.7,4.6469,4.4785,4.4565,4.4145,4.28,4.2596,4.2596,4.2596,4.2142,4.181,4.181,4.181,4.2018,4.2539,4.1879,4.1578,4.1969,4.089,4.0419,4.0866,4.0883,4.0531,3.9772,3.9772,3.9405,3.8707,3.8707,3.8707,3.8707,3.8707,3.8707,4.7049,4.6783,4.6944,4.8406,4.8635,4.8901,5.0306,5.0625,5.0796,5.1367,5.2142,5.2569,5.213,5.2318,5.2995,5.4285,5.4527,5.5207,5.7217,5.7097,5.68,5.6835,5.5613,5.4474,5.3743,5.3841,5.369,5.3032,5.3674,5.392,5.3477,5.3884,5.4256,5.4593,5.5032,5.5249,5.5256,5.4915,5.4401,5.3686,5.3659,5.3419,5.3029,5.2594,5.2533,5.2819,5.2763,5.2747,5.2769,5.3063,5.3185,5.3185,5.3185,5.3185,5.3164,5.2853,5.2747,5.2747,5.2747,5.2747,5.2791,5.3103,5.3185,5.3185,5.3185,5.3185,5.3185,5.3185,5.3185,5.2949,5.1793,5.1151,5.0508,4.9334,4.8673,4.8306,4.8306,4.8306,4.8214,4.7846,4.7791,4.7424,4.6287,4.5718,4.504,4.4017,4.347,4.3178,4.3178,4.2958,4.2791,4.2791,4.2791,4.2884,4.3142,4.2868,4.2774,4.2983,4.248,4.2044,4.1811,4.1809,4.1423,4.0616,4.0139,3.9717,3.9405,3.8927,3.8707,3.8707,3.8707,3.8707,4.8331,4.8293,4.8556,5.0097,5.0704,5.1101,5.1613,5.214,5.2455,5.2367,5.2803,5.2959,5.2247,5.2112,5.2588,5.4019,5.4263,5.4997,5.7054,5.6691,5.6182,5.6182,5.5361,5.4821,5.492,5.4628,5.4338,5.4118,5.4793,5.497,5.444,5.4916,5.531,5.5525,5.5856,5.6132,5.6331,5.6114,5.5747,5.5231,5.5222,5.4936,5.4447,5.4079,5.3672,5.3185,5.3185,5.3185,5.3185,5.3185,5.3185,5.3185,5.3185,5.3185,5.3185,5.3185,5.3185,5.3185,5.3185,5.3185,5.3185,5.3185,5.3185,5.3185,5.3185,5.3185,5.3185,5.3185,5.3185,5.3023,5.2197,5.1389,5.06,4.9794,4.893,4.8306,4.8306,4.8306,4.8306,4.8306,4.8306,4.8049,4.7241,4.6617,4.5957,4.5149,4.4342,4.3736,4.3533,4.3515,4.3515,4.3515,4.3515,4.3515,4.3515,4.3515,4.3515,4.3515,4.3515,4.3239,4.2653,4.2635,4.2249,4.1444,4.0855,4.0451,4.023,3.9662,3.9368,3.9368,3.9368,3.9368,4.7188,4.823,4.947,4.9599,5.1382,5.3016,5.2654,5.3181,5.3626,5.3238,5.3167,5.2959,5.2247,5.2112,5.2383,5.3291,5.3432,5.3963,5.555,5.5145,5.4676,5.4676,5.3368,5.3341,5.5555,5.6382,5.6482,5.5671,5.6319,5.6717,5.6699,5.6717,5.7084,5.7877,5.7216,5.7209,5.7932,5.7234,5.6843,5.6832,5.6768,5.6762,5.676,5.5939,5.4671,5.3185,5.3185,5.3185,5.3185,5.3185,5.3185,5.3185,5.3185,5.3185,5.3185,5.3185,5.3185,5.3185,5.3185,5.3185,5.3185,5.3185,5.3185,5.3185,5.3185,5.3185,5.3185,5.3185,5.3185,5.3023,5.2197,5.1389,5.06,4.9794,4.893,4.8306,4.8306,4.8306,4.8306,4.8306,4.8306,4.8049,4.7241,4.7076,4.6782,4.5975,4.5186,4.4378,4.3606,4.3515,4.3515,4.3515,4.3515,4.3515,4.3515,4.3515,4.3515,4.3515,4.3515,4.3496,4.346,4.346,4.3075,4.2286,4.2249,4.1846,4.1058,4.104,4.1022,4.1022,4.1022,4.1022,4.8738,4.9467,5.0368,5.2356,5.3232,5.3637,5.3825,5.3825,5.3534,5.2614,5.2399,5.2029,5.0742,5.0581,5.1244,5.3025,5.3414,5.4358,5.6887,5.6533,5.5868,5.5323,5.4856,5.4876,5.5595,5.5053,5.5363,5.7103,5.7,5.7091,5.757,5.7593,5.7721,5.7997,5.775,5.775,5.7997,5.775,5.7637,5.7637,5.7611,5.7331,5.681,5.598,5.5005,5.3977,5.3424,5.3185,5.3185,5.3185,5.3185,5.3185,5.3185,5.3185,5.3185,5.3185,5.3185,5.3185,5.3185,5.3185,5.3185,5.3185,5.3185,5.3185,5.3185,5.3185,5.3185,5.3185,5.3185,5.3151,5.2876,5.2197,5.1389,5.0582,4.9756,4.9003,4.8416,4.8306,4.8306,4.8306,4.8306,4.8214,4.7938,4.7443,4.6819,4.6012,4.5223,4.4415,4.3606,4.3515,4.3515,4.3515,4.3515,4.3515,4.3515,4.3515,4.3515,4.3515,4.3515,4.3515,4.3515,4.3515,4.3369,4.3094,4.2561,4.2176,4.1901,4.1352,4.1095,4.1095,4.1095,4.1095,4.9433,5.0371,5.1343,5.35,5.4254,5.453,5.4676,5.4143,5.3326,5.2395,5.1862,5.1206,4.9924,4.9775,5.0488,5.257,5.2978,5.4011,5.6783,5.6508,5.5819,5.5293,5.5051,5.5105,5.5614,5.434,5.4747,5.7771,5.7565,5.7516,5.7973,5.7997,5.7997,5.7997,5.7997,5.785,5.7574,5.7574,5.7428,5.7134,5.7134,5.6712,5.5923,5.5409,5.473,5.394,5.3427,5.3185,5.3185,5.3185,5.3185,5.3185,5.3185,5.3185,5.3185,5.3185,5.3185,5.3185,5.3185,5.3185,5.3185,5.3185,5.3185,5.3185,5.3185,5.3185,5.3185,5.3185,5.3185,5.3185,5.3185,5.2601,5.1867,5.1353,5.038,4.9445,4.8893,4.8526,4.8306,4.8306,4.8306,4.8306,4.8306,4.7865,4.7259,4.6452,4.5902,4.5278,4.4452,4.436,4.436,4.436,4.436,4.4232,4.3956,4.392,4.3809,4.3533,4.3515,4.3515,4.3515,4.3515,4.3515,4.3515,4.2983,4.2727,4.2727,4.2213,4.1974,4.1974,4.1974,4.1974,4.9335,5.087,5.2287,5.3013,5.4395,5.5473,5.5052,5.4012,5.2997,5.256,5.1544,5.0511,4.977,4.9672,5.0257,5.1986,5.2298,5.3149,5.5472,5.5208,5.4756,5.4721,5.4126,5.4294,5.5699,5.4454,5.4789,5.7702,5.79,5.7882,5.7886,5.7923,5.7923,5.7868,5.7868,5.7501,5.6767,5.6748,5.6363,5.5614,5.5614,5.5188,5.4454,5.4418,5.3977,5.3259,5.3203,5.3185,5.3185,5.3185,5.3185,5.3185,5.3185,5.3185,5.3185,5.3185,5.3185,5.3185,5.3185,5.3185,5.3185,5.3185,5.3185,5.3185,5.3185,5.3185,5.3185,5.3185,5.3185,5.3185,5.3185,5.2637,5.205,5.1995,5.0841,4.9702,4.9629,4.8948,4.8361,4.8324,4.8306,4.8306,4.8306,4.8306,4.8049,4.7278,4.7168,4.6856,4.6012,4.5902,4.5902,4.5902,4.5902,4.559,4.4837,4.4709,4.4378,4.3608,4.3533,4.3515,4.3515,4.3515,4.3515,4.3515,4.3515,4.3515,4.3515,4.3515,4.3515,4.3515,4.3515,4.3515,5.0336,5.1315,5.2287,5.3013,5.353,5.3725,5.334,5.2746,5.2018,5.0958,5.0305,4.9643,4.8806,4.9234,5.0412,5.259,5.3538,5.4806,5.7085,5.7249,5.6903,5.6303,5.66,5.6781,5.6575,5.6179,5.6257,5.7056,5.6581,5.6261,5.6212,5.6785,5.684,5.6216,5.6198,5.6106,5.5904,5.5904,5.5794,5.5614,5.5614,5.5504,5.5262,5.4675,5.4289,5.4069,5.3463,5.3185,5.3185,5.3185,5.3185,5.3185,5.3185,5.3185,5.3185,5.3185,5.3185,5.3185,5.3185,5.3185,5.3185,5.3185,5.3185,5.3185,5.3185,5.3185,5.3185,5.3185,5.3185,5.3185,5.3185,5.3059,5.2747,5.2142,5.1703,5.1061,4.9867,4.9445,4.9077,4.8434,4.8306,4.8306,4.8306,4.8306,4.8233,4.8012,4.7975,4.7498,4.6085,4.5902,4.5902,4.5902,4.5902,4.581,4.5608,4.5039,4.4617,4.4415,4.3828,4.3515,4.3515,4.3515,4.3515,4.3515,4.3515,4.3515,4.3515,4.3515,4.3515,4.3515,4.3515,4.3515,5.0781,5.1587,5.2257,5.256,5.2933,5.3142,5.2909,5.2266,5.1443,5.0582,4.9796,4.9086,4.8418,4.9038,5.0429,5.2813,5.393,5.534,5.7657,5.7997,5.7831,5.7373,5.7721,5.7685,5.6895,5.6492,5.6124,5.5776,5.5696,5.5632,5.5611,5.6033,5.6069,5.5592,5.5614,5.5449,5.5078,5.4711,5.4546,5.4546,5.4546,5.4546,5.4528,5.4087,5.3867,5.3849,5.3387,5.3185,5.3185,5.3185,5.3185,5.3185,5.3185,5.3185,5.3185,5.3185,5.3185,5.3185,5.3185,5.3185,5.3185,5.3185,5.3185,5.3185,5.3185,5.3185,5.3185,5.3185,5.3185,5.3185,5.3185,5.3185,5.3096,5.2637,5.2252,5.1738,5.0859,5.0381,4.9866,4.9022,4.8875,4.8746,4.8379,4.8306,4.8306,4.8306,4.8306,4.7976,4.7076,4.6948,4.6948,4.6948,4.6948,4.6819,4.6471,4.5993,4.559,4.5259,4.447,4.403,4.403,4.3681,4.3515,4.3515,4.3515,4.3515,4.3515,4.3515,4.3515,4.3515,4.3515,4.3515,5.0909,5.1588,5.2058,5.1798,5.2268,5.2766,5.2651,5.1698,5.074,5.0515,4.9492,4.8597,4.8421,4.9061,5.0363,5.2674,5.372,5.5078,5.7501,5.7831,5.7886,5.7997,5.7905,5.7574,5.6877,5.5978,5.5133,5.4454,5.495,5.5262,5.5262,5.5372,5.5372,5.5262,5.5262,5.495,5.4252,5.3555,5.3185,5.3185,5.3185,5.3185,5.3185,5.3185,5.3185,5.3185,5.3185,5.3185,5.3185,5.3185,5.3185,5.3185,5.3185,5.3185,5.3185,5.3185,5.3185,5.3185,5.3185,5.3185,5.3185,5.3185,5.3185,5.3185,5.3185,5.3185,5.3185,5.3185,5.3185,5.3185,5.3185,5.3185,5.3185,5.3185,5.2674,5.2123,5.2013,5.1371,5.0582,4.9904,4.9665,4.9372,4.86,4.8379,4.8306,4.8306,4.8306,4.8306,4.8306,4.8306,4.8306,4.8306,4.8306,4.8012,4.7314,4.7168,4.6801,4.6104,4.5314,4.4874,4.4874,4.4085,4.3644,4.3644,4.3551,4.3515,4.3515,4.3515,4.3515,4.3515,4.3515,4.3515,5.0927,5.1035,5.1114,5.0952,5.0768,5.0474,4.9798,4.8959,0.0,4.8678,4.8035,4.7702,4.8614,4.9233,5.018,5.1922,5.2876,5.4252,5.6675,5.7024,5.7262,5.7923,5.7409,5.695,5.6822,5.5482,5.4546,5.4418,5.3922,5.3628,5.3628,5.4252,5.4308,5.3647,5.3628,5.3555,5.3427,5.328,5.3185,5.3185,5.3185,5.3185,5.3185,5.3185,5.3185,5.3185,5.3185,5.3185,5.3185,5.3185,5.3185,5.3185,5.3185,5.3185,5.3185,5.3185,5.3185,5.3185,5.3185,5.3185,5.3185,5.3185,5.3185,5.3185,5.3185,5.3185,5.3185,5.3185,5.3185,5.3185,5.3185,5.3185,5.3185,5.3185,5.3075,5.2821,5.2142,5.1371,5.0765,5.0618,5.005,4.9555,4.9408,4.8783,4.8306,4.8306,4.8306,4.8306,4.8306,4.8306,4.8306,4.8306,4.8306,4.8251,4.8104,4.748,4.7039,4.6892,4.614,4.5681,4.5681,4.4929,4.4488,4.4488,4.3828,4.3515,4.3515,4.3515,4.3515,4.3515,4.3515,4.3515,5.0939,5.0908,5.0813,5.0467,4.9935,4.9325,4.8726,0.0,0.0,4.8206,4.7965,4.7909,4.8747,4.927,4.9996,5.1169,5.205,5.328,5.528,5.5904,5.6308,5.6712,5.6785,5.6473,5.5629,5.4858,5.4234,5.3812,5.3427,5.3185,5.3185,5.3573,5.361,5.3203,5.3185,5.3185,5.3185,5.3185,5.3185,5.3185,5.3185,5.3185,5.3185,5.3185,5.3185,5.3185,5.3185,5.3185,5.3185,5.3185,5.3185,5.3185,5.3185,5.3185,5.3185,5.3185,5.3185,5.3185,5.3185,5.3185,5.3185,5.3185,5.3185,5.3185,5.3185,5.3185,5.3185,5.3185,5.3185,5.3185,5.3185,5.3185,5.3185,5.3185,5.3185,5.3075,5.2711,5.2325,5.194,5.1499,5.1096,5.0583,4.9739,4.9262,4.882,4.8379,4.8306,4.8306,4.8306,4.8306,4.8306,4.8306,4.8306,4.8306,4.8306,4.7957,4.7718,4.7718,4.6966,4.6526,4.6526,4.5755,4.5333,4.5333,4.4947,4.4544,4.4121,4.4121,4.3901,4.3515,4.3515,4.3515,5.0774,5.0737,5.0613,5.009,4.9296,4.8523,4.8134,4.7541,4.7226,4.7774,4.7767,4.7928,4.8718,4.906,4.9507,5.0483,5.1121,5.2105,5.3885,5.4693,5.5207,5.5556,5.6014,5.5794,5.4528,5.4234,5.3885,5.324,5.3185,5.3185,5.3185,5.3185,5.3185,5.3185,5.3185,5.3185,5.3185,5.3185,5.3185,5.3185,5.3185,5.3185,5.3185,5.3185,5.3185,5.3185,5.3185,5.3185,5.3185,5.3185,5.3185,5.3185,5.3185,5.3185,5.3185,5.3185,5.3185,5.3185,5.3185,5.3185,5.3185,5.3185,5.3185,5.3185,5.3185,5.3185,5.3185,5.3185,5.3185,5.3185,5.3185,5.3185,5.3185,5.3185,5.3185,5.3185,5.3185,5.3185,5.3023,5.238,5.2105,5.1591,5.0326,4.9831,4.9372,4.8673,4.8416,4.8306,4.8306,4.8306,4.8306,4.8306,4.8306,4.8306,4.8306,4.8306,4.8306,4.8306,4.77,4.7351,4.7351,4.6581,4.6159,4.6159,4.5993,4.559,4.4966,4.4764,4.4378,4.3754,4.3588,4.3515,5.0286,5.0156,5.0073,4.9645,4.8675,4.7704,4.7226,0.0,4.5621,4.6349,4.6241,4.659,4.8447,4.8307,4.8386,4.9909,0.0,5.0657,5.2986,5.3369,5.3959,5.5449,5.5023,5.4564,5.4418,5.3739,5.3277,5.3203,5.3185,5.3185,5.3185,5.3185,5.3185,5.3185,5.3185,5.3185,5.3185,5.3185,5.3185,5.3185,5.3185,5.3185,5.3185,5.3185,5.3185,5.3185,5.3185,5.3185,5.3185,5.3185,5.3185,5.3185,5.3185,5.3185,5.3185,5.3185,5.3185,5.3185,5.3185,5.3185,5.3185,5.3185,5.3185,5.3185,5.3185,5.3185,5.3185,5.3185,5.3185,5.3185,5.3185,5.3185,5.3185,5.3185,5.3185,5.3185,5.3185,5.3185,5.3167,5.3093,5.2509,5.194,5.1793,5.0583,4.9574,4.95,4.8802,4.8306,4.8306,4.8306,4.8306,4.8306,4.8306,4.8306,4.8306,4.8306,4.8306,4.8306,4.8233,4.8196,4.8196,4.7406,4.6984,4.6984,4.6269,4.5865,4.5792,4.5057,4.4672,4.4563,4.3828,4.3515,4.9995,4.9924,4.9631,4.9234,4.8055,4.6912,4.6681,4.57,4.5117,4.6104,4.6195,4.6484,4.7776,4.7605,4.757,0.0,0.0,0.0,5.0787,5.1444,5.2179,5.3298,5.3573,5.3683,5.3683,5.339,5.3185,5.3185,5.3185,5.3185,5.3185,5.3185,5.3185,5.3185,5.3185,5.3185,5.3185,5.3185,5.3185,5.3185,5.3185,5.3185,5.3185,5.3185,5.3185,5.3185,5.3185,5.3185,5.3185,5.3185,5.3185,5.3185,5.3185,5.3185,5.3185,5.3185,5.3185,5.3185,5.3185,5.3185,5.3185,5.3185,5.3185,5.3185,5.3185,5.3185,5.3185,5.3185,5.3185,5.3185,5.3185,5.3185,5.3185,5.3185,5.3185,5.3185,5.3185,5.3185,5.3185,5.3185,5.2949,5.2564,5.2068,5.1483,5.073,4.9757,4.9317,4.8893,4.8379,4.8306,4.8306,4.8306,4.8306,4.8306,4.8306,4.8532,4.8657,4.8657,4.8898,4.8913,4.8675,4.8342,4.807,4.7829,4.7517,4.7113,4.6617,4.6287,4.6009,4.5764,4.4932,4.4928,4.9365,4.9511,4.9371,4.8846,4.7502,4.6329,4.6392,4.5475,4.4865,4.5757,4.602,4.635,4.7161,4.7231,4.7315,0.0,0.0,4.8463,4.9584,5.0148,5.0789,5.1682,5.2206,5.2582,5.2821,5.2858,5.2747,5.2527,5.2491,5.2601,5.2839,5.2858,5.2968,5.3185,5.3185,5.3185,5.3185,5.3185,5.3185,5.3185,5.3185,5.3185,5.3185,5.3185,5.3185,5.3185,5.3185,5.3185,5.3185,5.3185,5.3185,5.3185,5.3185,5.3185,5.3185,5.3185,5.3185,5.3185,5.3185,5.3185,5.3185,5.3185,5.3185,5.3185,5.3185,5.3185,5.3185,5.3185,5.3185,5.3185,5.3185,5.3185,5.3185,5.3185,5.3185,5.3185,5.3185,5.3185,5.3185,5.3185,5.3185,5.3023,5.2454,5.216,5.1652,5.0634,4.9984,4.943,4.8919,4.853,4.8345,4.8458,4.8495,4.8421,4.8306,4.8675,4.8897,4.8897,4.928,4.9371,4.9092,4.8945,4.8761,4.8477,4.8364,4.8012,4.7443,4.7335,4.7141,4.6824,4.6093,4.6242,4.8191,4.8848,4.9311,4.8495,4.7095,4.5991,4.631,4.5475,4.4701,4.5041,4.5381,4.5874,4.675,4.7225,4.7661,0.0,0.0,0.0,4.998,4.9824,5.0024,5.1173,5.1024,5.1132,5.194,5.1995,5.1683,5.0875,5.082,5.1169,5.1958,5.1995,5.238,5.3167,5.3185,5.3185,5.3185,5.3185,5.3185,5.3185,5.3185,5.3185,5.3185,5.3185,5.3185,5.3185,5.3185,5.3185,5.3185,5.3185,5.3185,5.3185,5.3185,5.3185,5.3185,5.3185,5.3185,5.3185,5.3185,5.3185,5.3185,5.3185,5.3185,5.3185,5.3185,5.3185,5.3185,5.3185,5.3185,5.3185,5.3185,5.3185,5.3185,5.3185,5.3185,5.3185,5.3185,5.3185,5.3185,5.3185,5.3185,5.3185,5.3185,5.2527,5.2143,5.2512,5.0878,4.9748,5.0129,4.9067,4.8458,4.8846,4.8897,4.8727,4.8326,4.8675,4.8897,4.8897,4.928,4.9489,4.9489,4.9108,4.8897,4.8897,4.8495,4.8306,4.8288,4.7894,4.7686,4.7665,4.7268,4.7087,4.6881,4.7034,4.6974,4.6709,4.5865,4.5164,4.5491,4.4871,4.429,4.4682,4.5011,4.5348,4.5616,4.5955,4.6537,4.7559,0.0,0.0,4.9514,4.9599,4.9867,5.0767,5.1036,5.1378,5.1944,5.1499,5.1077,5.082,5.0802,5.0912,5.1169,5.1187,5.1793,5.317,5.3185,5.3185,5.3185,5.3185,5.3185,5.3185,5.3185,5.3185,5.3185,5.3185,5.3185,5.3185,5.3185,5.3185,5.3185,5.3185,5.3185,5.3185,5.3185,5.3185,5.3185,5.3185,5.3185,5.3185,5.3185,5.3185,5.3185,5.3185,5.3185,5.3185,5.3185,5.3185,5.3185,5.3185,5.3185,5.3185,5.3185,5.3185,5.3185,5.3185,5.3185,5.3185,5.3185,5.3185,5.3185,5.3185,5.3185,5.3185,5.3185,5.3221,5.2991,5.2298,5.1879,5.1491,5.1075,5.0672,5.0369,5.0216,5.0206,4.9918,4.918,4.9489,4.9714,4.9714,5.0092,5.0195,4.9924,4.9787,4.9589,4.9311,4.9206,4.9126,4.9126,4.8986,4.8767,4.8483,4.9205,4.893,4.5751,4.6073,4.6097,4.5938,4.5296,4.4761,4.4961,4.4488,4.4058,4.4318,4.4757,4.5096,4.5096,4.563,4.6311,4.695,4.7579,4.8281,4.9121,4.9386,4.9678,5.0187,5.0732,5.1068,5.1046,5.0749,5.0414,5.0119,4.9927,4.9994,5.0325,5.0343,5.0949,5.2252,5.2307,5.2307,5.2307,5.2601,5.2601,5.2307,5.2913,5.3041,5.2766,5.3078,5.3185,5.3185,5.3185,5.3185,0.0,5.3185,5.3185,5.3185,5.3185,5.3185,5.3185,5.3185,5.3185,5.3185,5.3185,5.3185,5.3185,5.3185,5.3185,5.3185,5.3185,5.3185,5.3185,5.3185,5.3185,5.3185,5.3185,5.3185,5.3185,5.3185,5.3185,5.3185,5.3185,5.3185,5.3185,5.3185,5.3185,5.3185,5.3185,5.3545,5.3535,5.28,5.2623,5.2469,5.2119,5.1681,5.1424,5.1467,5.1466,5.1313,5.0938,5.0405,5.0092,5.0092,5.0483,5.0594,5.0336,5.0183,4.9974,4.9733,4.9594,4.9489,4.9489,4.9645,4.9638,4.954,5.0325,5.0106,0.0,4.5664,4.6197,4.5825,4.5168,4.4617,4.4617,4.4278,0.0,4.3971,4.4561,4.5082,4.514,4.6061,4.6714,4.6468,4.7739,4.8769,4.8838,4.9269,4.9599,4.9608,5.025,5.0371,4.9659,4.987,4.975,4.9003,4.8604,4.8732,4.9522,4.9559,4.9869,5.06,5.0618,5.0692,5.0802,5.1536,5.1536,5.082,5.238,5.2729,5.2013,5.2839,5.3185,5.3185,5.3185,5.3185,5.3185,5.3185,5.3185,5.3185,5.3185,5.3185,5.3185,5.3185,5.3185,5.3185,5.3185,5.3185,5.3185,5.3185,5.3185,5.3185,5.3185,5.3185,5.3185,5.3185,5.3185,5.3185,5.3185,5.3185,5.3185,5.3185,5.3185,5.3185,5.3185,5.3227,5.323,5.323,5.323,5.3251,5.3293,5.3604,5.3851,5.3851,5.3198,5.2888,5.3277,5.2332,5.1909,5.2666,5.2742,5.287,5.3182,5.1373,5.0224,5.0224,5.0532,5.0712,5.0712,5.0336,5.0147,5.0147,4.9773,4.9594,4.9594,4.9962,5.0336,5.0712,5.0712,5.0712,4.3818,0.0,4.4185,4.4083,4.392,4.3773,0.0,4.3693,4.3631,4.3631,0.0,4.4915,4.5521,4.5785,4.6299,4.7482,4.801,4.8509,4.9162,4.9935,5.0532,5.085,5.0501,5.0301,5.0409,4.9947,4.9563,4.9375,4.9265,4.9169,4.9076,4.9058,4.9011,4.8875,4.8893,4.9499,5.0802,5.0986,5.0986,5.082,5.1811,5.2179,5.2013,5.2839,5.3185,5.3185,5.3185,5.3185,5.3185,5.3185,5.3185,5.3185,5.3185,5.3185,5.3185,5.3185,5.3185,5.3185,5.3185,5.3185,5.3185,5.3185,5.3185,5.3185,5.3185,5.3185,5.3185,5.3185,5.3185,5.3185,5.3185,5.3185,5.3185,5.3185,5.3185,5.3185,5.3185,5.3444,5.3663,5.3663,5.3663,5.3777,5.4119,5.4255,5.4338,5.4338,5.4169,5.4198,5.46,5.4137,5.3838,5.4031,5.4049,5.3832,5.325,5.2141,5.1485,5.1485,5.0999,5.0712,5.0712,5.0614,5.0554,5.0554,5.0472,5.0421,5.0421,5.0504,5.0604,5.0712,5.0712,5.0712,4.3515,4.3754,4.4048,4.4048,4.4048,4.4082,4.4247,0.0,0.0,0.0,0.0,0.0,4.5406,4.5874,4.649,4.7413,4.8202,4.899,4.9875,5.0404,5.0787,5.1001,5.0645,5.0455,5.0684,5.0132,4.9773,4.9773,4.9589,4.9401,4.9187,4.9171,4.9094,4.8864,4.8847,4.9102,4.9646,5.005,5.005,4.9682,5.1242,5.1811,5.1481,5.2674,5.3185,5.3185,5.3185,5.3185,5.3185,5.3185,5.3185,5.3185,5.3185,5.3185,5.3185,5.3185,5.3185,5.3185,5.3185,5.3185,5.3185,5.3185,5.3185,5.3185,5.3185,5.3185,5.3185,5.3185,5.3185,5.3185,5.3185,5.3185,5.3185,5.3185,5.3185,5.3251,5.3442,5.3644,5.3851,5.4083,5.4118,5.4204,5.4471,5.464,5.4701,5.4535,5.4674,5.4848,5.5061,5.4924,5.4855,5.5025,5.5049,5.4857,5.4395,5.3587,5.2933,5.2519,5.2087,5.1664,5.1279,5.1241,5.1087,5.0712,5.0712,5.0712,5.0712,5.0712,5.0712,5.0712,5.0712,5.0712,4.3331,4.4119,4.4907,4.4598,4.4525,4.4593,4.4931,0.0,0.0,0.0,0.0,0.0,4.5268,4.6167,4.6942,4.7058,4.8394,4.9702,5.0577,5.0712,5.0712,5.0712,5.0712,5.0712,5.0712,5.0399,5.0183,5.0183,4.9885,4.9664,4.9589,4.9589,4.9561,4.9504,4.9489,4.9171,4.8477,4.9139,4.9081,4.8343,5.0692,5.1463,5.0857,5.2472,5.3185,5.3185,5.3185,5.3185,5.3185,5.3185,5.3185,5.3185,5.3185,5.3185,5.3185,5.3185,5.3185,5.3185,5.3185,5.3185,5.3185,5.3185,5.3185,5.3185,5.3185,5.3185,5.3185,5.3185,5.3185,5.3185,5.3185,5.3185,5.3185,5.3185,5.3185,5.3316,5.372,5.3869,5.4048,5.45,5.4579,5.4594,5.4671,5.4905,5.5007,5.4735,5.4924,5.5115,5.5186,5.5147,5.525,5.5651,5.5703,5.5703,5.5703,5.5068,5.4376,5.3626,5.3337,5.2876,5.2135,5.2096,5.1722,5.0894,5.0875,5.0827,5.0712,5.0712,5.0712,5.0712,5.0712,5.0712,4.2488,4.4317,4.5811,4.4097,4.3681,4.3764,4.411,0.0,0.0,0.0,0.0,0.0,4.5985,4.655,4.7115,4.7817,4.8759,4.9702,5.0577,5.0712,5.0712,5.0712,5.0712,5.0712,5.0712,5.0634,5.0604,5.0604,5.0554,5.0358,5.0031,5.0019,4.984,4.9504,4.9489,4.9431,4.9311,4.911,4.8769,4.8324,5.0123,5.093,5.0857,5.2472,5.3185,5.3185,5.3185,5.3185,5.3185,5.3185,5.3185,5.3185,5.3185,5.3185,5.3185,5.3185,5.3185,5.3185,5.3185,5.3185,5.3185,5.3185,5.3185,5.3185,5.3185,5.3185,5.3185,5.3185,5.3185,5.3185,5.3185,5.3185,5.3185,5.3185,5.3185,5.3316,5.372,5.4118,5.4516,5.4938,5.5007,5.5121,5.5466,5.5294,5.5199,5.5458,5.5282,5.5212,5.5566,5.5306,5.525,5.5651,5.5703,5.5703,5.5703,5.5588,5.5453,5.5318,5.3972,5.3145,5.301,5.301,5.2606,5.1731,5.1712,5.1375,5.0712,5.0712,5.0712,5.0712,5.0712,5.0712,4.2135,4.3436,4.4547,4.3625,4.4748,4.5933,4.537,4.5242,0.0,0.0,0.0,0.0,4.6473,4.7127,4.799,4.9298,4.9837,5.025,5.0635,5.0712,5.0712,5.0712,5.0712,5.0712,5.0712,5.0712,5.0712,5.0712,5.0712,5.0614,5.0432,5.0421,5.0336,5.0159,5.0147,5.0043,4.9827,4.9645,4.9356,4.8965,4.9952,5.0638,5.1101,5.2099,5.2803,5.3185,5.3185,5.3185,5.3185,5.3185,5.3185,5.3185,5.3185,5.3185,5.3185,5.3185,5.3185,5.3185,5.3185,5.3185,5.3185,5.3185,5.3185,5.3185,5.3185,5.3185,5.3185,5.3185,5.3185,5.3185,5.3185,5.3185,5.3185,5.3185,5.3359,5.3624,5.4083,5.4532,5.4952,5.5363,5.5423,5.5489,5.5662,5.5554,5.5489,5.5662,5.5535,5.5489,5.5673,5.5554,5.5501,5.5673,5.5703,5.5703,5.5703,5.5703,5.5703,5.5703,5.4568,5.3895,5.3895,5.3453,5.301,5.2596,5.2596,5.2414,5.2049,5.1587,5.1356,5.1337,5.0894,5.0712,4.1726,4.2536,4.3377,4.3157,0.0,4.6989,4.6427,4.6145,0.0,0.0,0.0,4.6105,4.6778,4.7573,4.8649,5.019,5.0614,5.074,5.0702,5.0712,5.0712,5.0712,5.0712,5.0712,5.0712,5.0712,5.0712,5.0712,5.0712,5.0712,5.0712,5.0712,5.0712,5.0712,5.0712,5.0554,5.0249,5.0249,4.9987,4.9508,5.0014,5.0605,5.1321,5.1876,5.2502,5.3185,5.3185,5.3185,5.3185,5.3185,5.3185,5.3185,5.3185,5.3185,5.3185,5.3185,5.3185,5.3185,5.3185,5.3185,5.3206,5.3316,5.3293,5.3248,5.3422,5.3357,5.3227,5.3316,5.3339,5.3316,5.3227,5.3185,5.3227,5.3316,5.3565,5.3959,5.4516,5.4876,5.5212,5.561,5.5703,5.5703,5.5703,5.5703,5.5703,5.5703,5.5703,5.5703,5.5703,5.5703,5.5703,5.5703,5.5703,5.5703,5.5703,5.5703,5.5703,5.5703,5.5126,5.478,5.478,5.4145,5.3703,5.351,5.351,5.3395,5.3203,5.2519,5.2192,5.2173,5.1356,5.0971,4.089,4.2299,4.3575,4.2756,4.3114,4.4109,4.5898,4.5707,0.0,4.753,4.7336,4.6836,4.6885,4.7669,4.8583,4.9536,5.0356,5.0844,5.0721,5.0712,5.0712,5.0712,5.0712,5.0712,5.0712,5.0712,5.0712,5.0712,5.0712,5.0712,5.0712,5.0712,5.0712,5.0712,5.0712,5.0683,5.0663,5.0663,5.026,4.9508,5.0289,5.0885,5.1338,5.2121,5.273,5.3185,5.3185,5.3185,5.3185,5.3185,5.3185,5.3185,5.3185,5.3185,5.3185,5.3185,5.3185,5.3185,5.3185,5.3185,5.3272,5.3624,5.3505,5.3357,5.4154,5.3833,5.3293,5.3663,5.3758,5.3682,5.3295,5.3185,5.3295,5.3682,5.3777,5.403,5.4876,5.5075,5.5212,5.561,5.5703,5.5703,5.5703,5.5703,5.5703,5.5703,5.5703,5.5703,5.5703,5.5703,5.5703,5.5703,5.5703,5.5703,5.5703,5.5703,5.5703,5.5703,5.5645,5.5607,5.5607,5.5549,5.5164,5.4414,5.4414,5.401,5.3203,5.3145,5.3106,5.3087,5.2212,5.1808,4.0597,4.1953,4.3157,4.2275,4.3006,0.0,0.0,4.6445,4.7184,4.7952,4.7912,4.7766,4.7766,4.807,4.8554,4.9354,4.983,5.0225,5.0644,5.0231,5.0087,5.0635,5.0231,5.0087,5.0654,5.0712,5.0712,5.0712,5.0712,5.0712,5.0712,5.0712,5.0712,5.0712,5.0712,5.0712,5.0712,5.0712,5.0544,5.0249,5.0298,5.0539,5.0957,5.1799,5.2426,5.2844,5.3363,5.3565,5.3546,5.3295,5.3185,5.3185,5.3185,5.3185,5.3185,5.3185,5.3185,5.3248,5.3504,5.3565,5.3662,5.4083,5.4137,5.4068,5.4406,5.4274,5.405,5.4187,5.4238,5.4118,5.3682,5.3796,5.405,5.4187,5.4433,5.4697,5.5034,5.5294,5.5512,5.5662,5.5703,5.5703,5.5703,5.5703,5.5703,5.5703,5.5703,5.5703,5.5703,5.5703,5.5703,5.5703,5.5703,5.5703,5.5703,5.5703,5.5703,5.5703,5.5703,5.5703,5.5703,5.5703,5.5549,5.5241,5.5241,5.5068,5.4741,5.4241,5.401,5.3991,5.3106,5.2423,4.0189,4.1189,4.22,4.1893,0.0,0.0,4.5406,4.6735,4.7874,4.8454,4.8464,4.8282,4.7991,4.7988,4.8178,4.8632,4.9003,4.941,4.9826,4.9375,4.9202,4.9798,4.9356,4.9221,4.9817,4.9875,4.9875,4.9875,5.0125,5.0289,5.0289,5.0558,5.0712,5.0712,5.0712,5.0712,5.0712,5.0712,5.0712,5.0702,5.0421,5.0506,5.0927,5.1793,5.2416,5.2833,5.3658,5.4013,5.3996,5.3564,5.3316,5.3185,5.3185,5.3185,5.3206,5.3339,5.3381,5.3444,5.3869,5.4013,5.4101,5.4547,5.4594,5.455,5.479,5.4701,5.4535,5.464,5.4686,5.4609,5.4303,5.4352,5.4535,5.4655,5.4909,5.5128,5.525,5.5501,5.5703,5.5703,5.5703,5.5703,5.5703,5.5703,5.5703,5.5703,5.5703,5.5703,5.5703,5.5703,5.5703,5.5703,5.5703,5.5703,5.5703,5.5703,5.5703,5.5703,5.5703,5.5703,5.5703,5.5703,5.5703,5.5703,5.5703,5.5703,5.5703,5.5145,5.4876,5.4857,5.401,5.3299,3.9515,3.9881,4.0708,4.1566,0.0,0.0,4.5396,4.636,4.7407,4.9214,4.8996,4.8214,4.7354,4.7307,4.7357,4.7216,4.7922,4.8394,4.8139,4.8086,4.8086,4.8105,4.8086,4.8086,4.8105,4.8105,4.8105,4.8105,4.8894,4.9394,4.9394,5.0231,5.0693,5.0712,5.0712,5.0712,5.0712,5.0712,5.0712,5.0712,5.0712,5.0913,5.1326,5.2183,5.2802,5.3245,5.4126,5.4503,5.4471,5.3995,5.3584,5.3206,5.3206,5.3206,5.3251,5.3663,5.3814,5.3869,5.4338,5.4503,5.4563,5.4979,5.4852,5.4655,5.5466,5.5147,5.4579,5.4993,5.5121,5.5121,5.5121,5.4804,5.4609,5.5007,5.5121,5.5212,5.561,5.5703,5.5703,5.5703,5.5703,5.5703,5.5703,5.5703,5.5703,5.5703,5.5703,5.5703,5.5703,5.5703,5.5703,5.5703,5.5703,5.5703,5.5703,5.5703,5.5703,5.5703,5.5703,5.5703,5.5703,5.5703,5.5703,5.5703,5.5703,5.5703,5.5703,5.5703,5.5703,5.5684,5.4876,5.4511,3.8623,3.9419,4.0573,4.0952,4.2582,4.4265,0.0,4.6102,0.0,4.8705,4.8225,4.7536,4.7375,4.6877,4.6632,4.7118,4.7412,4.7741,4.8171,4.7664,4.7471,4.8029,4.7605,4.749,4.8048,4.8105,4.8105,4.8105,4.8336,4.8759,4.9375,4.9644,5.0067,5.0673,5.0712,5.0712,5.0712,5.0712,5.0712,5.0712,5.0712,5.0617,5.0493,5.1614,5.2349,5.2827,5.365,5.4372,5.4862,5.4099,5.3739,5.3604,5.3316,5.338,5.3644,5.3758,5.4013,5.4355,5.4775,5.4924,5.4993,5.5399,5.5435,5.5387,5.564,5.5524,5.5375,5.5489,5.5512,5.5512,5.5512,5.5423,5.5368,5.5489,5.5512,5.5546,5.5673,5.5703,5.5703,5.5703,5.5703,5.5703,5.5703,5.5703,5.5703,5.5703,5.5703,5.5703,5.5703,5.5703,5.5703,5.5703,5.5703,5.5703,5.5703,5.5703,5.5703,5.5703,5.5703,5.5703,5.5703,5.5703,5.5703,5.5703,5.5703,5.5703,5.5703,5.5703,5.5703,5.5684,5.5453,5.503,3.8684,3.9553,4.0771,4.1571,4.2981,4.4342,4.5142,4.6339,4.7524,4.8435,4.7944,4.7379,4.7394,4.6731,4.6318,4.6693,4.6722,4.6824,4.7243,4.6761,4.6567,4.7048,4.6682,4.6567,4.7067,4.7105,4.7105,4.7105,4.7432,4.799,4.8836,4.9202,4.9798,5.0673,5.0712,5.0712,5.0712,5.0712,5.0712,5.0712,5.0712,5.0565,5.0366,5.141,5.2052,5.2395,5.357,5.4269,5.4572,5.4393,5.4219,5.4048,5.3814,5.3851,5.4101,5.427,5.4497,5.4809,5.5199,5.5331,5.5387,5.561,5.5703,5.5703,5.5703,5.5703,5.5703,5.5703,5.5703,5.5703,5.5703,5.5703,5.5703,5.5703,5.5703,5.5703,5.5703,5.5703,5.5703,5.5703,5.5703,5.5703,5.5703,5.5703,5.5703,5.5703,5.5703,5.5703,5.5703,5.5703,5.5703,5.5703,5.5703,5.5703,5.5703,5.5703,5.5703,5.5703,5.5703,5.5703,5.5703,5.5703,5.5703,5.5703,5.5703,5.5703,5.5703,5.5703,5.5703,5.5703,5.5703,5.5434,3.9184,3.9863,4.1031,4.2754,4.3398,4.4042,4.5683,4.6572,4.7289,4.8132,4.7852,4.7439,4.7311,4.6749,4.6268,4.6144,4.6018,4.5896,4.5828,4.57,4.5612,4.5594,4.5594,4.5594,4.5594,4.5594,4.5594,4.5594,4.6336,4.7144,4.7952,4.8817,4.9683,5.0558,5.0654,5.0712,5.0712,5.0712,5.0712,5.0712,5.0712,5.0712,5.0731,5.1471,5.1827,5.2,5.3741,5.4261,5.3945,5.4758,5.4876,5.455,5.45,5.4535,5.4613,5.4966,5.5115,5.5199,5.5577,5.5703,5.5703,5.5703,5.5703,5.5703,5.5703,5.5703,5.5703,5.5703,5.5703,5.5703,5.5703,5.5703,5.5703,5.5703,5.5703,5.5703,5.5703,5.5703,5.5703,5.5703,5.5703,5.5703,5.5703,5.5703,5.5703,5.5703,5.5703,5.5703,5.5703,5.5703,5.5703,5.5703,5.5703,5.5703,5.5703,5.5703,5.5703,5.5703,5.5703,5.5703,5.5703,5.5703,5.5703,5.5703,5.5703,5.5703,5.5703,5.5703,5.5703,5.5703,5.5703,5.5703,3.7616,3.8607,4.0116,4.122,4.2619,4.3788,4.418,4.4374,4.4938,4.6456,4.6677,4.6562,4.6541,4.6406,4.6289,4.6268,4.6145,4.6021,4.59,4.5814,4.5723,4.5612,4.5594,4.5594,4.5594,4.5594,4.5594,4.5594,4.5768,4.624,4.7105,4.7932,4.8779,4.9644,5.0346,5.0712,5.0712,5.0712,5.0712,5.0712,5.0712,5.0712,5.0712,5.0875,5.1298,5.2,5.3741,5.444,5.4402,5.49,5.5048,5.4952,5.4609,5.4686,5.4979,5.5061,5.5306,5.5577,5.5662,5.5703,5.5703,5.5703,5.5703,5.5703,5.5703,5.5703,5.5703,5.5703,5.5703,5.5703,5.5703,5.5703,5.5703,5.5703,5.5703,5.5703,5.5703,5.5703,5.5703,5.5703,5.5703,5.5703,5.5703,5.5703,5.5703,5.5703,5.5703,5.5703,5.5703,5.5703,5.5703,5.5703,5.5703,5.5703,5.5703,5.5703,5.5703,5.5703,5.5703,5.5703,5.5703,5.5703,5.5703,5.5703,5.5703,5.5703,5.5703,5.5703,5.5703,5.5703,5.5703,5.5703,3.8124,3.8929,3.997,4.1332,4.2693,4.3691,4.3691,4.3691,4.3965,4.4863,4.5391,4.5801,4.6211,4.6308,4.6308,4.6308,4.6198,4.6077,4.6018,4.5885,4.5763,4.57,4.5643,4.5594,4.5594,4.5594,4.5594,4.5594,4.5594,4.597,4.6846,4.7663,4.8509,4.9375,5.025,5.0712,5.0712,5.0712,5.0712,5.0712,5.0712,5.0712,5.0712,5.0712,5.0933,5.1414,5.3126,5.3876,5.3962,5.4979,5.5387,5.5375,5.516,5.5199,5.5387,5.5387,5.5512,5.5703,5.5703,5.5703,5.5703,5.5703,5.5703,5.5703,5.5703,5.5703,5.5703,5.5703,5.5703,5.5703,5.5703,5.5703,5.5703,5.5703,5.5703,5.5703,5.5703,5.5703,5.5703,5.5703,5.5703,5.5703,5.5703,5.5703,5.5703,5.5703,5.5703,5.5703,5.5703,5.5703,5.5703,5.5703,5.5703,5.5703,5.5703,5.5703,5.5703,5.5703,5.5703,5.5703,5.5703,5.5703,5.5703,5.5703,5.5703,5.5703,5.5703,5.5703,5.5703,5.5703,5.5703,5.5703,3.864,3.938,4.0136,4.1777,4.2734,4.3262,4.3262,4.3262,4.3301,4.3457,4.4297,4.5176,4.5742,4.6094,4.625,4.6094,4.6103,4.614,4.6091,4.5966,4.5846,4.5809,4.57,4.5637,4.5594,4.5594,4.5594,4.5594,4.5594,4.5913,4.6644,4.7451,4.8298,4.9144,5.001,5.0558,5.0712,5.0712,5.0712,5.0712,5.0712,5.0712,5.0712,5.0712,5.0712,5.0789,5.2472,5.3203,5.3337,5.5011,5.5703,5.5703,5.5703,5.5703,5.5703,5.5703,5.5703,5.5703,5.5703,5.5703,5.5703,5.5703,5.5703,5.5703,5.5703,5.5703,5.5703,5.5703,5.5703,5.5703,5.5703,5.5703,5.5703,5.5703,5.5703,5.5703,5.5703,5.5703,5.5703,5.5703,5.5703,5.5703,5.5703,5.5703,5.5703,5.5703,5.5703,5.5703,5.5703,5.5703,5.5703,5.5703,5.5703,5.5703,5.5703,5.5703,5.5703,5.5703,5.5703,5.5703,5.5703,5.5703,5.5703,5.5703,5.5703,5.5703,5.5703,5.5703,5.5703,5.5703,5.5703,5.5703,3.6348,3.8093,4.0116,4.1113,4.1445,4.1523,4.1523,4.1523,4.1738,4.2422,4.3867,4.4805,4.416,4.5273,4.6055,4.5293,4.5781,4.6226,4.6117,4.6075,4.6006,4.5815,4.5776,4.5737,4.5612,4.5594,4.5594,4.5594,4.5594,4.5652,4.5768,4.6586,4.7432,4.8259,4.9125,4.9933,5.0693,5.0712,5.0712,5.0712,5.0712,5.0712,5.0712,5.0712,5.0712,5.0789,5.2472,5.3203,5.3337,5.5011,5.5703,5.5703,5.5703,5.5703,5.5703,5.5703,5.5703,5.5703,5.5703,5.5703,5.5703,5.5703,5.5703,5.5703,5.5703,5.5703,5.5703,5.5703,5.5703,5.5703,5.5703,5.5703,5.5703,5.5703,5.5703,5.5703,5.5703,5.5703,5.5703,5.5703,5.5703,5.5703,5.5703,5.5703,5.5703,5.5703,5.5703,5.5703,5.5703,5.5703,5.5703,5.5703,5.5703,5.5703,5.5703,5.5703,5.5703,5.5703,5.5703,5.5703,5.5703,5.5703,5.5703,5.5703,5.5703,5.5703,5.5703,5.5703,5.5703,5.5703,5.5703,5.5703,3.5696,3.7889,3.998,4.0371,4.084,4.1191,4.1191,4.1191,4.1308,4.1641,4.2695,4.3574,4.3672,4.4336,4.4726,4.4336,4.5,4.5546,4.5481,4.5833,4.6069,4.5971,4.5872,4.5789,4.5723,4.5651,4.5594,4.5594,4.5594,4.5594,4.5594,4.6432,4.7058,4.7432,4.8702,4.9586,4.9971,5.0462,5.0712,5.0712,5.0712,5.0712,5.0712,5.0712,5.0712,5.077,5.1972,5.275,5.3299,5.4511,5.528,5.5703,5.5703,5.5703,5.5703,5.5703,5.5703,5.5703,5.5703,5.5703,5.5703,5.5703,5.5703,5.5703,5.5703,5.5703,5.5703,5.5703,5.5703,5.5703,5.5703,5.5703,5.5703,5.5703,5.5703,5.5703,5.5703,5.5703,5.5703,5.5703,5.5703,5.5703,5.5703,5.5703,5.5703,5.5703,5.5703,5.5703,5.5703,5.5703,5.5703,5.5703,5.5703,5.5703,5.5703,5.5703,5.5703,5.5703,5.5703,5.5703,5.5703,5.5703,5.5703,5.5703,5.5703,5.5703,5.5703,5.5703,5.5703,5.5703,5.5703,5.5703,3.5195,3.7245,3.8982,3.9412,4.0151,4.0851,4.109,4.115,4.1151,4.1191,4.168,4.2285,4.2949,4.3418,4.3633,4.3418,4.4101,4.4746,4.4961,4.5461,4.589,4.6071,4.5978,4.5867,4.5826,4.5725,4.566,4.566,4.5629,4.5594,4.5594,4.622,4.6682,4.6885,4.8105,4.8971,4.9394,5.0269,5.0712,5.0712,5.0712,5.0712,5.0712,5.0712,5.0712,5.075,5.1548,5.2385,5.328,5.4145,5.4972,5.5703,5.5703,5.5703,5.5703,5.5703,5.5703,5.5703,5.5703,5.5703,5.5703,5.5703,5.5703,5.5703,5.5703,5.5703,5.5703,5.5703,5.5703,5.5703,5.5703,5.5703,5.5703,5.5703,5.5703,5.5703,5.5703,5.5703,5.5703,5.5703,5.5703,5.5703,5.5703,5.5703,5.5703,5.5703,5.5703,5.5703,5.5703,5.5703,5.5703,5.5703,5.5703,5.5703,5.5703,5.5703,5.5703,5.5703,5.5703,5.5703,5.5703,5.5703,5.5703,5.5703,5.5703,5.5703,5.5703,5.5703,5.5703,5.5703,5.5703,5.5703,3.4316,3.5422,3.649,3.8089,3.9082,3.9929,4.0812,4.1019,4.1051,4.1171,4.123,4.1289,4.1328,4.2637,4.3437,4.2598,4.3203,4.4062,4.4883,4.5039,4.5328,4.6017,4.6084,4.6033,4.5903,4.5825,4.579,4.579,4.5673,4.5594,4.5594,4.5633,4.6047,4.6865,4.6981,4.7798,4.9375,5.0269,5.0712,5.0712,5.0712,5.0712,5.0712,5.0712,5.0712,5.075,5.1548,5.2385,5.328,5.4145,5.4972,5.5703,5.5703,5.5703,5.5703,5.5703,5.5703,5.5703,5.5703,5.5703,5.5703,5.5703,5.5703,5.5703,5.5703,5.5703,5.5703,5.5703,5.5703,5.5703,5.5703,5.5703,5.5703,5.5703,5.5703,5.5703,5.5703,5.5703,5.5703,5.5703,5.5703,5.5703,5.5703,5.5703,5.5703,5.5703,5.5703,5.5703,5.5703,5.5703,5.5703,5.5703,5.5703,5.5703,5.5703,5.5703,5.5703,5.5703,5.5703,5.5703,5.5703,5.5703,5.5703,5.5703,5.5703,5.5703,5.5703,5.5703,5.5703,5.5703,5.5703,5.5703,3.2748,3.3925,3.5273,3.644,3.7764,3.8994,3.9896,4.0579,4.1002,4.1055,4.1149,4.1191,4.1191,4.1699,4.1992,4.168,4.2324,4.2969,4.3281,4.4297,4.5097,4.5366,4.5815,4.608,4.6036,4.589,4.5828,4.5866,4.5691,4.5635,4.5711,4.5651,4.5748,4.6067,4.6605,4.7702,4.9375,4.9702,5.0144,5.0712,5.0712,5.0712,5.0712,5.0712,5.0712,5.0731,5.0991,5.1606,5.2423,5.3318,5.4164,5.4972,5.5491,5.5703,5.5703,5.5703,5.5703,5.5703,5.5703,5.5703,5.5703,5.5703,5.5703,5.5703,5.5703,5.5703,5.5703,5.5703,5.5703,5.5703,5.5703,5.5703,5.5703,5.5703,5.5703,5.5703,5.5703,5.5703,5.5703,5.5703,5.5703,5.5703,5.5703,5.5703,5.5703,5.5703,5.5703,5.5703,5.5703,5.5703,5.5703,5.5703,5.5703,5.5703,5.5703,5.5703,5.5703,5.5703,5.5703,5.5703,5.5703,5.5703,5.5703,5.5703,5.5703,5.5703,5.5703,5.5703,5.5703,5.5703,5.5703,5.5703,3.1468,3.2503,3.3944,3.5372,3.6552,3.7821,3.9576,4.0221,4.0548,4.0864,4.0998,4.108,4.1127,4.1129,4.1149,4.1191,4.1641,4.209,4.2363,4.3652,4.4668,4.4961,4.5696,4.6173,4.6173,4.601,4.5896,4.5899,4.5751,4.5696,4.5725,4.5651,4.5594,4.5594,4.6451,4.7567,4.8952,4.924,4.9837,5.0712,5.0712,5.0712,5.0712,5.0712,5.0712,5.0712,5.0712,5.1164,5.1962,5.2837,5.3703,5.4587,5.5395,5.5703,5.5703,5.5703,5.5703,5.5703,5.5703,5.5703,5.5703,5.5703,5.5703,5.5703,5.5703,5.5703,5.5703,5.5703,5.5703,5.5703,5.5703,5.5703,5.5703,5.5703,5.5703,5.5703,5.5703,5.5703,5.5703,5.5703,5.5703,5.5703,5.5703,5.5703,5.5703,5.5703,5.5703,5.5703,5.5703,5.5703,5.5703,5.5703,5.5703,5.5703,5.5703,5.5703,5.5703,5.5703,5.5703,5.5703,5.5703,5.5703,5.5703,5.5703,5.5703,5.5703,5.5703,5.5703,5.5703,5.5703,5.5703,5.5549,0.0,0.0,0.0,3.4863,3.5456,3.6324,3.9771,3.9909,3.9591,4.0559,4.0758,4.0808,4.0964,4.1014,4.1088,4.121,4.123,4.1523,4.2324,4.3183,4.4043,4.4902,4.5762,4.6308,4.6308,4.6175,4.6042,4.5912,4.5836,4.574,4.5612,4.5594,4.5594,4.5594,4.6413,4.7259,4.8086,4.8933,4.9798,5.0712,5.0712,5.0712,5.0712,5.0712,5.0712,5.0712,5.0712,5.1144,5.1923,5.2799,5.3683,5.453,5.5338,5.5684,5.5703,5.5703,5.5703,5.5703,5.5703,5.5703,5.5703,5.5703,5.5703,5.5703,5.5703,5.5703,5.5703,5.5703,5.5703,5.5703,5.5703,5.5703,5.5703,5.5703,5.5703,5.5703,5.5703,5.5703,5.5703,5.5703,5.5703,5.5703,5.5703,5.5703,5.5703,5.5703,5.5703,5.5703,5.5703,5.5703,5.5703,5.5703,5.5703,5.5703,5.5703,5.5703,5.5703,5.5703,5.5703,5.5703,5.5703,5.5703,5.5703,5.5703,5.5703,5.5703,5.5703,5.5703,5.5703,5.5703,5.5684,5.5222,3.0472,0.0,0.0,0.0,0.0,0.0,3.644,3.7286,3.8,3.9485,3.9857,4.0112,4.0737,4.1454,4.1958,4.1989,4.2047,4.2363,4.3223,4.4082,4.4726,4.4961,4.5762,4.6308,4.6308,4.6175,4.6082,4.6045,4.5896,4.5776,4.5747,4.564,4.5594,4.5594,4.5825,4.6644,4.8086,4.8336,4.9202,5.0712,5.0712,5.0712,5.0712,5.0712,5.0712,5.0712,5.0712,5.0827,5.1106,5.1933,5.2779,5.3645,5.4491,5.5184,5.5703,5.5703,5.5703,5.5703,5.5703,5.5703,5.5703,5.5703,5.5703,5.5703,5.5703,5.5703,5.5703,5.5703,5.5703,5.5703,5.5703,5.5703,5.5703,5.5703,5.5703,5.5703,5.5703,5.5703,5.5703,5.5703,5.5703,5.5703,5.5703,5.5703,5.5703,5.5703,5.5703,5.5703,5.5703,5.5703,5.5703,5.5703,5.5703,5.5703,5.5703,5.5703,5.5703,5.5703,5.5703,5.5703,5.5703,5.5703,5.5703,5.5703,5.5703,5.5703,5.5703,5.5703,5.5703,5.5684,5.5107,5.4049,3.0447,0.0,0.0,3.191,0.0,0.0,3.5442,3.617,3.6785,3.8466,3.9176,3.9621,4.0121,4.0984,4.1873,4.2649,4.2783,4.3029,4.3613,4.4453,4.5,4.5,4.5762,4.6308,4.6308,4.6225,4.6144,4.6011,4.5915,4.5802,4.5711,4.5643,4.5594,4.5594,4.5594,4.624,4.7586,4.7932,4.8798,5.0164,5.0539,5.0712,5.0712,5.0712,5.0712,5.0712,5.0712,5.0712,5.075,5.1202,5.1895,5.2779,5.401,5.478,5.5241,5.5568,5.5703,5.5703,5.5703,5.5703,5.5703,5.5703,5.5703,5.5703,5.5703,5.5703,5.5703,5.5703,5.5703,5.5703,5.5703,5.5703,5.5703,5.5703,5.5703,5.5703,5.5703,5.5703,5.5703,5.5703,5.5703,5.5703,5.5703,5.5703,5.5703,5.5703,5.5703,5.5703,5.5703,5.5703,5.5703,5.5703,5.5703,5.5703,5.5703,5.5703,5.5703,5.5703,5.5703,5.5703,5.5703,5.5703,5.5703,5.5703,5.5703,5.5703,5.5703,5.5703,5.553,5.5164,5.3972,5.2876,3.0503,3.0442,0.0,3.2256,3.2071,0.0,3.5402,3.5549,3.5511,3.719,3.8173,3.8816,3.9056,3.9904,4.1078,4.2698,4.3287,4.365,4.3922,4.4628,4.5136,4.5137,4.582,4.6308,4.6308,4.6308,4.6199,4.5936,4.5894,4.5805,4.5612,4.5594,4.5594,4.5594,4.5594,4.6009,4.6885,4.7702,4.8548,4.9413,5.0289,5.0712,5.0712,5.0712,5.0712,5.0712,5.0712,5.0712,5.0712,5.0712,5.1164,5.2038,5.3606,5.4337,5.4587,5.5299,5.5607,5.5703,5.5703,5.5703,5.5703,5.5703,5.5703,5.5703,5.5703,5.5703,5.5703,5.5703,5.5703,5.5703,5.5703,5.5703,5.5703,5.5703,5.5703,5.5703,5.5703,5.5703,5.5703,5.5703,5.5703,5.5703,5.5703,5.5703,5.5703,5.5703,5.5703,5.5703,5.5703,5.5703,5.5703,5.5703,5.5703,5.5703,5.5703,5.5703,5.5703,5.5703,5.5703,5.5703,5.5703,5.5703,5.5703,5.5703,5.5703,5.5665,5.5568,5.5568,5.5145,5.4318,5.2673,5.1846,3.0505,3.0442,3.0481,3.0808,3.0612,0.0,3.2045,3.2237,3.2607,3.4267,3.4923,3.5617,3.6979,3.8568,3.9774,4.0116,4.2587,4.4724,4.551,4.5773,4.5922,4.6035,4.6191,4.6308,4.6308,4.6308,4.6226,4.6077,4.5906,4.5756,4.5612,4.5594,4.5594,4.5594,4.5594,4.6009,4.6885,4.7702,4.8548,4.9413,5.0289,5.0712,5.0712,5.0712,5.0712,5.0712,5.0712,5.0712,5.0712,5.0712,5.1164,5.1923,5.2269,5.326,5.4511,5.4684,5.5145,5.5703,5.5703,5.5703,5.5703,5.5703,5.5703,5.5703,5.5703,5.5703,5.5703,5.5703,5.5703,5.5703,5.5703,5.5703,5.5703,5.5703,5.5703,5.5703,5.5703,5.5703,5.5703,5.5703,5.5703,5.5703,5.5703,5.5703,5.5703,5.5703,5.5703,5.5703,5.5703,5.5703,5.5703,5.5703,5.5703,5.5703,5.5703,5.5703,5.5703,5.5703,5.5703,5.5703,5.5703,5.5703,5.5703,5.5703,5.5703,5.5376,5.4722,5.4722,5.4299,5.3433,5.2385,5.1548,3.0551,3.0472,3.0367,3.0222,3.0096,0.0,0.0,3.1149,3.1542,3.292,3.3632,3.4302,3.5262,3.6884,3.8344,3.9213,4.1177,4.3084,4.4455,4.5481,4.6147,4.6289,4.6308,4.6308,4.6308,4.6308,4.6222,4.6024,4.5875,4.574,4.5603,4.5594,4.5594,4.5594,4.5594,4.5806,4.624,4.749,4.8317,4.8779,5.0067,5.0712,5.0712,5.0712,5.0712,5.0712,5.0712,5.0712,5.0712,5.0712,5.0933,5.1337,5.1731,5.2692,5.3895,5.4337,5.5011,5.5703,5.5703,5.5703,5.5703,5.5703,5.5703,5.5703,5.5703,5.5703,5.5703,5.5703,5.5703,5.5703,5.5703,5.5703,5.5703,5.5703,5.5703,5.5703,5.5703,5.5703,5.5703,5.5703,5.5703,5.5703,5.5703,5.5703,5.5703,5.5703,5.5703,5.5703,5.5703,5.5703,5.5703,5.5703,5.5703,5.5703,5.5703,5.5703,5.5703,5.5703,5.5703,5.5703,5.5703,5.5703,5.5511,5.5107,5.5107,5.4684,5.3857,5.3414,5.2991,5.2519,5.1683,5.1087,3.0603,3.0498,3.0355,3.0136,3.0006,3.0079,0.0,0.0,0.0,3.1811,3.2564,3.3173,3.3513,3.4861,3.6418,3.7982,3.92,4.0542,4.2221,4.3957,4.5248,4.5719,4.6053,4.621,4.6055,4.6055,4.6024,4.5947,4.5719,4.5595,4.5632,4.562,4.5594,4.5594,4.5594,4.5594,4.5594,4.7259,4.8105,4.8125,4.9875,5.0712,5.0712,5.0712,5.0712,5.0712,5.0712,5.0712,5.0712,5.0712,5.0712,5.077,5.1414,5.2299,5.3299,5.3991,5.4876,5.5703,5.5703,5.5703,5.5703,5.5703,5.5703,5.5703,5.5703,5.5703,5.5703,5.5703,5.5703,5.5703,5.5703,5.5703,5.5703,5.5703,5.5703,5.5703,5.5703,5.5703,5.5703,5.5703,5.5703,5.5703,5.5703,5.5703,5.5703,5.5703,5.5703,5.5703,5.5703,5.5703,5.5703,5.5703,5.5703,5.5703,5.5703,5.5703,5.5703,5.5703,5.5703,5.5703,5.5703,5.5549,5.5164,5.4511,5.4337,5.3818,5.2953,5.2231,5.1904,5.1885,5.1068,5.0712,3.0603,3.0498,3.0398,3.0361,3.0044,2.9758,2.9827,0.0,2.9612,2.9745,0.0,3.0617,3.125,0.0,0.0,3.4281,3.64,3.8373,3.9652,4.0687,4.1963,4.3691,4.5223,4.586,4.5215,4.5156,4.5406,4.6026,4.5297,4.5098,4.5737,4.5665,4.5594,4.5594,4.5594,4.5594,4.5594,4.7259,4.8105,4.8125,4.9875,5.0712,5.0712,5.0712,5.0712,5.0712,5.0712,5.0712,5.0712,5.0712,5.0712,5.0712,5.0808,5.1798,5.3222,5.3318,5.4357,5.5703,5.5703,5.5703,5.5703,5.5703,5.5703,5.5703,5.5703,5.5703,5.5703,5.5703,5.5703,5.5703,5.5703,5.5703,5.5703,5.5703,5.5703,5.5703,5.5703,5.5703,5.5703,5.5703,5.5703,5.5703,5.5703,5.5703,5.5703,5.5703,5.5703,5.5703,5.5703,5.5703,5.5703,5.5703,5.5703,5.5703,5.5703,5.5703,5.5703,5.5703,5.5703,5.5703,5.5703,5.5011,5.4587,5.4491,5.3741,5.2933,5.2038,5.1942,5.1904,5.1885,5.1068,5.0712,3.0617,3.0529,3.0416,3.0209,3.0025,2.9813,2.9579,2.9464,2.9402,2.9402,0.0,0.0,0.0,0.0,0.0,0.0,3.5117,3.6714,3.8363,3.9341,4.0787,4.3208,4.3659,4.408,4.4867,4.4979,4.5309,4.6035,4.5262,4.5083,4.5827,4.5764,4.5723,4.5723,4.5643,4.5845,4.6355,4.7528,4.8355,4.8875,5.0106,5.0712,5.0712,5.0712,5.0712,5.0712,5.0712,5.0712,5.0712,5.0712,5.0712,5.0712,5.0712,5.1722,5.3203,5.3203,5.426,5.5703,5.5703,5.5703,5.5703,5.5703,5.5703,5.5703,5.5703,5.5703,5.5703,5.5703,5.5703,5.5703,5.5703,5.5703,5.5703,5.5703,5.5703,5.5703,5.5703,5.5703,5.5703,5.5703,5.5703,5.5703,5.5703,5.5703,5.5703,5.5703,5.5703,5.5703,5.5703,5.5703,5.5703,5.5703,5.5703,5.5703,5.5703,5.5703,5.5703,5.5703,5.5261,5.4991,5.4991,5.4184,5.351,5.301,5.2635,5.2049,5.1202,5.1202,5.1202,5.1202,5.0866,5.0712,3.0633,3.0561,3.0438,3.0202,3.0065,2.9916,2.9551,2.9434,2.9382,2.931,2.9518,0.0,0.0,0.0,3.1861,3.342,0.0,3.5422,3.737,3.8007,3.9264,4.1975,4.2427,4.3145,4.4747,4.474,4.5057,4.6074,4.5102,4.4916,4.5908,4.5871,4.5828,4.5803,4.5708,4.6059,4.6894,4.7702,4.8548,4.9413,5.0289,5.0712,5.0712,5.0712,5.0712,5.0712,5.0712,5.0712,5.0712,5.0712,5.0712,5.0712,5.0712,5.1722,5.3203,5.3203,5.426,5.5703,5.5703,5.5703,5.5703,5.5703,5.5703,5.5703,5.5703,5.5703,5.5703,5.5703,5.5703,5.5703,5.5703,5.5703,5.5703,5.5703,5.5703,5.5703,5.5703,5.5703,5.5703,5.5703,5.5703,5.5703,5.5703,5.5703,5.5703,5.5703,5.5703,5.5703,5.5703,5.5703,5.5703,5.5703,5.5703,5.5703,5.5703,5.5703,5.5703,5.5703,5.5145,5.4818,5.4818,5.378,5.2895,5.2269,5.1808,5.1279,5.0712,5.0712,5.0712,5.0712,5.0712,5.0712,3.0683,3.0609,3.0498,3.049,3.0244,2.9947,2.9748,2.9551,2.933,2.9067,2.9843,3.0471,3.0237,3.1264,3.2449,0.0,3.365,0.0,0.0,3.6096,3.6582,3.9212,4.1912,4.3907,4.4807,4.4193,4.4453,4.6152,4.463,4.4367,4.6009,4.5974,4.5876,4.5803,4.5796,4.6143,4.6894,4.7702,4.8548,4.9413,5.0289,5.0712,5.0712,5.0712,5.0712,5.0712,5.0712,5.0712,5.0712,5.0712,5.0712,5.0712,5.0712,5.1722,5.3203,5.3203,5.426,5.5703,5.5703,5.5703,5.5703,5.5703,5.5703,5.5703,5.5703,5.5703,5.5703,5.5703,5.5703,5.5703,5.5703,5.5703,5.5703,5.5703,5.5703,5.5703,5.5703,5.5703,5.5703,5.5703,5.5703,5.5703,5.5703,5.5703,5.5703,5.5703,5.5703,5.5703,5.5703,5.5703,5.5703,5.5703,5.5703,5.5703,5.5703,5.5703,5.5703,5.5703,5.5684,5.5665,5.5665,5.4087,5.3203,5.3164,5.1568,5.0731,5.0712,5.0712,5.0712,5.0712,5.0712,5.0712,3.0552,3.0673,3.0611,3.0578,3.0455,3.029,3.0087,2.9916,2.9705,2.9343,2.9669,3.0104,3.04,3.0976,0.0,0.0,0.0,3.4231,0.0,3.5424,3.6319,3.8366,4.0968,4.2718,4.3023,4.3968,4.4805,4.5391,4.4861,4.5034,4.6167,4.611,4.5974,4.5862,4.582,4.6402,4.7682,4.7971,4.8836,5.0269,5.0558,5.0712,5.0712,5.0712,5.0712,5.0712,5.0712,5.0712,5.0712,5.0712,5.0712,5.075,5.1298,5.2202,5.3203,5.3203,5.426,5.5703,5.5703,5.5703,5.5703,5.5703,5.5703,5.5703,5.5703,5.5703,5.5703,5.5703,5.5703,5.5703,5.5703,5.5703,5.5703,5.5703,5.5703,5.5703,5.5703,5.5703,5.5703,5.5703,5.5703,5.5703,5.5703,5.5703,5.5703,5.5703,5.5703,5.5703,5.5703,5.5703,5.5703,5.5703,5.5703,5.5703,5.5703,5.5703,5.5703,5.5703,5.5203,5.4914,5.4914,5.3818,5.2933,5.2346,5.1779,5.1221,5.0712,5.0712,5.0712,5.0712,5.0712,5.0712,3.0154,3.0509,3.0689,3.0655,3.0587,3.0481,3.0249,3.0139,2.9961,2.957,2.9842,3.0244,3.0678,3.1425,3.2438,0.0,0.0,0.0,0.0,3.5586,3.6624,3.8074,4.0275,4.1925,4.2572,4.3246,4.4141,4.5371,4.4609,4.4726,4.6211,4.6174,4.6039,4.5903,4.5825,4.6537,4.8086,4.8105,4.8971,5.0712,5.0712,5.0712,5.0712,5.0712,5.0712,5.0712,5.0712,5.0712,5.0712,5.0712,5.0712,5.0789,5.1587,5.2423,5.3241,5.3549,5.453,5.5703,5.5703,5.5703,5.5703,5.5703,5.5703,5.5703,5.5703,5.5703,5.5703,5.5703,5.5703,5.5703,5.5703,5.5703,5.5703,5.5703,5.5703,5.5703,5.5703,5.5703,5.5703,5.5703,5.5703,5.5703,5.5703,5.5703,5.5703,5.5703,5.5703,5.5703,5.5703,5.5703,5.5703,5.5703,5.5703,5.5703,5.5703,5.5703,5.5703,5.5703,5.5203,5.4934,5.4934,5.4107,5.3395,5.2837,5.2212,5.1635,5.1125,5.0846,5.0712,5.0712,5.0712,5.0712]}]]